[[{"header":{"parameterUnit":"m.s-1","parameterCategory":1,"la1":30.6,"la2":28.766,"lo1":-90.7593,"lo2":-88.6598,"dy":0.0162,"dx":0.0183,"nx":116,"ny":114,"refTime":"2023-09-09T12:00:00:Z","depth":0,"parameterNumber":2,"parameterNumberName":"U-component_of_WINDS"},"data":[0.0,0.0,0.0,0.0,0.0,0.0,0.0,0.0,0.0,0.0,0.0,0.0,0.0,0.0,0.0,0.0,0.0,0.0,0.0,0.0,0.0,0.0,0.0,0.0,0.0,0.0,0.0,0.0,0.0,0.0,0.0,0.0,0.0,0.0,0.0,0.0,0.0,0.0,0.0,0.0,0.0,0.0,0.0,0.0,0.0,0.0,0.0,0.0,0.0,0.0,0.0,0.0,0.0,0.0,0.0,0.0,0.0,0.0,0.0,0.0,0.0,0.0,0.0,0.0,0.0,0.0,0.0,0.0,0.0,0.0,0.0,0.0,0.0,0.0,0.0,0.0,0.0,0.0,0.0,0.0,0.0,0.0,0.0,0.0,0.0,0.0,0.0,0.0,0.0,0.0,0.0,0.0,0.0,0.0,0.0,0.0,0.0,0.0,0.0,0.0,0.0,0.0,0.0,0.0,0.0,0.0,0.0,0.0,0.0,0.0,0.0,0.0,0.0,0.0,0.0,0.0,0.0,0.0,0.0,0.0,0.0,0.0,0.0,0.0,0.0,0.0,0.0,0.0,0.0,0.0,0.0,0.0,0.0,0.0,0.0,0.0,0.0,0.0,0.0,0.0,0.0,0.0,0.0,0.0,0.0,0.0,0.0,0.0,0.0,0.0,0.0,0.0,0.0,0.0,0.0,0.0,0.0,0.0,0.0,0.0,0.0,0.0,0.0,0.0,0.0,0.0,0.0,0.0,0.0,0.0,0.0,0.0,0.0,0.0,0.0,0.0,0.0,0.0,0.0,0.0,0.0,0.0,0.0,0.0,0.0,0.0,0.0,0.0,0.0,0.0,0.0,0.0,0.0,0.0,0.0,0.0,0.0,0.0,0.0,0.0,0.0,0.0,0.0,0.0,0.0,0.0,0.0,0.0,0.0,0.0,0.0,0.0,0.0,0.0,0.0,0.0,0.0,0.0,0.0,0.0,0.0,0.0,0.0,0.0,0.0,0.0,0.0,0.0,0.0,0.0,0.0,0.0,0.0,0.0,0.0,0.0,0.0,0.0,0.0,0.0,0.0,0.0,0.0,0.0,0.0,0.0,0.0,0.0,0.0,0.0,0.0,0.0,0.0,0.0,0.0,0.0,0.0,0.0,0.0,0.0,0.0,0.0,0.0,0.0,0.0,0.0,0.0,0.0,0.0,0.0,0.0,0.0,0.0,0.0,0.0,0.0,0.0,0.0,0.0,0.0,0.0,0.0,0.0,0.0,0.0,0.0,0.0,0.0,0.0,0.0,0.0,0.0,0.0,0.0,0.0,0.0,0.0,0.0,0.0,0.0,0.0,0.0,0.0,0.0,0.0,0.0,0.0,0.0,0.0,0.0,0.0,0.0,0.0,0.0,0.0,0.0,0.0,0.0,0.0,0.0,0.0,0.0,0.0,0.0,0.0,0.0,0.0,0.0,0.0,0.0,0.0,0.0,0.0,0.0,0.0,0.0,0.0,0.0,0.0,0.0,0.0,0.0,0.0,0.0,0.0,0.0,0.0,0.0,0.0,0.0,0.0,0.0,0.0,0.0,0.0,0.0,0.0,0.0,0.0,0.0,0.0,0.0,0.0,0.0,0.0,0.0,0.0,0.0,0.0,0.0,0.0,0.0,0.0,0.0,0.0,0.0,0.0,0.0,0.0,0.0,0.0,0.0,0.0,0.0,0.0,0.0,0.0,0.0,0.0,0.0,0.0,0.0,0.0,0.0,0.0,0.0,0.0,0.0,0.0,0.0,0.0,0.0,0.0,0.0,0.0,0.0,0.0,0.0,0.0,0.0,0.0,0.0,0.0,0.0,0.0,0.0,0.0,0.0,0.0,0.0,0.0,0.0,0.0,0.0,0.0,0.0,0.0,0.0,0.0,0.0,0.0,0.0,0.0,0.0,0.0,0.0,0.0,0.0,0.0,0.0,0.0,0.0,0.0,0.0,0.0,0.0,0.0,0.0,0.0,0.0,0.0,0.0,0.0,0.0,0.0,0.0,0.0,0.0,0.0,0.0,0.0,0.0,0.0,0.0,0.0,0.0,0.0,0.0,0.0,0.0,0.0,0.0,0.0,0.0,0.0,0.0,0.0,0.0,0.0,0.0,0.0,0.0,0.0,0.0,0.0,0.0,0.0,0.0,0.0,0.0,0.0,0.0,0.0,0.0,0.0,0.0,0.0,0.0,0.0,0.0,0.0,0.0,0.0,0.0,0.0,0.0,0.0,0.0,0.0,0.0,0.0,0.0,0.0,0.0,0.0,0.0,0.0,0.0,0.0,0.0,0.0,0.0,0.0,0.0,0.0,0.0,0.0,0.0,0.0,0.0,0.0,0.0,0.0,0.0,0.0,0.0,0.0,0.0,0.0,0.0,0.0,0.0,0.0,0.0,0.0,0.0,0.0,0.0,0.0,0.0,0.0,0.0,0.0,0.0,0.0,0.0,0.0,0.0,0.0,0.0,0.0,0.0,0.0,0.0,0.0,0.0,0.0,0.0,0.0,0.0,0.0,0.0,0.0,0.0,0.0,0.0,0.0,0.0,0.0,0.0,0.0,0.0,0.0,0.0,0.0,0.0,0.0,0.0,0.0,0.0,0.0,0.0,0.0,0.0,0.0,0.0,0.0,0.0,0.0,0.0,0.0,0.0,0.0,0.0,0.0,0.0,0.0,0.0,0.0,0.0,0.0,0.0,0.0,0.0,0.0,0.0,0.0,0.0,0.0,0.0,0.0,0.0,0.0,0.0,0.0,0.0,0.0,0.0,0.0,0.0,0.0,0.0,0.0,0.0,0.0,0.0,0.0,0.0,0.0,0.0,0.0,0.0,0.0,0.0,0.0,0.0,0.0,0.0,0.0,0.0,0.0,0.0,0.0,0.0,0.0,0.0,0.0,0.0,0.0,0.0,0.0,0.0,0.0,0.0,0.0,0.0,0.0,0.0,0.0,0.0,0.0,0.0,0.0,0.0,0.0,0.0,0.0,0.0,0.0,0.0,0.0,0.0,0.0,0.0,0.0,0.0,0.0,0.0,0.0,0.0,0.0,0.0,0.0,0.0,0.0,0.0,0.0,0.0,0.0,0.0,0.0,0.0,0.0,0.0,0.0,0.0,0.0,0.0,0.0,0.0,0.0,0.0,0.0,0.0,0.0,0.0,0.0,0.0,0.0,0.0,0.0,0.0,0.0,0.0,0.0,0.0,0.0,0.0,0.0,0.0,0.0,0.0,0.0,0.0,0.0,0.0,0.0,0.0,0.0,0.0,0.0,0.0,0.0,0.0,0.0,0.0,0.0,0.0,0.0,0.0,0.0,0.0,0.0,0.0,0.0,0.0,0.0,0.0,0.0,0.0,0.0,0.0,0.0,0.0,0.0,0.0,0.0,0.0,0.0,0.0,0.0,0.0,0.0,0.0,0.0,0.0,0.0,0.0,0.0,0.0,0.0,0.0,0.0,0.0,0.0,0.0,0.0,0.0,0.0,0.0,0.0,0.0,0.0,0.0,0.0,0.0,0.0,0.0,0.0,0.0,0.0,0.0,0.0,0.0,0.0,0.0,0.0,0.0,0.0,0.0,0.0,0.0,0.0,0.0,0.0,0.0,0.0,0.0,0.0,0.0,0.0,0.0,0.0,0.0,0.0,0.0,0.0,0.0,0.0,0.0,0.0,0.0,0.0,0.0,0.0,0.0,0.0,0.0,0.0,0.0,0.0,0.0,0.0,0.0,0.0,0.0,0.0,0.0,0.0,0.0,0.0,0.0,0.0,0.0,0.0,0.0,0.0,0.0,0.0,0.0,0.0,0.0,0.0,0.0,0.0,0.0,0.0,0.0,0.0,0.0,0.0,0.0,0.0,0.0,0.0,0.0,0.0,0.0,0.0,0.0,0.0,0.0,0.0,0.0,0.0,0.0,0.0,0.0,0.0,0.0,0.0,0.0,0.0,0.0,0.0,0.0,0.0,0.0,0.0,0.0,0.0,0.0,0.0,0.0,0.0,0.0,0.0,0.0,0.0,0.0,0.0,0.0,0.0,0.0,0.0,0.0,0.0,0.0,0.0,0.0,0.0,0.0,0.0,0.0,0.0,0.0,0.0,0.0,0.0,0.0,0.0,0.0,0.0,0.0,0.0,0.0,0.0,0.0,0.0,0.0,0.0,0.0,0.0,0.0,0.0,0.0,0.0,0.0,0.0,0.0,0.0,0.0,0.0,0.0,0.0,0.0,0.0,0.0,0.0,0.0,0.0,0.0,0.0,0.0,0.0,0.0,0.0,0.0,0.0,0.0,0.0,0.0,0.0,0.0,0.0,0.0,0.0,0.0,0.0,0.0,0.0,0.0,0.0,0.0,0.0,0.0,0.0,0.0,0.0,0.0,0.0,0.0,0.0,0.0,0.0,0.0,0.0,0.0,0.0,0.0,0.0,0.0,0.0,0.0,0.0,0.0,0.0,0.0,0.0,0.0,0.0,0.0,0.0,0.0,0.0,0.0,0.0,0.0,0.0,0.0,0.0,0.0,0.0,0.0,0.0,0.0,0.0,0.0,0.0,0.0,0.0,0.0,0.0,0.0,0.0,0.0,0.0,0.0,0.0,0.0,0.0,0.0,0.0,0.0,0.0,0.0,0.0,0.0,0.0,0.0,0.0,0.0,0.0,0.0,0.0,0.0,0.0,0.0,0.0,0.0,0.0,0.0,0.0,0.0,0.0,0.0,0.0,0.0,0.0,0.0,0.0,0.0,0.0,0.0,0.0,0.0,0.0,0.0,0.0,0.0,0.0,0.0,0.0,0.0,0.0,0.0,0.0,0.0,0.0,0.0,0.0,0.0,0.0,0.0,0.0,0.0,0.0,0.0,0.0,0.0,0.0,0.0,0.0,0.0,0.0,0.0,0.0,0.0,0.0,0.0,0.0,0.0,0.0,0.0,0.0,0.0,0.0,0.0,0.0,0.0,0.0,0.0,0.0,0.0,0.0,0.0,0.0,0.0,0.0,0.0,0.0,0.0,0.0,0.0,0.0,0.0,0.0,0.0,0.0,0.0,0.0,0.0,0.0,0.0,0.0,0.0,0.0,0.0,0.0,0.0,0.0,0.0,0.0,0.0,0.0,0.0,0.0,0.0,0.0,0.0,0.0,0.0,0.0,0.0,0.0,0.0,0.0,0.0,0.0,0.0,0.0,0.0,0.0,0.0,0.0,0.0,0.0,0.0,0.0,0.0,0.0,0.0,0.0,0.0,0.0,0.0,0.0,0.0,0.0,0.0,0.0,0.0,0.0,0.0,0.0,0.0,0.0,0.0,0.0,0.0,0.0,0.0,0.0,0.0,0.0,0.0,0.0,0.0,0.0,0.0,0.0,0.0,0.0,0.0,0.0,0.0,0.0,0.0,0.0,0.0,0.0,0.0,0.0,0.0,0.0,0.0,0.0,0.0,0.0,0.0,0.0,0.0,0.0,0.0,0.0,0.0,0.0,0.0,0.0,0.0,0.0,0.0,0.0,0.0,0.0,0.0,0.0,0.0,0.0,0.0,0.0,0.0,0.0,0.0,0.0,0.0,0.0,0.0,0.0,0.0,0.0,0.0,0.0,0.0,0.0,0.0,0.0,0.0,0.0,0.0,0.0,0.0,0.0,0.0,0.0,0.0,0.0,0.0,0.0,0.0,0.0,0.0,0.0,0.0,0.0,0.0,0.0,0.0,0.0,0.0,0.0,0.0,0.0,0.0,0.0,0.0,0.0,0.0,0.0,0.0,0.0,0.0,0.0,0.0,0.0,0.0,0.0,0.0,0.0,0.0,0.0,0.0,0.0,0.0,0.0,0.0,0.0,0.0,0.0,0.0,0.0,0.0,0.0,0.0,0.0,0.0,0.0,0.0,0.0,0.0,0.0,0.0,0.0,0.0,0.0,0.0,0.0,0.0,0.0,0.0,0.0,0.0,0.0,0.0,0.0,0.0,0.0,0.0,0.0,0.0,0.0,0.0,0.0,0.0,0.0,0.0,0.0,0.0,0.0,0.0,0.0,0.0,0.0,0.0,0.0,0.0,0.0,0.0,0.0,0.0,0.0,0.0,0.0,0.0,0.0,0.0,0.0,0.0,0.0,0.0,1.8602,0.0,0.0,0.0,0.0,0.0,0.0,0.0,0.0,0.0,0.0,0.0,0.0,0.0,0.0,0.0,0.0,0.0,0.0,0.0,0.0,0.0,0.0,0.0,0.0,0.0,0.0,0.0,0.0,0.0,0.0,0.0,0.0,0.0,0.0,0.0,0.0,0.0,0.0,0.0,2.3804,2.3419,2.3033,2.3823,2.3988,2.362,0.0,0.0,0.0,0.0,0.0,0.0,0.0,0.0,0.0,0.0,0.0,0.0,0.0,0.0,0.0,0.0,0.0,0.0,0.0,0.0,0.0,0.0,0.0,0.0,0.0,0.0,0.0,0.0,0.0,0.0,0.0,0.0,0.0,0.0,0.0,0.0,0.0,0.0,0.0,0.0,0.0,0.0,0.0,0.0,0.0,0.0,0.0,0.0,0.0,0.0,0.0,0.0,0.0,0.0,0.0,0.0,0.0,0.0,0.0,0.0,0.0,0.0,0.0,0.0,0.0,0.0,0.0,0.0,0.0,0.0,0.0,1.802,0.0,0.0,0.0,0.0,0.0,0.0,0.0,0.0,0.0,0.0,0.0,0.0,0.0,0.0,0.0,0.0,0.0,0.0,0.0,0.0,0.0,0.0,0.0,0.0,2.4623,2.479,2.4775,2.467,0.0,0.0,0.0,0.0,0.0,0.0,0.0,0.0,0.0,2.3988,2.3271,2.3032,2.3305,2.4129,2.42,2.3608,2.3325,0.0,0.0,0.0,0.0,0.0,0.0,0.0,0.0,0.0,0.0,0.0,0.0,0.0,0.0,0.0,0.0,0.0,0.0,0.0,0.0,0.0,0.0,0.0,0.0,0.0,0.0,0.0,0.0,0.0,0.0,0.0,0.0,0.0,0.0,0.0,0.0,0.0,0.0,0.0,0.0,0.0,0.0,0.0,0.0,0.0,0.0,0.0,0.0,0.0,0.0,0.0,0.0,0.0,0.0,0.0,0.0,0.0,0.0,0.0,0.0,0.0,0.0,0.0,1.9324,1.8549,1.7263,1.7249,1.6851,1.6177,1.5851,1.5684,1.5736,1.7177,0.0,0.0,0.0,0.0,0.0,0.0,0.0,0.0,0.0,0.0,0.0,0.0,0.0,0.0,0.0,0.0,0.0,0.0,0.0,0.0,0.0,2.476,2.4775,2.4804,2.4639,2.4528,0.0,0.0,0.0,0.0,0.0,0.0,0.0,2.419,2.3859,2.3162,2.2692,2.316,2.4487,2.5348,2.5864,2.5949,2.4049,2.3776,2.4635,0.0,0.0,0.0,0.0,0.0,0.0,0.0,0.0,0.0,0.0,0.0,0.0,0.0,0.0,0.0,0.0,0.0,0.0,0.0,0.0,0.0,0.0,0.0,0.0,0.0,0.0,0.0,0.0,0.0,0.0,0.0,0.0,0.0,0.0,0.0,0.0,0.0,0.0,0.0,0.0,0.0,2.3914,2.3179,0.0,0.0,0.0,0.0,0.0,0.0,0.0,0.0,0.0,0.0,0.0,0.0,0.0,2.358,2.2668,2.2143,2.1,1.9312,1.8279,1.6438,1.3923,1.3815,1.3377,1.2657,1.2634,0.0,1.62,1.6458,0.0,0.0,0.0,0.0,0.0,0.0,0.0,0.0,0.0,0.0,0.0,0.0,0.0,0.0,0.0,0.0,0.0,0.0,0.0,0.0,0.0,2.4917,2.4917,2.4917,2.5693,2.5712,2.4568,2.5263,0.0,0.0,0.0,0.0,2.419,2.3616,2.3118,2.2772,2.3697,2.4545,2.5386,2.6471,2.6936,2.6857,2.5871,2.5275,2.4942,2.396,0.0,0.0,0.0,0.0,0.0,0.0,0.0,0.0,0.0,0.0,0.0,0.0,0.0,0.0,0.0,0.0,0.0,0.0,0.0,0.0,0.0,0.0,0.0,0.0,0.0,0.0,0.0,0.0,0.0,0.0,0.0,0.0,0.0,0.0,0.0,0.0,0.0,0.0,0.0,2.4317,2.4154,2.2959,2.3873,2.4136,0.0,0.0,0.0,0.0,0.0,0.0,0.0,0.0,0.0,2.3927,2.3712,2.3095,2.2028,2.1232,1.9835,1.7856,1.6883,1.5366,1.3391,1.3352,1.3067,1.2612,1.2612,1.3076,1.3888,1.5336,1.6518,1.7452,0.0,0.0,0.0,0.0,2.0561,2.1139,0.0,0.0,0.0,0.0,0.0,0.0,0.0,0.0,0.0,0.0,0.0,0.0,2.5356,2.5347,2.5482,2.5901,2.6802,2.6666,2.5077,2.5746,0.0,0.0,0.0,2.419,2.419,2.3431,2.3146,2.344,2.5024,2.6242,2.7085,2.8205,2.8647,2.851,2.8627,2.7575,2.5674,2.4836,2.3968,2.3105,0.0,0.0,0.0,0.0,0.0,0.0,0.0,0.0,0.0,0.0,0.0,0.0,0.0,0.0,0.0,0.0,0.0,0.0,0.0,0.0,0.0,0.0,0.0,0.0,0.0,0.0,0.0,0.0,0.0,0.0,0.0,0.0,0.0,0.0,0.0,0.0,0.0,2.4249,2.4189,2.2698,2.3845,2.413,0.0,0.0,0.0,0.0,0.0,0.0,2.4175,2.4006,2.389,2.3881,2.3311,2.2424,2.1194,2.0113,1.8548,1.6603,1.5477,1.4223,1.2931,1.2474,1.2251,1.2111,1.1922,1.137,1.0928,1.375,1.5274,1.5971,1.6883,1.8183,1.9528,1.9373,1.9959,2.0904,0.0,0.0,0.0,0.0,0.0,0.0,0.0,0.0,0.0,0.0,0.0,2.4755,2.6341,2.6288,2.6768,2.8379,2.7539,2.6748,2.6323,2.5072,2.4147,2.3735,2.4016,2.419,2.419,2.4153,2.465,2.5739,2.6278,2.7827,3.03,3.1183,3.174,3.2066,3.25,3.0829,2.752,2.5389,2.4847,2.5253,2.3156,0.0,0.0,0.0,0.0,0.0,0.0,0.0,0.0,0.0,0.0,0.0,0.0,0.0,0.0,0.0,0.0,0.0,0.0,0.0,0.0,0.0,0.0,0.0,0.0,0.0,0.0,0.0,0.0,0.0,0.0,0.0,0.0,0.0,0.0,0.0,0.0,0.0,0.0,2.2217,2.3389,0.0,0.0,0.0,0.0,2.2958,2.4118,2.4547,2.3854,2.443,2.43,2.3273,2.2608,2.1874,2.1084,1.9088,1.749,1.629,1.4105,1.2457,1.136,0.9786,0.9187,0.9343,0.863,0.813,0.7985,1.1582,1.3574,1.448,1.5144,1.6725,1.8484,1.7798,1.8398,1.9553,0.0,0.0,0.0,0.0,0.0,0.0,0.0,0.0,2.4741,2.4689,2.4689,2.5329,2.6995,2.6973,2.7452,2.8951,2.8493,2.757,2.6281,2.5714,2.4907,2.3768,2.4016,2.4113,2.3955,2.4456,2.5293,2.648,2.7591,2.9231,3.1334,3.1884,3.2457,3.3017,3.3189,3.2281,3.0548,2.8315,2.6691,2.549,2.4222,2.3427,0.0,0.0,0.0,0.0,0.0,0.0,0.0,0.0,0.0,0.0,0.0,0.0,0.0,0.0,0.0,0.0,0.0,0.0,0.0,0.0,0.0,0.0,0.0,0.0,0.0,0.0,0.0,0.0,0.0,0.0,0.0,0.0,0.0,0.0,0.0,0.0,0.0,2.4419,2.5545,0.0,2.4377,2.4547,2.4388,2.3533,2.4132,2.4318,2.3812,2.3201,2.3105,2.3645,2.1476,1.9915,1.9022,1.6788,1.4594,1.2544,1.1284,1.013,0.9155,0.8535,0.7902,0.728,0.6992,0.6023,0.4854,0.7115,0.9247,1.1172,1.1832,1.3452,1.5452,1.5698,1.6784,1.8283,0.0,0.0,0.0,0.0,0.0,0.0,0.0,0.0,2.4989,2.455,2.4968,2.5948,2.7622,2.8081,2.895,3.0572,2.9475,2.8088,2.6629,2.5649,2.4615,2.3405,2.3923,2.4277,2.4374,2.5412,2.6504,2.7683,2.9197,3.0765,3.2351,3.2825,3.3288,3.3778,3.3778,3.3355,3.256,3.1106,2.9025,2.6623,2.5133,2.4492,2.434,0.0,0.0,0.0,0.0,0.0,0.0,0.0,0.0,0.0,0.0,0.0,0.0,0.0,0.0,0.0,0.0,0.0,0.0,0.0,0.0,0.0,0.0,0.0,0.0,0.0,0.0,0.0,0.0,0.0,0.0,0.0,0.0,0.0,0.0,0.0,2.6722,2.6067,2.7183,2.7392,2.5809,2.5694,2.5158,2.3818,2.4307,2.4311,2.3459,2.2642,2.214,2.2014,1.9587,1.7597,1.6113,1.3924,1.1731,0.9584,0.881,0.7982,0.7075,0.6759,0.6038,0.4986,0.4745,0.3491,0.1781,0.2809,0.4289,0.5981,0.8165,1.021,1.2047,1.2785,1.4346,1.6347,0.0,0.0,0.0,0.0,0.0,0.0,0.0,2.4785,2.4483,2.3609,2.4915,2.6559,2.8192,2.9582,3.1223,3.325,3.0402,2.8148,2.7404,2.4743,2.3063,2.279,2.3761,2.4723,2.5588,2.7077,2.8399,2.9455,3.1041,3.2385,3.3457,3.4167,3.4506,3.4523,3.4556,3.4167,3.3508,3.3508,3.185,2.8958,2.5929,2.549,2.642,0.0,0.0,0.0,0.0,0.0,0.0,0.0,0.0,0.0,0.0,0.0,0.0,0.0,0.0,0.0,0.0,0.0,0.0,0.0,0.0,0.0,0.0,0.0,0.0,0.0,0.0,0.0,0.0,0.0,0.0,0.0,0.0,0.0,2.5205,2.7065,2.8101,2.7038,2.8183,2.8065,2.5632,2.5922,2.5514,2.3708,2.4733,2.464,2.2662,2.276,2.1404,1.8291,1.6858,1.49,1.2336,1.0628,0.9063,0.754,0.6785,0.5937,0.513,0.424,0.337,0.2417,0.1766,0.048,-0.1171,-0.1026,-0.102,-0.0697,0.4241,0.709,0.8426,0.9105,1.1059,1.3792,0.0,0.0,0.0,0.0,0.0,0.0,0.0,2.4575,2.4594,2.3623,2.5333,2.6898,2.7603,2.9479,3.103,3.1912,2.9373,2.7373,2.6643,2.4234,2.3405,2.4664,2.4776,2.5799,2.7924,2.8449,2.9471,3.1146,3.1846,3.2853,3.4201,3.4404,3.4793,3.5334,3.5893,3.6045,3.5859,3.5859,3.5385,3.4286,3.0209,2.8146,2.73,0.0,0.0,0.0,0.0,0.0,0.0,0.0,0.0,0.0,0.0,0.0,0.0,0.0,0.0,0.0,0.0,0.0,0.0,0.0,0.0,0.0,0.0,0.0,0.0,0.0,0.0,0.0,0.0,0.0,0.0,0.0,0.0,2.8113,2.7871,2.9129,3.0067,3.0071,2.995,2.9244,2.7694,2.6745,2.5784,2.4757,2.4997,2.4149,2.1789,2.0424,1.8509,1.5896,1.277,1.0025,0.7893,0.6082,0.4099,0.2161,0.2084,0.1961,0.1599,0.1433,0.0611,-0.0725,-0.0365,-0.1517,-0.3615,-0.2378,-0.2287,-0.2625,0.0516,0.2947,0.4828,0.6049,0.884,1.2486,0.0,0.0,0.0,0.0,0.0,0.0,0.0,2.4547,2.427,2.28,2.5189,2.6929,2.6663,2.873,3.0279,3.0674,2.8119,2.6219,2.5596,2.4248,2.4098,2.5496,2.6272,2.7545,2.9365,2.9739,3.0615,3.2004,3.2496,3.3355,3.4506,3.481,3.5368,3.6129,3.6586,3.6958,3.7246,3.6911,3.6959,3.6992,3.3728,3.1666,3.0345,2.7943,2.7131,2.7148,2.5965,2.5639,2.5514,2.3989,0.0,0.0,0.0,0.0,0.0,0.0,0.0,0.0,0.0,0.0,0.0,0.0,0.0,0.0,0.0,0.0,0.0,0.0,0.0,0.0,0.0,0.0,0.0,0.0,2.8285,2.8818,2.8417,2.9967,3.0908,3.0286,2.9773,2.8594,2.6367,2.5375,2.4208,2.2566,2.2061,2.096,1.9046,1.6862,1.4411,1.1516,0.8709,0.5854,0.3018,0.1899,0.0427,-0.1494,-0.1315,-0.1213,-0.1246,-0.1508,-0.2139,-0.2973,-0.253,-0.3397,-0.493,-0.3653,-0.3503,0.0,0.0,0.0,0.0,0.0,0.7183,1.067,0.0,0.0,0.0,0.0,0.0,0.0,0.0,2.4604,2.3691,2.1589,2.4653,2.6559,2.5275,2.7439,2.9047,2.9138,2.6688,2.4948,2.4537,2.4529,2.5019,2.6065,2.8112,2.9583,3.0345,3.1072,3.1765,3.2408,3.3152,3.3947,3.4759,3.5436,3.6163,3.6907,3.6992,3.7351,3.7862,3.7201,3.7302,3.7767,3.6306,3.5278,3.4252,3.0801,3.0243,3.1021,2.8755,2.7322,2.6297,2.5077,0.0,0.0,0.0,0.0,0.0,0.0,0.0,0.0,0.0,0.0,0.0,0.0,0.0,0.0,0.0,0.0,0.0,0.0,0.0,0.0,0.0,0.0,0.0,0.0,2.8448,2.8263,2.7275,2.8799,2.9552,2.8092,2.7619,2.6038,2.2519,2.2027,2.0896,1.8268,1.7271,1.6129,1.4832,0.0,0.0,0.0,0.0,0.1856,-0.2004,-0.2065,-0.2874,-0.4379,-0.4273,-0.4156,-0.3967,-0.4591,-0.488,-0.4894,-0.4811,-0.5136,-0.5736,-0.5089,-0.4695,-0.447,-0.2936,-0.1827,-0.0664,0.2776,0.5756,0.8377,0.0,0.0,0.0,0.0,0.0,0.0,0.0,2.446,2.329,2.1044,2.3765,2.4984,2.2554,2.5568,2.7241,2.6017,2.5135,2.4598,2.4506,2.4728,2.6216,2.909,3.0209,3.1106,3.185,3.2594,3.3051,3.3186,3.3931,3.4996,3.6349,3.6485,3.6958,3.7719,3.8294,3.8304,3.7862,3.8302,3.8226,3.7753,3.686,3.6055,3.5199,3.3271,3.2357,3.1782,2.955,2.9059,2.9057,2.6442,2.5579,2.5239,2.3243,0.0,0.0,0.0,0.0,0.0,0.0,0.0,0.0,0.0,0.0,0.0,0.0,0.0,0.0,0.0,0.0,0.0,0.0,0.0,0.0,2.6535,2.6758,2.6193,2.4377,2.1812,2.0886,2.3085,2.1857,1.9779,1.7171,1.6192,1.5184,1.3738,1.3454,1.226,0.9723,0.748,0.4753,0.1369,-0.0611,-0.3181,-0.6331,-0.6762,-0.7903,-0.9814,0.0,0.0,-0.7918,-0.7854,-0.7824,-0.7746,-0.7178,-0.7182,-0.7639,-0.6905,-0.6077,-0.5164,-0.3755,-0.2348,-0.0775,0.17,0.3721,0.5681,0.0,0.0,0.0,0.0,0.0,0.0,0.0,2.363,2.2975,2.122,2.3437,2.4406,2.2322,2.4219,2.5167,2.3934,2.3191,2.3156,2.4143,2.5378,2.7464,3.0531,3.2053,3.2848,3.2848,3.3575,3.3778,3.3406,3.4523,3.5436,3.6214,3.6992,3.755,3.7939,3.8271,3.8399,3.829,3.7899,3.7774,3.7732,3.6943,3.6678,3.6516,3.5071,3.4069,3.3228,3.1407,2.9992,2.8661,2.6608,2.5124,2.3897,2.2209,2.1364,2.0931,0.0,0.0,0.0,0.0,0.0,0.0,0.0,0.0,0.0,0.0,0.0,0.0,0.0,0.0,2.0646,0.0,0.0,2.308,2.3808,2.1993,1.9557,1.6947,1.3397,1.2652,1.7037,1.5197,1.249,0.9687,0.9453,0.9445,0.9342,0.6972,0.4627,0.2666,0.0148,-0.2229,-0.4402,-0.6037,-0.8176,-1.1006,-1.1283,-1.2094,-1.3439,-1.3084,-1.2059,-1.0545,-1.0854,-1.0307,-0.9163,-0.8808,-0.8495,-0.8155,-0.7245,-0.6638,-0.623,-0.5356,-0.388,-0.1998,-0.0166,0.1707,0.3733,0.0,0.0,0.0,0.0,0.0,0.0,0.0,2.272,2.2469,2.1225,2.2808,2.3499,2.2028,2.2686,2.2986,2.2455,2.1455,2.1875,2.4282,2.6214,2.8588,3.1512,3.3609,3.437,3.3643,3.4336,3.4378,3.3597,3.5093,3.5886,3.6051,3.7486,3.8096,3.8085,3.803,3.815,3.8398,3.7128,3.6919,3.7294,3.6631,3.6736,3.7006,3.5701,3.4951,3.4345,3.2474,2.9873,2.7137,2.5682,2.3671,2.1577,2.0392,2.0133,2.0145,1.9434,1.9672,0.0,0.0,0.0,0.0,0.0,0.0,0.0,0.0,0.0,1.8929,1.8553,1.8047,1.7943,1.9036,1.864,1.8334,1.8587,1.5257,1.154,0.8324,0.4906,0.4292,0.851,0.7204,0.4879,0.2075,0.2379,0.2877,0.3282,-0.0663,-0.3674,-0.482,-0.7351,-0.9315,-1.0366,-1.1272,-1.2812,-1.5128,-1.505,-1.5414,-1.6191,-1.6019,-1.4914,-1.3112,-1.3442,-1.253,-1.0624,-1.0228,-0.9522,-0.8468,-0.7373,-0.7091,-0.7295,-0.6783,-0.5542,-0.3837,-0.2159,-0.022,0.1972,0.0,0.0,0.0,0.0,0.0,0.0,0.0,0.0,0.0,1.9984,2.0753,2.0771,1.9061,2.0035,2.0958,2.1319,2.0749,2.2079,2.6118,2.7163,2.9288,3.2992,3.4658,3.5148,3.4387,3.5115,3.5103,3.4362,3.592,3.6947,3.756,3.8455,3.8875,3.8784,3.876,3.8092,3.6843,3.6661,3.629,3.5733,3.5683,3.5307,3.48,3.4,3.4125,3.4206,3.0481,2.786,2.5804,2.3285,2.1471,2.0127,1.9331,1.829,1.727,1.6679,0.0,1.4458,1.4232,1.131,0.0,1.1479,1.2174,1.3728,0.0,0.0,1.6185,1.5907,1.3568,1.1891,1.2662,1.1346,0.9695,0.84,0.6739,0.4371,0.1113,-0.2342,-0.4738,-0.5117,-0.3399,-0.2655,-0.3762,-0.4726,-0.5806,-0.7108,-0.8534,-1.0055,-1.1859,-1.317,-1.4324,-1.5369,-1.554,-1.6165,-1.7485,-1.711,-1.7333,-1.827,-1.7415,-1.6857,-1.657,-1.5533,-1.4561,-1.3541,-1.1842,-1.0678,-0.9794,-0.8555,-0.8026,-0.797,-0.7002,-0.648,-0.5973,-0.3848,-0.2086,-0.022,0.0,0.0,0.0,0.0,0.0,0.0,0.0,0.0,0.0,0.0,2.0752,2.0982,2.0915,2.1185,2.1373,2.1361,2.0703,2.1729,2.5086,2.606,2.8204,3.2014,3.3634,3.4268,3.3922,3.5037,3.5251,3.4509,3.5602,3.609,3.5976,3.714,3.7453,3.7048,3.739,3.7172,3.6554,3.6165,3.5782,3.5504,3.5504,3.4861,3.3784,3.2359,3.1078,2.984,2.7778,2.5168,0.0,2.0824,1.9457,1.83,1.7998,1.7041,1.6051,1.6484,1.4994,0.0,0.4304,0.0,0.0,0.0,0.2672,0.6745,0.8889,0.7683,0.6056,0.5987,0.4499,0.3101,0.276,0.1239,-0.0236,0.0,-0.3319,-0.5181,-0.599,-0.903,-1.1404,-1.2068,-1.1811,-1.1233,-1.0381,-1.0522,-1.1556,-1.3853,-1.4356,-1.5504,-1.7686,-1.8389,-1.9135,-1.9987,-1.9609,-1.9694,-2.0191,-2.0056,-2.0065,-2.0252,-1.9889,-1.9101,-1.8079,-1.7545,-1.6367,-1.4683,-1.2335,-1.1511,-1.1707,-1.0336,-0.9845,-0.9955,-0.9192,-0.8584,-0.7747,-0.4988,-0.3025,-0.1262,0.0,0.0,0.0,0.0,0.0,0.0,0.0,0.0,0.0,0.0,2.0371,2.0831,2.2062,2.1846,2.1644,2.1771,2.1008,2.165,2.4329,2.5013,2.7008,3.0799,3.2304,3.3309,3.3769,3.4975,3.5346,3.4813,3.5428,3.5416,3.4905,3.605,3.6229,3.5703,3.615,3.6336,3.623,3.5706,3.5385,3.5205,3.5026,3.3871,3.199,3.0075,2.7552,2.4969,2.4657,2.2363,1.9313,1.8251,1.7136,1.6209,1.6188,1.5433,1.4624,1.5037,1.2337,0.6576,-0.5757,0.0,0.0,-1.089,-0.7987,-0.3252,-0.2476,-0.3385,-0.4322,-0.3977,-0.5069,-0.6244,-0.6708,-0.8275,-0.9693,-1.0431,-1.2327,-1.3484,-1.2918,-1.5021,-1.666,-1.6766,-1.7834,-1.8071,-1.6819,-1.5799,-1.6219,-1.8547,-1.8963,-2.0114,-2.2522,-2.2665,-2.3055,-2.3715,-2.3092,-2.2662,-2.2494,-2.2335,-2.2078,-2.1895,-2.1381,-2.0545,-1.9468,-1.8964,-1.7577,-1.5504,-1.336,-1.2779,-1.3168,-1.1911,-1.1476,-1.1572,-1.0882,-1.017,-0.9198,-0.6258,-0.4196,-0.236,0.0,0.0,0.0,0.0,0.0,0.0,0.0,0.0,0.0,0.0,0.0,0.0,0.0,2.0547,2.0861,2.2329,2.1621,2.2194,2.481,2.4597,2.6077,2.9964,3.1199,3.2593,3.4411,3.5188,3.5605,3.558,3.5663,3.5671,3.57,3.5786,3.5764,3.5687,3.5649,3.5579,3.5521,3.551,3.5115,3.4442,3.3814,3.1694,2.8718,2.6872,2.3765,2.055,2.1081,1.9727,1.739,1.5475,1.4323,1.3707,1.361,1.3157,0.0,1.0895,0.5724,-0.2179,0.0,0.0,-1.6706,-1.8102,-1.9006,-1.8109,-1.24,-1.2195,-1.2931,-1.1905,-1.413,-1.5827,-1.4433,-1.6201,-1.8241,-1.9163,-1.9184,-1.9174,-1.9514,-2.0279,-2.0639,-2.0121,-2.0995,-2.1989,0.0,-2.0742,-1.9972,-2.1287,-2.2262,-2.3824,-2.6125,-2.5659,-2.5604,-2.6268,-2.5645,-2.4883,-2.405,-2.3331,-2.2975,-2.2937,-2.11,-2.0628,-2.1337,-1.9528,-1.785,-1.6311,-1.5504,-1.4751,-1.396,-1.299,-1.2522,-1.2439,-1.1313,-1.0695,-1.0173,-0.7993,-0.5988,-0.3799,0.0,0.0,0.0,0.0,0.0,0.0,0.0,0.0,0.0,0.0,0.0,0.0,0.0,0.0,0.0,0.0,2.1546,2.1949,2.3135,2.3274,2.4479,2.7057,2.8232,2.9484,3.0817,3.2051,3.253,3.2149,3.206,3.1672,3.1011,3.1804,3.2191,3.2285,3.3181,3.3768,3.406,3.3698,3.338,3.3036,3.1131,2.8968,2.6554,2.3539,2.042,1.7291,0.0,1.3971,1.544,1.3973,1.361,1.3668,1.3234,1.189,0.9482,0.4336,-0.1855,-0.8819,-1.6937,0.0,-2.272,-2.6426,-2.7445,-2.7006,-2.4815,-2.423,-2.3817,-2.2652,-2.2617,-2.2519,-2.1812,-2.242,-2.3197,-2.3495,-2.3779,-2.337,-2.1815,-2.2949,-2.3482,-2.233,-2.359,0.0,0.0,0.0,0.0,-2.4037,-2.4389,-2.5338,-2.7072,-2.6517,-2.646,-2.7086,-2.6503,-2.5769,-2.4953,-2.4727,-2.4169,-2.3393,-2.1916,-2.1119,-2.1017,-1.9859,-1.8826,-1.785,-1.6602,-1.5877,-1.5621,-1.4763,-1.3794,-1.2854,-1.2828,-1.1741,-1.0048,-0.8723,-0.7091,-0.4988,0.0,0.0,0.0,0.0,0.0,0.0,0.0,0.0,0.0,0.0,0.0,0.0,0.0,0.0,0.0,0.0,0.0,2.1497,2.1983,2.1903,2.2687,2.4611,2.5376,2.6379,2.776,2.8975,2.9362,2.8903,2.8584,2.8072,2.7397,2.817,2.8649,2.8997,3.0099,3.0891,3.1303,3.0709,3.0223,2.9618,2.7613,2.493,2.1743,1.8358,1.4869,0.0,0.66,0.6309,0.839,1.0549,1.1204,1.1536,1.3669,1.1164,0.618,-0.0095,-0.7715,-1.5596,-2.2337,-2.6146,-2.9118,-3.3138,-3.4438,-3.4387,-3.3321,-3.2553,-3.1494,-2.9339,-2.8033,-2.6969,-2.5963,-2.5777,-2.5727,-2.5545,-2.5928,-2.5744,-2.43,-2.5369,-2.6191,-2.5839,-2.6891,-2.7417,0.0,0.0,0.0,-2.5797,-2.6048,-2.6674,-2.7827,-2.7243,-2.7185,-2.7881,-2.7214,-2.6654,-2.6215,-2.6119,-2.5473,-2.4236,-2.32,-2.2273,-2.1448,-2.0744,-2.0079,-1.9386,-1.7893,-1.7258,-1.7191,-1.6136,-1.4983,-1.3793,-1.3573,-1.2349,-1.0567,-0.945,-0.8174,-0.6283,0.0,0.0,0.0,0.0,0.0,0.0,0.0,0.0,0.0,0.0,0.0,0.0,0.0,0.0,0.0,0.0,0.0,0.0,2.1426,2.0614,2.0934,2.2726,2.2688,2.3481,2.5338,2.6099,2.6286,2.5976,2.535,2.4997,2.4974,2.5108,2.5477,2.607,2.6725,2.7195,2.7423,2.6862,2.5935,2.4703,2.3217,1.9522,1.4582,1.1429,0.7191,0.2566,-0.0567,0.0,0.0,0.0,0.0,0.0,0.0,1.0126,0.1994,-0.3037,-1.2412,-2.2758,-2.9893,-3.3582,-3.5955,-3.8247,-3.9834,-4.0197,-3.7761,-3.6935,-3.5632,-3.1854,-3.0358,-2.9074,0.0,0.0,-2.604,-2.5608,-2.5989,-2.6525,-2.7045,-2.7783,-2.8867,0.0,0.0,0.0,0.0,0.0,0.0,-2.6852,0.0,-2.7842,-2.8495,-2.7964,-2.7904,-2.8532,-2.7919,-2.7625,-2.7625,-2.744,-2.6707,-2.543,-2.4836,-2.3965,-2.279,-2.2163,-2.1502,-2.0835,-1.9399,-1.8768,-1.8661,-1.7191,-1.611,-1.5216,-1.3795,-1.2666,-1.1674,-1.0371,-0.9203,-0.7658,0.0,0.0,0.0,0.0,0.0,0.0,0.0,0.0,0.0,0.0,0.0,0.0,0.0,0.0,0.0,0.0,0.0,0.0,2.0901,2.0618,2.0788,2.152,2.1447,2.1731,2.2527,2.3136,2.3184,2.2717,2.2922,2.2653,2.1874,2.2783,2.3434,2.3836,2.4354,2.5012,2.5623,2.4829,2.3764,2.2164,1.6662,1.2494,0.8848,0.3151,-0.0485,-0.3079,0.0,0.0,0.0,0.0,0.0,0.0,0.0,0.0218,-0.8311,-1.4852,-2.3413,-3.1158,-3.3239,-3.669,-4.0002,-4.1216,-4.1338,-4.0751,-3.9118,-3.7084,-3.4627,-3.145,-2.893,-2.6838,0.0,0.0,0.0,-2.5625,-2.7212,0.0,-2.9601,-3.0916,0.0,-3.3008,0.0,-3.2623,-3.2353,-3.1981,0.0,0.0,-2.8764,-2.8196,-2.7859,-2.8158,-2.8188,-2.7844,-2.7715,-2.7625,-2.7625,-2.7051,-2.6658,-2.6317,-2.5648,-2.4912,-2.4175,-2.351,-2.286,-2.2142,-2.0804,-1.9953,-1.9362,-1.8478,-1.7231,-1.5851,-1.6079,-1.4675,-1.2549,-1.2276,-1.1093,-0.9173,0.0,0.0,0.0,0.0,0.0,0.0,0.0,0.0,0.0,0.0,0.0,0.0,0.0,0.0,0.0,0.0,0.0,0.0,0.0,1.9563,1.9744,2.0231,2.0005,1.9958,2.0209,2.0448,2.025,1.9521,2.0216,2.0085,1.9229,2.0179,2.085,2.124,2.1299,2.1723,2.2219,1.9384,1.6987,0.0,0.0,0.5192,0.1563,-0.3085,-0.6371,0.0,0.0,0.0,0.0,0.0,0.0,0.9126,-0.0286,-0.8567,-1.5768,-2.0828,0.0,-3.6906,-3.8098,-4.068,-4.3037,-4.2929,-4.1991,-4.0526,-3.8274,-3.5625,-3.2856,-3.0088,-2.7711,0.0,0.0,0.0,0.0,0.0,0.0,0.0,-2.9799,-3.1443,-3.3025,0.0,-3.4185,0.0,-3.3044,-3.2707,-3.2006,0.0,-2.9613,-2.8742,-2.8053,-2.8098,-2.7979,-2.7625,-2.7625,-2.771,-2.7993,-2.7349,-2.7154,-2.743,-2.6778,-2.6158,-2.5507,-2.4834,-2.4013,-2.305,0.0,-2.1173,-2.0435,-1.9734,-1.8395,-1.683,-1.6991,-1.5807,-1.3953,-1.3331,-1.2353,-1.1015,0.0,0.0,0.0,0.0,0.0,0.0,0.0,0.0,0.0,0.0,0.0,0.0,0.0,0.0,0.0,0.0,0.0,0.0,0.0,0.0,0.0,1.9109,1.868,1.8463,1.8538,1.8374,1.7807,1.683,1.7623,1.7658,1.697,1.7383,1.7969,1.86,1.7528,1.732,1.7438,1.2425,0.8624,0.5674,0.2305,-0.1699,-0.5885,0.0,0.0,0.0,0.0,0.0,0.0,0.0,0.1323,0.5142,-0.8132,-1.6355,-2.1737,-2.4666,-3.2397,-4.0464,-4.2529,-4.4053,-4.4713,-4.3297,-4.1694,-3.9555,-3.6188,-3.3351,-3.0742,-2.8327,0.0,-2.5428,-2.4533,-2.4207,-2.3946,-2.3544,0.0,-2.7623,-2.9029,-3.0705,-3.2663,-3.5018,-3.4881,-3.4208,-3.3193,-3.2967,-3.2364,-3.1212,-3.0431,-2.9622,-2.8778,-2.8342,-2.8026,-2.7846,-2.7795,-2.7951,-2.8383,-2.7951,-2.7951,-2.8367,-2.786,-2.7275,-2.6722,-2.5929,-2.4975,-2.3802,-2.2924,-2.2213,-2.1536,-2.0722,-1.9467,-1.8097,-1.742,-1.6609,-1.5666,-1.4407,-1.3735,-1.3208,0.0,0.0,0.0,0.0,0.0,0.0,0.0,0.0,0.0,0.0,1.5501,1.5459,0.0,0.0,0.0,0.0,0.0,0.0,0.0,0.0,0.0,0.0,1.8287,1.8088,1.8273,1.7915,1.7125,1.5931,1.6299,1.6055,1.5221,1.4658,1.5241,1.6585,1.2395,1.0636,1.063,0.7476,0.478,0.2247,-0.2254,-0.6225,-0.9878,0.0,0.0,0.0,0.0,0.0,0.0,0.0,0.0698,0.134,-1.4143,-2.2821,-2.835,-3.3874,-3.8181,-4.117,-4.1353,-4.2524,-4.3161,-4.1093,-3.9329,-3.7271,-3.4128,-3.1407,0.0,0.0,0.0,-2.5051,-2.4764,-2.4549,0.0,-2.4935,0.0,0.0,0.0,0.0,-3.2855,0.0,0.0,0.0,0.0,0.0,0.0,0.0,0.0,-3.1313,-2.9531,-3.0392,-3.0423,-2.9265,-2.8743,-2.8195,-2.7775,-2.818,-2.818,-2.776,-2.766,-2.7565,-2.738,-2.6083,-2.5408,-2.5075,-2.3257,0.0,-2.2146,-2.0799,-1.9874,-1.9375,-1.9251,-1.8768,-1.8052,-1.7385,-1.6885,-1.6114,0.0,0.0,0.0,0.0,0.0,0.0,0.0,1.5806,1.6107,1.688,1.6752,1.6495,1.6236,1.577,1.5583,0.0,0.0,0.0,0.0,0.0,0.0,0.0,0.0,0.0,0.0,1.733,0.0,0.0,0.0,0.0,0.0,0.0,0.0,0.0,0.0,0.6394,0.6773,0.3078,-0.1253,-0.5794,-0.7552,-0.9819,0.0,0.0,0.0,0.0,0.0,0.0,0.0,0.0,-0.5693,-0.7335,-2.2045,-2.9497,-3.3518,-3.7109,-3.9805,-4.1677,-4.2079,-4.2611,-4.2645,-4.0908,-3.8226,-3.5343,-3.2664,0.0,0.0,0.0,-2.5509,-2.5074,-2.4846,0.0,0.0,0.0,0.0,0.0,0.0,0.0,0.0,0.0,0.0,0.0,0.0,0.0,0.0,0.0,0.0,-3.2538,-3.1241,-3.1097,-3.0716,-3.0085,-2.9079,-2.8511,-2.8543,-2.8228,-2.8092,-2.8042,-2.776,-2.7625,-2.756,-2.6491,-2.5944,-2.5783,-2.4399,-2.3735,-2.3607,-2.2885,-2.1942,-2.0983,-2.1438,-2.0995,-2.0083,-1.9592,-1.8974,-1.8009,0.0,0.0,0.0,0.0,0.0,0.0,0.0,1.6328,1.6742,1.7671,1.768,1.7227,1.6265,1.5569,1.5048,0.0,0.0,0.0,0.0,0.0,0.0,0.0,0.0,0.0,0.0,0.0,0.0,0.0,0.0,0.0,0.0,0.0,0.0,0.0,0.0,0.0,0.0,-0.115,-0.6228,0.0,0.0,0.0,0.0,0.0,0.0,0.0,0.0,0.0,0.0,0.0,-1.3177,-1.5679,-2.6786,-3.2485,-3.5281,-3.6412,-3.8584,-4.0773,-4.1555,-4.2089,-4.2031,-4.0277,-3.7055,-3.3694,-3.1309,-2.8303,0.0,0.0,-2.5313,-2.5214,-2.4904,0.0,0.0,0.0,0.0,0.0,0.0,0.0,0.0,0.0,0.0,0.0,0.0,0.0,0.0,0.0,0.0,-3.3744,-3.308,-3.1421,-3.0633,-3.0932,-2.9627,-2.9061,-2.9406,-2.8587,-2.836,-2.8701,-2.8091,-2.781,-2.776,-2.7062,-2.6536,-2.6194,-2.5568,-2.5133,-2.4755,-2.4613,-2.3634,-2.2389,-2.3156,-2.2903,-2.1984,-2.1578,-2.0919,-1.996,0.0,0.0,0.0,0.0,0.0,0.0,0.0,1.5946,1.6783,1.7589,1.709,1.6552,1.6398,1.6208,1.5715,0.0,0.0,0.0,0.0,0.0,0.0,0.0,0.0,0.0,0.0,0.0,0.0,0.0,0.0,0.0,0.0,0.0,0.0,0.0,0.0,0.0,0.0,0.0,0.0,0.0,0.0,0.0,0.0,0.0,0.0,0.0,0.0,0.0,0.0,0.0,0.0,-1.9661,-2.2984,-2.6973,-3.0579,-3.1485,0.0,0.0,-3.6744,-3.8964,-4.0478,-3.7187,-3.4689,-3.2369,-2.9646,0.0,0.0,-2.5283,-2.5354,-2.5306,-2.5022,-2.4877,-2.4726,0.0,0.0,-2.4803,0.0,0.0,0.0,0.0,0.0,0.0,0.0,0.0,0.0,0.0,0.0,-3.5128,-3.4429,-3.1915,-3.1059,-3.229,-3.0951,-2.9954,-2.9422,-2.9892,-2.9846,-2.9316,-2.8701,-2.8415,-2.8383,-2.7727,-2.6988,-2.6222,-2.6056,-2.5545,0.0,-2.3923,-2.3513,-2.3368,-2.3435,-2.3732,-2.3973,-2.3631,-2.3325,-2.2834,0.0,0.0,0.0,0.0,0.0,0.0,1.5848,1.6285,1.6863,1.7713,1.7533,1.7134,1.6573,1.5924,1.4914,1.3325,0.0,0.0,0.0,0.0,0.0,0.0,0.0,0.0,0.0,0.0,0.0,1.0708,0.9324,0.0,0.0,0.0,0.0,0.0,0.0,0.0,0.0,0.0,0.0,0.0,0.0,0.0,0.0,0.0,0.0,0.0,0.0,0.0,0.0,0.0,0.0,0.0,-1.9056,-2.1,0.0,0.0,-3.1005,-3.3689,-3.4871,-3.6819,-3.799,-3.5886,-3.329,-3.0779,-2.882,0.0,0.0,-2.5077,-2.5273,-2.5323,-2.5045,-2.4892,-2.4733,-2.454,0.0,0.0,0.0,0.0,0.0,0.0,0.0,0.0,0.0,0.0,0.0,0.0,0.0,-3.5268,-3.4554,-3.309,-3.248,-3.3014,-3.1271,-3.0615,-3.1148,-3.0247,-3.0068,-3.057,-2.958,-2.9082,-2.9049,-2.7842,-2.7335,-2.722,-2.6227,-2.579,0.0,-2.545,-2.4949,-2.4386,-2.4386,-2.4505,-2.4658,-2.4244,-2.3839,-2.3316,0.0,0.0,0.0,0.0,0.0,1.5291,1.6027,1.6386,1.6815,1.7454,1.7291,1.6886,1.6302,1.492,1.345,1.2055,1.2567,0.0,0.0,0.0,0.0,0.0,0.0,0.0,0.0,0.0,1.0006,0.9505,0.7758,0.6553,0.0,0.0,0.0,0.0,0.0,0.0,0.0,0.0,0.0,0.0,0.0,0.0,0.0,0.0,0.0,0.0,0.0,0.0,0.0,0.0,0.0,0.0,0.0,0.0,0.0,0.0,-2.7174,-2.9963,-3.1765,-3.3638,-3.4757,-3.3517,-3.1133,-2.8772,0.0,0.0,-2.4104,-2.4259,-2.4691,-2.4973,-2.4772,-2.4768,-2.4759,-2.4601,0.0,-2.4392,0.0,0.0,0.0,0.0,0.0,0.0,0.0,0.0,0.0,0.0,-3.5504,-3.5301,-3.4539,-3.3795,-3.3406,-3.3406,-3.155,-3.1232,-3.2594,-3.1054,-3.0822,-3.1998,-3.0703,-3.0094,-3.0076,-2.8759,-2.811,-2.792,-2.7037,-2.6588,0.0,-2.6533,-2.6094,-2.5429,-2.4967,-2.4977,-2.5114,-2.4321,-2.3676,-2.303,0.0,0.0,0.0,0.0,0.0,0.0,1.5291,1.5981,1.6543,1.6695,1.5848,1.5272,1.5393,1.3034,1.1391,1.1315,1.1738,0.0,0.0,0.0,0.0,0.0,0.0,0.0,0.0,0.0,0.8393,0.8116,0.5793,0.463,0.4599,0.3163,0.2584,0.0,0.0,0.0,0.0,0.0,0.0,0.0,0.0,0.0,0.0,0.0,0.0,0.0,0.0,0.0,0.0,0.0,0.0,0.0,0.0,0.0,0.0,0.0,-2.2046,-2.5077,-2.6418,-2.8838,-3.0658,-2.929,-2.7803,-2.627,0.0,0.0,-2.2388,-2.2585,-2.3475,-2.4194,-2.4126,-2.4498,-2.4797,-2.4814,-2.4461,0.0,0.0,0.0,0.0,0.0,0.0,0.0,0.0,0.0,0.0,0.0,-3.5199,0.0,-3.4539,-3.3795,-3.3406,-3.3406,-3.1968,-3.1901,-3.3372,-3.2645,-3.2645,-3.3347,-3.2082,-3.147,-3.1438,-3.08,-2.9537,-2.8009,-2.8663,-2.8051,0.0,-2.6533,-2.6452,-2.6321,-2.4893,-2.4822,-2.546,-2.428,-2.3034,-2.2041,0.0,0.0,0.0,0.0,0.0,0.0,0.0,1.552,1.5698,1.5745,1.4992,1.4449,1.444,1.2573,1.1266,1.1111,1.1179,0.0,0.0,0.0,0.0,0.0,0.0,0.0,0.0,0.0,0.6757,0.6112,0.5105,0.4296,0.3709,0.3263,0.2771,0.2246,0.126,0.0,0.0,0.0,0.0,0.0,0.0,0.0,0.0,0.0,0.0,0.0,0.0,0.0,0.0,0.0,0.0,0.0,0.0,0.0,0.0,-1.6469,0.0,0.0,-2.342,-2.588,-2.7799,-2.6552,-2.6018,-2.5366,-2.3824,0.0,-2.2988,-2.2499,-2.3356,-2.4173,-2.4102,-2.4152,-2.4323,-2.4733,-2.4594,0.0,0.0,0.0,0.0,0.0,0.0,0.0,0.0,0.0,0.0,0.0,-3.4726,-3.4742,-3.4506,-3.3305,-3.2645,-3.2645,-3.2188,-3.2171,-3.2628,-3.2916,-3.2942,-3.2707,-3.1866,-3.1482,-3.1384,-3.0231,-2.9311,-2.8663,-2.8295,-2.7484,-2.6533,-2.6533,-2.6533,-2.6371,-2.5247,-2.5095,-2.5365,-2.3309,-2.2545,-2.2408,0.0,0.0,0.0,0.0,0.0,0.0,0.0,1.4989,1.4971,1.4353,1.3876,1.3553,1.3475,1.1827,1.0772,1.0877,1.0366,0.0,0.0,0.0,0.0,0.0,0.0,0.0,0.0,0.6678,0.5846,0.5463,0.4877,0.4333,0.3779,0.3575,0.3028,0.2185,0.1523,0.0382,0.0,0.0,0.0,0.0,0.0,0.0,-0.4053,0.0,0.0,0.0,0.0,0.0,0.0,0.0,0.0,0.0,0.0,0.0,0.0,0.0,-1.6608,0.0,0.0,-2.2799,-2.429,-2.3943,-2.3694,0.0,0.0,0.0,-2.1983,-2.1531,-2.2367,-2.3281,-2.363,-2.3775,-2.4085,-2.4771,-2.4666,0.0,0.0,0.0,0.0,0.0,0.0,0.0,0.0,0.0,0.0,-3.3702,-3.3914,-3.3964,-3.3677,-3.278,-3.2154,-3.1884,-3.2138,-3.2544,-3.3102,-3.3305,-3.3225,-3.2863,-3.1932,-3.1367,-3.1078,-3.016,-2.9534,-2.9119,-2.8779,-2.8051,0.0,-2.6539,-2.6195,-2.5791,-2.4637,-2.4443,-2.4523,-2.249,-2.1624,-2.1241,0.0,0.0,0.0,0.0,0.0,0.0,0.0,1.4324,1.4272,1.2772,1.2593,1.2576,1.2508,1.0869,0.9992,1.0537,0.0,0.0,0.0,0.0,0.0,0.0,0.0,0.0,0.7666,0.6153,0.5546,0.5851,0.5004,0.4596,0.4564,0.4068,0.3351,0.245,0.2024,0.1132,-0.0089,-0.1309,-0.2542,-0.3694,-0.3784,-0.3894,0.0,0.0,0.0,0.0,0.0,0.0,0.0,0.0,0.0,0.0,0.0,0.0,0.0,0.0,0.0,0.0,0.0,0.0,0.0,0.0,0.0,0.0,0.0,0.0,0.0,0.0,0.0,-2.181,-2.2808,-2.3403,-2.4011,-2.4858,0.0,0.0,0.0,0.0,0.0,0.0,0.0,0.0,0.0,0.0,0.0,-3.2354,-3.2933,-3.3051,-3.2391,-3.2256,-3.1918,-3.1292,-3.1935,-3.2916,-3.4252,-3.3694,-3.3376,-3.334,-3.2045,-3.1114,-3.0603,-3.0477,-3.0083,0.0,-3.0009,-2.9317,-2.7657,-2.671,-2.575,-2.4826,-2.3486,-2.3098,-2.3105,-2.1953,-2.0624,-1.9284,0.0,0.0,0.0,0.0,0.0,0.0,0.0,0.0,0.0,0.0,1.1934,1.1608,1.1542,1.0312,0.9493,0.0,0.0,0.0,0.0,0.0,0.0,0.0,0.0,0.0,0.7238,0.5923,0.5282,0.5363,0.4845,0.4441,0.4156,0.421,0.3831,0.3045,0.2336,0.1266,-0.009,-0.1514,-0.2266,-0.2587,-0.356,-0.3928,0.0,0.0,0.0,0.0,-0.8109,-0.929,0.0,0.0,0.0,0.0,0.0,0.0,0.0,0.0,-1.4256,-1.558,-1.7293,0.0,-1.9516,-1.9427,-1.9939,0.0,0.0,0.0,0.0,0.0,0.0,0.0,0.0,0.0,0.0,0.0,0.0,0.0,0.0,0.0,0.0,0.0,0.0,0.0,0.0,0.0,-3.2792,-3.2354,-3.2442,-3.2713,-3.3119,-3.207,-3.163,-3.2019,-3.2188,-3.2188,-3.1968,-3.2916,-3.264,-3.1177,-3.086,-3.0663,-3.0528,-3.0048,-2.9921,-3.0053,-3.0211,-2.9317,-2.7657,-2.671,-2.5573,-2.4431,-2.4048,-2.3447,-2.2817,-2.2504,-2.1516,-2.0268,0.0,0.0,0.0,0.0,0.0,0.0,0.0,0.0,0.0,0.0,0.0,0.0,0.0,0.0,0.0,0.0,0.0,0.0,0.0,0.0,0.0,0.0,0.0,0.6062,0.6493,0.5399,0.4889,0.5017,0.4786,0.4791,0.4973,0.5251,0.5003,0.4326,0.2689,0.1333,0.0179,-0.1166,-0.207,-0.2692,-0.3841,0.0,0.0,0.0,0.0,0.0,-0.8754,-0.9468,0.0,-1.0347,-1.0532,-1.0643,0.0,0.0,0.0,0.0,-1.3379,-1.4569,-1.5742,-1.7266,-1.8572,-1.8749,-1.9376,-1.9856,0.0,0.0,0.0,0.0,0.0,0.0,0.0,0.0,0.0,0.0,0.0,0.0,0.0,0.0,0.0,0.0,0.0,0.0,0.0,0.0,-3.2419,-3.161,-3.1397,-3.1461,-3.1867,-3.114,-3.1021,-3.1749,-3.1782,-3.1749,-3.1698,-3.2493,-3.2081,-3.043,-3.0156,-2.9703,-2.916,-2.9146,-2.9451,-2.9957,-2.9957,-2.9362,-2.8193,-2.6635,-2.5073,-2.3607,-2.3317,-2.2738,-2.2055,-2.2055,-2.1323,-2.0228,0.0,0.0,0.0,0.0,0.0,0.0,0.0,0.0,0.0,0.0,0.0,0.0,0.0,0.0,0.0,0.0,0.0,0.0,0.0,0.0,0.0,0.0,0.0,0.5837,0.5904,0.4949,0.4612,0.4906,0.487,0.5293,0.6106,0.6382,0.6208,0.554,0.3048,0.144,0.052,-0.0745,-0.2026,-0.3286,-0.4172,0.0,0.0,0.0,0.0,0.0,0.0,0.0,0.0,-1.0185,-1.0247,-1.021,-0.9919,0.0,0.0,0.0,0.0,0.0,-1.4643,-1.6198,-1.7742,-1.8592,-1.9059,-1.935,-1.9555,0.0,0.0,0.0,0.0,0.0,0.0,0.0,0.0,0.0,0.0,0.0,0.0,0.0,0.0,0.0,0.0,0.0,0.0,-3.2642,-3.1914,-3.0803,-3.0338,-3.0057,-2.9939,-2.9939,-3.0277,-3.1004,-3.1021,-3.1376,-3.2104,-3.2121,-3.1515,-3.03,-2.9678,-2.8826,-2.779,-2.8338,-2.8966,-2.9579,0.0,0.0,-2.8754,-2.6604,-2.4589,-2.2797,-2.216,-2.1554,-2.1129,-2.1207,-2.0744,-2.0003,0.0,0.0,0.0,0.0,0.0,0.0,0.0,0.0,0.0,0.0,0.0,0.0,0.0,0.0,0.0,0.0,0.0,0.0,0.0,0.0,0.0,0.6555,0.6109,0.6045,0.6385,0.5314,0.4939,0.5314,0.5238,0.5536,0.6114,0.6435,0.6152,0.5276,0.3411,0.1821,0.051,-0.1052,-0.2286,-0.3257,-0.3972,0.0,0.0,0.0,0.0,0.0,0.0,0.0,0.0,-0.9633,-0.9555,-0.9555,-0.9502,0.0,0.0,0.0,0.0,0.0,-1.5407,-1.6536,-1.7365,-1.7784,-1.8604,-1.935,-1.9555,0.0,0.0,0.0,0.0,0.0,0.0,0.0,0.0,0.0,0.0,0.0,0.0,0.0,0.0,0.0,0.0,0.0,-3.2227,-3.2029,-3.1567,-3.0751,-3.0338,-2.9837,-2.9194,-2.9161,-2.9499,-3.026,-3.0277,-3.0632,-3.136,-3.136,-3.0767,-2.9566,-2.9454,-2.9092,-2.8442,-2.8547,-2.8966,-2.9579,0.0,-2.916,-2.8281,-2.6438,-2.4432,-2.2486,-2.1619,-2.1062,-2.0702,-2.0702,-2.0613,-2.0411,0.0,0.0,0.0,0.0,0.0,0.0,0.0,0.0,0.0,0.0,0.0,0.0,0.0,0.0,0.0,0.0,0.0,0.0,0.0,0.0,0.0,0.6514,0.6337,0.6189,0.6108,0.5257,0.4879,0.5073,0.5036,0.5385,0.6114,0.6387,0.6013,0.4984,0.3937,0.2271,0.021,-0.0976,-0.2446,-0.4015,0.0,0.0,0.0,0.0,0.0,0.0,0.0,0.0,0.0,0.0,-0.9074,-0.9128,-0.9316,0.0,0.0,0.0,0.0,0.0,-1.4744,-1.5742,-1.6524,-1.668,-1.8111,-1.9532,-1.9801,0.0,0.0,0.0,0.0,0.0,0.0,0.0,0.0,0.0,0.0,0.0,0.0,0.0,0.0,0.0,0.0,-3.1211,-3.1921,-3.1359,-3.0711,-3.0161,-2.933,-2.8721,-2.8383,-2.8349,-2.8704,-2.9482,-2.9499,-2.9854,-3.0598,-3.0615,-3.0194,-2.9406,-2.9058,-2.8618,-2.8038,-2.8038,-2.8412,-2.9026,0.0,-2.8449,-2.8211,-2.6749,-2.4985,-2.313,-2.2423,-2.1516,-2.0526,-2.0074,-2.0204,-2.0478,0.0,0.0,0.0,0.0,0.0,0.0,0.0,0.0,0.0,0.0,0.0,0.0,0.0,0.0,0.0,0.0,0.0,0.0,0.0,0.0,0.7106,0.6858,0.6673,0.6378,0.5966,0.5371,0.5044,0.4943,0.5125,0.5567,0.6275,0.6367,0.5839,0.4782,0.4217,0.2574,0.0136,-0.1189,-0.277,-0.4471,0.0,0.0,0.0,0.0,0.0,0.0,0.0,0.0,0.0,0.0,0.0,0.0,0.0,0.0,0.0,-1.1754,-1.2703,-1.3469,-1.4167,-1.5143,-1.6001,-1.6243,0.0,-1.9475,-2.0011,0.0,0.0,0.0,0.0,0.0,0.0,0.0,0.0,0.0,0.0,0.0,0.0,0.0,0.0,0.0,-2.918,-2.9914,-3.1445,-3.0676,-2.9878,-2.9379,-2.827,-2.7599,-2.7536,-2.7326,-2.7679,-2.8687,-2.8505,-2.8783,-2.9669,-2.9499,-2.942,-2.9406,-2.8919,-2.8415,-2.781,-2.766,-2.7961,-2.8529,-2.79,-2.7802,-2.803,-2.6953,-2.5479,-2.3809,-2.321,-2.1957,-2.0348,-1.9835,-1.9834,-1.9838,0.0,0.0,0.0,0.0,0.0,0.0,0.0,0.0,0.0,0.0,0.0,0.0,0.0,0.0,0.0,0.0,0.0,0.0,0.0,0.0,0.8112,0.7904,0.7174,0.6661,0.6457,0.6097,0.5719,0.5352,0.6037,0.6522,0.6743,0.6319,0.5665,0.4752,0.3924,0.2539,0.0653,-0.2142,-0.3535,-0.3928,-0.4776,0.0,0.0,0.0,0.0,0.0,0.0,0.0,0.0,0.0,0.0,0.0,0.0,0.0,-1.0696,-1.2347,-1.3345,-1.4083,-1.469,-1.5452,-1.6319,-1.7238,-1.8031,0.0,-1.9953,-2.0817,0.0,0.0,0.0,0.0,0.0,0.0,0.0,0.0,0.0,0.0,0.0,0.0,0.0,0.0,-2.9745,-3.0261,-3.0409,-2.9951,-2.9327,-2.8633,-2.7685,-2.7025,-2.6776,-2.5901,-2.6171,-2.784,-2.7,-2.7111,-2.8318,-2.7786,-2.8132,-2.9406,-2.9361,-2.9012,-2.8415,-2.786,-2.7925,-2.8493,-2.7875,-2.7619,-2.7593,-2.6817,-2.5563,-2.3987,-2.3285,-2.1656,-1.9885,-2.0621,-1.9666,-1.8184,0.0,0.0,0.0,0.0,0.0,0.0,0.0,0.0,0.0,0.0,0.0,0.0,0.0,0.0,0.0,0.0,0.0,0.0,0.0,0.8193,0.7946,0.799,0.7233,0.6813,0.6863,0.5815,0.5395,0.5695,0.573,0.5634,0.5417,0.5563,0.4881,0.3612,0.3542,0.2321,0.016,-0.2713,-0.4045,-0.4332,-0.5365,-0.6608,0.0,0.0,0.0,0.0,0.0,0.0,0.0,0.0,-0.7661,-0.7538,-0.8548,-0.9658,-1.0841,-1.2049,-1.3341,-1.4444,-1.4804,-1.5589,-1.6373,-1.6767,0.0,0.0,0.0,0.0,0.0,0.0,0.0,0.0,0.0,0.0,0.0,0.0,0.0,0.0,0.0,0.0,0.0,-2.8351,-2.8617,-2.89,-2.9099,-2.8557,-2.8027,-2.767,-2.6892,-2.6221,-2.5799,-2.5726,-2.6003,-2.6678,-2.6299,-2.6718,-2.7925,-2.7078,-2.716,-2.8094,-2.8051,-2.776,-2.7321,-2.7418,-2.7189,-2.6713,-2.7364,-2.7335,-2.6991,-2.7143,-2.6327,-2.4747,-2.2721,-2.1316,-2.0502,-2.0259,-1.9705,-1.9109,0.0,0.0,0.0,0.0,0.0,0.0,0.0,0.0,0.0,0.0,0.0,0.0,0.0,0.0,0.0,0.0,0.0,0.0,0.9241,0.8703,0.8334,0.8249,0.7353,0.6933,0.7109,0.5583,0.5155,0.5913,0.5301,0.4928,0.4776,0.4653,0.4032,0.3018,0.3107,0.213,0.0198,-0.2577,-0.4207,-0.4998,-0.5907,-0.6984,0.0,0.0,0.0,0.0,0.0,0.0,0.0,0.0,-0.7476,-0.738,-0.8608,-0.9902,-1.1171,-1.2117,-1.3505,-1.4764,-1.4962,-1.5523,-1.6178,0.0,0.0,0.0,0.0,0.0,0.0,0.0,0.0,0.0,0.0,0.0,0.0,0.0,0.0,0.0,0.0,0.0,-2.6957,-2.6842,-2.7023,-2.727,-2.7493,-2.7141,-2.6843,-2.6759,-2.5966,-2.5411,-2.5221,-2.5221,-2.5411,-2.5726,-2.5411,-2.5713,-2.6706,-2.6044,-2.593,-2.6471,-2.6544,-2.6585,-2.6576,-2.6764,-2.6473,-2.5909,-2.6654,-2.6692,-2.6318,-2.6767,-2.627,-2.4916,-2.2723,-2.1719,-2.1355,-2.0784,-2.0248,-1.9912,0.0,0.0,0.0,0.0,0.0,0.0,0.0,0.0,0.0,0.0,0.0,0.0,0.0,0.0,0.0,0.0,0.0,0.0,1.0434,1.0033,0.9482,0.8816,0.7646,0.7014,0.708,0.559,0.5155,0.5875,0.4874,0.4665,0.5155,0.3744,0.3185,0.3274,0.267,0.1964,0.1016,-0.1652,-0.3952,-0.583,-0.6303,-0.7014,-0.7753,0.0,0.0,0.0,0.0,0.0,0.0,0.0,-0.7827,-0.8214,-0.9421,-1.064,-1.1785,-1.2728,-1.395,-1.5056,-1.5251,-1.5302,0.0,0.0,0.0,0.0,0.0,0.0,0.0,0.0,0.0,0.0,0.0,0.0,0.0,0.0,0.0,0.0,0.0,-2.5277,-2.4948,-2.4537,-2.5135,-2.5592,-2.5592,-2.5829,-2.598,-2.5997,-2.5012,-2.4617,-2.5144,-2.4184,-2.4101,-2.5166,-2.4142,-2.3864,-2.4374,-2.4389,-2.4453,-2.4612,-2.5001,-2.5638,-2.6463,-2.5848,-2.5925,-2.6463,-2.5848,-2.5615,-2.56,-2.56,-2.509,-2.4323,-2.3664,-2.2963,-2.2337,-2.2354,-2.1461,-2.0214,0.0,0.0,0.0,0.0,0.0,0.0,0.0,0.0,0.0,0.0,0.0,0.0,0.0,0.0,0.0,0.0,0.0,0.0,1.0763,0.9932,0.9127,0.8424,0.7259,0.6532,0.6275,0.5201,0.4617,0.4559,0.4254,0.3998,0.371,0.363,0.3347,0.2896,0.3375,0.2701,0.1058,-0.1061,-0.3094,-0.4979,-0.5952,-0.6937,-0.7827,0.0,0.0,0.0,0.0,0.0,0.0,0.0,0.0,0.0,-0.9439,-1.0631,-1.1789,-1.3112,-1.4319,-1.5222,-1.5271,0.0,0.0,0.0,0.0,0.0,0.0,0.0,0.0,0.0,0.0,0.0,0.0,0.0,0.0,-2.4208,-2.4189,-2.4234,-2.4357,-2.4546,-2.4624,-2.4509,-2.4683,-2.4822,-2.4845,-2.4646,-2.4572,-2.4652,-2.4067,-2.3813,-2.4044,-2.3657,-2.3597,-2.3936,-2.3637,-2.3716,-2.4242,-2.3994,-2.4055,-2.4464,-2.4208,-2.4463,-2.5153,-2.5375,-2.5101,-2.4487,-2.5288,-2.5345,-2.4881,-2.4881,-2.4538,-2.3828,-2.3155,-2.2748,-2.2456,-2.197,-2.1536,-2.1056,0.0,0.0,0.0,0.0,0.0,0.0,0.0,0.0,0.0,0.0,0.0,0.0,0.0,0.0,0.0,0.0,0.0,0.0,0.0,1.002,0.9168,0.8479,0.7356,0.6488,0.5913,0.4877,0.425,0.4051,0.3791,0.3528,0.3268,0.326,0.3069,0.2786,0.3124,0.2841,0.1938,-0.0753,-0.2941,-0.4774,-0.6578,-0.7496,-0.7874,0.0,0.0,0.0,0.0,0.0,0.0,0.0,0.0,0.0,-0.9955,-1.1084,-1.2043,-1.2982,-1.4229,-1.5224,-1.4876,0.0,0.0,0.0,0.0,0.0,0.0,0.0,0.0,0.0,0.0,0.0,0.0,0.0,0.0,-2.3545,-2.3472,-2.3431,-2.3431,-2.3539,-2.3625,-2.3646,-2.3874,-2.4049,-2.4066,-2.3914,-2.3782,-2.3711,-2.3246,-2.2946,-2.2858,-2.2768,-2.2738,-2.2738,-2.2998,-2.3156,-2.3224,-2.3451,-2.3631,-2.3707,-2.3646,-2.3819,-2.4223,-2.4544,-2.4273,-2.3655,-2.4462,-2.4582,-2.4223,-2.4223,-2.3983,-2.3573,-2.3212,-2.2979,-2.283,-2.2245,-2.1807,-2.1459,0.0,0.0,0.0,0.0,0.0,0.0,0.0,0.0,0.0,0.0,0.0,0.0,0.0,0.0,0.0,0.0,0.0,0.0,0.0,0.0,0.9484,0.8778,0.7656,0.6661,0.5851,0.4654,0.4024,0.3971,0.3424,0.3202,0.3318,0.2686,0.2618,0.2916,0.2299,0.2482,0.3013,-0.0663,-0.3265,-0.5106,-0.7663,-0.8328,-0.7891,-0.8655,0.0,0.0,0.0,0.0,0.0,0.0,0.0,0.0,-1.0827,-1.1809,-1.2469,-1.2756,-1.4018,-1.513,0.0,0.0,0.0,0.0,0.0,0.0,0.0,0.0,0.0,0.0,0.0,0.0,0.0,0.0,0.0,-2.3209,-2.2864,-2.2652,-2.2652,-2.247,-2.2282,-2.2242,-2.2841,-2.3226,-2.3169,-2.337,-2.3323,-2.2971,-2.2467,-2.2041,-2.1734,-2.1635,-2.1605,-2.1605,-2.2188,-2.2218,-2.1605,-2.2817,-2.3176,-2.2724,-2.3251,-2.355,-2.3595,-2.3595,-2.3595,-2.3595,-2.3595,-2.3595,-2.3595,-2.3595,-2.3585,-2.3548,-2.3555,-2.3511,-2.3363,-2.2823,-2.2219,-2.1587,0.0,0.0,0.0,0.0,0.0,0.0,0.0,0.0,0.0,0.0,0.0,0.0,0.0,0.0,0.0,0.0,0.0,0.0,0.0,0.0,0.9355,0.8357,0.7238,0.6236,0.5363,0.477,0.3975,0.3006,0.2856,0.252,0.1936,0.2315,0.2806,0.3354,0.2637,0.2001,0.1327,-0.0837,-0.3213,-0.5644,-0.7222,-0.78,-0.7838,-0.9012,-0.9254,0.0,0.0,0.0,0.0,0.0,0.0,0.0,-1.143,-1.2125,-1.2701,-1.4258,-1.4995,-1.5254,0.0,0.0,0.0,0.0,0.0,0.0,0.0,0.0,0.0,0.0,0.0,0.0,0.0,0.0,0.0,-2.2856,-2.2565,-2.2385,-2.2385,-2.2343,-2.2161,-2.1788,-2.1902,-2.1871,-2.1566,-2.1553,-2.1596,-2.1686,-2.159,-2.1559,-2.1704,-2.1201,-2.0932,-2.0932,-2.1051,-2.1066,-2.0932,-2.171,-2.2293,-2.2724,-2.2817,-2.3131,-2.3595,-2.3595,-2.3595,-2.3595,-2.3595,-2.3595,-2.3595,-2.3595,-2.3583,-2.357,-2.3596,-2.3584,-2.3494,-2.2893,-2.2573,-2.2216,0.0,0.0,0.0,0.0,0.0,0.0,0.0,0.0,0.0,0.0,0.0,0.0,0.0,0.0,0.0,0.0,0.0,0.0,0.0,0.0,0.925,0.8021,0.7198,0.657,0.6129,0.513,0.4242,0.352,0.3155,0.2798,0.2462,0.3101,0.3411,0.3379,0.2977,0.1723,-0.0196,-0.2247,-0.4652,-0.7174,-0.867,-0.8717,-0.8083,-0.9761,-1.0135,-0.97,-0.9493,0.0,0.0,0.0,0.0,0.0,0.0,0.0,-1.2691,-1.4149,-1.4885,-1.5109,0.0,0.0,0.0,0.0,0.0,0.0,0.0,0.0,0.0,0.0,0.0,0.0,0.0,0.0,0.0,-2.2573,-2.2381,-2.231,-2.231,-2.231,-2.2135,-2.1675,-2.1601,-2.1431,-2.1052,-2.1005,-2.0935,-2.0825,-2.0806,-2.0814,-2.076,-2.0408,-2.0228,-2.0228,-2.0543,-2.0557,-2.0228,-2.1201,-2.171,-2.1739,-2.2054,-2.2383,-2.2697,-2.3011,-2.2981,-2.2682,-2.2682,-2.2682,-2.2682,-2.2682,-2.2877,-2.3161,-2.3161,-2.334,-2.3508,-2.292,-2.2498,-2.2053,0.0,0.0,0.0,0.0,0.0,0.0,0.0,0.0,0.0,0.0,0.0,0.0,0.0,0.0,0.0,0.0,0.0,0.0,0.0,0.0,0.0,0.7927,0.7452,0.7118,0.6892,0.5435,0.4619,0.4437,0.3764,0.3578,0.3894,0.4136,0.4026,0.3596,0.3089,0.1361,-0.1313,-0.3915,-0.6426,-0.8837,-1.0582,-1.0208,-0.8803,-1.0679,-1.1091,-1.0541,-0.992,-1.0054,-1.0391,-0.9415,0.0,0.0,0.0,0.0,-1.2671,-1.3504,-1.4342,-1.4843,0.0,0.0,0.0,0.0,0.0,0.0,0.0,0.0,0.0,0.0,0.0,0.0,0.0,0.0,-2.2931,-2.2406,-2.231,-2.231,-2.231,-2.231,-2.2136,-2.167,-2.1552,-2.1346,-2.0926,-2.0879,-2.0683,-2.0227,-2.0265,-2.0108,-1.9711,-1.969,-1.969,-1.969,-2.0243,-2.0258,-1.9726,-2.0797,-2.1141,-2.0722,-2.138,-2.1635,-2.1545,-2.2084,-2.2099,-2.1695,-2.1695,-2.1695,-2.1695,-2.1695,-2.2024,-2.2559,-2.2664,-2.2921,-2.3238,-2.2864,-2.2341,-2.1839,0.0,0.0,0.0,0.0,0.0,0.0,0.0,0.0,0.0,0.0,0.0,0.0,0.0,0.0,0.0,0.0,0.0,0.0,1.0811,0.0,0.0,0.8585,0.7974,0.7089,0.5991,0.5428,0.4928,0.4567,0.414,0.0,0.0,0.0,0.0,0.4779,0.255,0.0468,-0.1566,-0.4554,-0.7228,-0.9606,-1.1351,-1.148,-1.0697,-1.1497,-1.2531,-1.3307,-1.1518,-1.1319,-1.185,-1.1218,-1.1092,0.0,0.0,0.0,-1.2992,-1.3411,-1.4086,0.0,0.0,0.0,0.0,0.0,0.0,0.0,0.0,0.0,0.0,0.0,0.0,0.0,0.0,0.0,-2.2659,-2.2366,-2.231,-2.231,-2.231,-2.231,-2.2136,-2.167,-2.1277,-2.0891,-2.0447,-2.0381,-2.0203,-1.9797,-2.0116,-2.0135,-1.9711,-1.969,-1.969,-1.969,-1.9779,-1.9779,-1.969,-1.9869,-2.0213,-2.0722,-2.138,-2.1395,-2.0857,-2.0932,-2.1246,-2.1695,-2.1695,-2.1695,-2.1695,-2.1695,-2.1739,-2.1874,-2.2458,-2.2383,-2.2009,-2.2509,-2.2661,-2.2477,0.0,0.0,0.0,0.0,0.0,0.0,0.0,0.0,0.0,0.0,0.0,0.0,0.0,0.0,0.0,1.1578,1.1673,1.1534,1.0889,0.9665,0.8999,0.9084,0.8439,0.7625,0.6677,0.592,0.5471,0.5317,0.0,0.0,0.0,0.5083,0.4332,0.0,0.0,0.0,-0.4029,-0.8452,-1.0478,-1.089,-1.2221,-1.2212,-1.1499,-1.2439,-1.305,-1.3257,-1.2371,-1.2252,-1.2327,-1.096,-1.0549,-1.0684,-1.1145,0.0,0.0,0.0,0.0,0.0,0.0,0.0,0.0,0.0,0.0,0.0,0.0,0.0,0.0,0.0,0.0,0.0,0.0,0.0,-2.1514,-2.1669,-2.1687,-2.1815,-2.2231,-2.231,-2.2136,-2.167,-2.1439,-2.1052,-2.0381,-2.0288,-2.0125,-1.9741,-1.9864,-1.9899,-1.9711,-1.969,-1.969,-1.969,-1.969,-1.969,-1.969,-1.969,-1.9839,-2.0139,-2.0423,-2.0408,-2.0139,-2.0139,-2.0288,-2.0572,-2.0572,-2.0572,-2.0572,-2.0572,-2.0797,-2.1171,-2.1455,-2.162,-2.1685,-2.1709,-2.1436,-2.1126,0.0,0.0,0.0,0.0,0.0,0.0,0.0,0.0,0.0,0.0,0.0,0.0,0.0,0.0,0.0,0.0,1.1909,1.1726,1.132,1.0328,0.9805,0.9995,0.9301,0.8415,0.7338,0.6358,0.59,0.5935,0.0,0.0,0.6501,0.5014,0.3312,0.0,-0.1117,-0.3798,0.0,0.0,0.0,-1.2835,-1.3365,-1.3163,-1.2615,-1.3123,-1.3248,-1.3106,-1.2973,-1.288,-1.2604,-1.1049,-1.0501,-1.0508,-1.0669,-1.0503,0.0,0.0,0.0,0.0,0.0,0.0,0.0,0.0,0.0,0.0,0.0,0.0,0.0,0.0,0.0,0.0,0.0,0.0,-2.0548,-2.1126,-2.1027,-2.1233,-2.2181,-2.2136,-2.1911,-2.1636,-2.1496,-2.1157,-2.0369,-2.0203,-2.0014,-1.9726,-1.9771,-1.9822,-1.9726,-1.9822,-1.9822,-1.969,-1.969,-1.969,-1.969,-1.969,-1.969,-1.969,-1.969,-1.969,-1.969,-1.969,-1.969,-1.969,-1.969,-1.969,-1.969,-1.969,-1.9989,-2.0468,-2.0647,-2.0825,-2.0951,-2.0738,-2.0356,-1.9978,0.0,0.0,0.0,0.0,0.0,0.0,0.0,0.0,0.0,0.0,0.0,0.0,1.263,1.261,1.2591,1.2572,1.2316,1.232,1.2673,1.2627,1.2303,1.1711,1.0782,0.0,0.7349,0.6515,0.6079,0.0,0.0,0.0,0.6232,0.3063,-0.0,-0.2952,-0.4958,-0.6975,-0.9085,0.0,0.0,0.0,0.0,0.0,0.0,0.0,0.0,0.0,-1.3454,-1.3143,-1.2932,-1.2595,-1.2146,-1.1663,-1.08,-1.0667,-1.0729,0.0,0.0,0.0,0.0,0.0,0.0,0.0,0.0,0.0,0.0,0.0,0.0,0.0,0.0,0.0,0.0,0.0,-2.0281,-2.1075,-2.0559,-2.0593,-2.2107,-2.1703,-2.1351,-2.1575,-2.1256,-2.0832,-2.0352,-1.9947,-1.9726,-1.969,-2.0029,-2.0095,-1.9726,-2.0044,-2.0095,-1.9726,-1.969,-1.969,-1.969,-1.969,-1.969,-1.969,-1.969,-1.969,-1.969,-1.969,-1.969,-1.969,-1.969,-1.969,-1.969,-1.969,-1.9705,-1.9809,-2.0453,-2.0003,-1.9104,-1.9738,-1.9929,-1.989,0.0,0.0,0.0,0.0,0.0,0.0,0.0,0.0,0.0,0.0,0.0,0.0,0.0,1.3109,1.3041,1.2871,1.2842,1.3199,1.4034,1.3471,1.3012,1.2773,1.1869,1.0588,0.8942,0.7646,0.6969,0.0,0.0,0.5342,0.6639,0.1003,-0.3167,-0.6028,-0.7848,-1.0134,-1.2707,-1.4682,0.0,0.0,0.0,0.0,0.0,0.0,0.0,0.0,0.0,0.0,0.0,0.0,0.0,-1.0881,-0.9812,-0.925,-0.9042,-0.9375,0.0,0.0,0.0,0.0,0.0,0.0,0.0,0.0,0.0,0.0,0.0,0.0,0.0,0.0,0.0,0.0,0.0,-1.9587,-1.9469,-1.9646,-2.0671,-2.0777,-2.0798,-2.0886,-2.0959,-2.0824,-2.036,-2.0181,-1.9999,-1.9726,-1.9837,-1.9871,-1.9719,-1.9848,-1.9852,-1.969,-1.969,-1.969,-1.969,-1.969,-1.969,-1.969,-1.969,-1.969,-1.969,-1.969,-1.969,-1.969,-1.9332,-1.9207,-1.9207,-1.9566,-1.9479,-1.9236,-1.9834,-1.9775,-1.9362,-1.8921,-1.8717,-1.8717,0.0,0.0,0.0,0.0,0.0,0.0,0.0,0.0,0.0,1.3625,0.0,0.0,0.0,0.0,1.4161,1.3894,1.417,1.4571,1.5105,1.4804,1.4473,1.4139,1.3638,1.2567,1.0954,0.9414,0.8344,0.0,0.0,0.0,0.0,-0.0934,-0.5518,-0.9677,-1.1189,-1.2986,0.0,0.0,0.0,-1.5955,0.0,0.0,-1.1455,0.0,0.0,0.0,0.0,0.0,0.0,0.0,0.0,0.0,0.0,-0.8484,-0.8078,-0.8927,0.0,0.0,0.0,0.0,0.0,0.0,0.0,0.0,0.0,0.0,0.0,0.0,0.0,0.0,0.0,0.0,0.0,-1.8427,-1.8442,-1.8706,-1.9697,-1.9794,-1.9874,-2.0096,-2.0334,-2.0326,-1.9954,-1.9933,-1.9852,-1.9726,-1.9837,0.0,-1.9703,-1.9832,-1.9837,-1.969,-1.969,-1.969,-1.969,-1.969,-1.969,-1.969,-1.969,-1.969,-1.969,-1.969,-1.969,-1.969,-1.9332,-1.9169,-1.9169,-1.9369,-1.9207,-1.8968,-1.9479,-1.9369,-1.8817,-1.8302,-1.7987,-1.7827,0.0,0.0,0.0,0.0,0.0,0.0,0.0,0.0,0.0,1.3985,0.0,0.0,0.0,0.0,0.0,1.5665,1.6211,1.6375,1.591,1.6724,1.6797,1.591,1.6096,1.5284,1.3234,1.1709,1.0144,0.0,0.0,0.0,0.0,0.0,-0.7124,-1.3918,-1.5,-1.548,-1.5547,0.0,-1.6633,-1.5917,0.0,-1.285,-0.9388,0.0,0.0,0.0,-1.3396,-1.3396,0.0,-1.2997,0.0,0.0,0.0,-0.8619,-0.8049,-0.871,0.0,0.0,0.0,0.0,0.0,0.0,0.0,0.0,0.0,0.0,0.0,0.0,0.0,0.0,0.0,0.0,0.0,-1.769,-1.7525,-1.7798,-1.9201,-1.8838,-1.8624,-1.9273,-1.9373,-1.9325,-1.9191,-1.9188,-1.9328,-1.9675,-2.0044,-2.011,-1.9741,-2.0095,-2.0095,-1.9726,-1.969,-1.969,-1.969,-1.969,-1.969,-1.969,-1.969,-1.969,-1.969,-1.969,-1.969,-1.969,-1.969,-1.9639,-1.9639,-1.9132,-1.8893,-1.893,-1.9479,-1.8688,-1.7394,-1.7907,-1.7747,-1.7312,0.0,0.0,0.0,0.0,0.0,0.0,1.342,1.3737,1.3992,0.0,0.0,0.0,1.5291,1.5537,1.5997,1.6689,1.6492,1.6664,1.7492,1.7547,1.7454,1.7187,1.6974,1.6447,1.5571,1.3078,1.1785,1.1805,0.4591,-0.0789,-0.4413,-0.7905,-1.1708,0.0,-1.657,-1.6138,-1.4769,-1.5855,0.0,0.0,-1.5434,-1.3051,0.0,0.0,0.0,0.0,0.0,-1.3396,-1.3278,0.0,-1.1679,-1.0718,0.0,0.0,0.0,-0.8845,0.0,0.0,-0.9499,0.0,0.0,0.0,0.0,0.0,0.0,0.0,0.0,0.0,0.0,0.0,0.0,0.0,0.0,0.0,-1.6575,-1.7355,-1.751,-1.8007,-1.8316,-1.8235,-1.869,-1.8824,-1.8517,-1.875,-1.9054,0.0,-1.9822,-2.0029,-2.0125,-1.9948,-1.9822,-1.969,-1.969,-1.969,-1.969,-1.969,-1.969,-1.969,-1.9332,-1.9332,-1.969,-1.9281,-1.9332,-1.9639,-1.8893,-1.8765,-1.9132,-1.9369,-1.9006,-1.838,-1.8893,-1.8612,-1.7867,-1.7626,-1.7422,-1.7312,0.0,0.0,0.0,0.0,0.0,1.3519,1.3834,1.4249,1.4512,0.0,0.0,0.0,1.6638,1.6693,1.6986,1.7732,1.7315,1.7441,1.8403,1.8268,1.821,1.8279,1.8276,1.8012,1.7432,1.4058,1.2823,1.3919,0.3977,-0.2179,-0.4759,-0.9492,-1.351,-1.6742,0.0,0.0,0.0,0.0,0.0,0.0,-1.4389,0.0,0.0,-1.2751,-1.3329,0.0,0.0,0.0,-1.3159,-1.274,-1.1778,0.0,0.0,0.0,0.0,0.0,0.0,0.0,0.0,0.0,0.0,0.0,0.0,0.0,-1.2032,-1.2212,0.0,0.0,0.0,0.0,0.0,0.0,0.0,0.0,-1.5665,-1.6488,-1.6575,-1.7088,-1.7466,-1.7396,-1.7738,-1.7914,-1.7838,-1.8029,-1.8418,-1.9076,-1.9278,-1.9587,-2.0035,-1.9837,-1.969,-1.969,-1.969,-1.969,-1.969,-1.969,-1.969,-1.969,-1.9169,-1.9043,-1.9369,-1.8817,-1.8727,-1.9006,-1.838,-1.8302,-1.8612,-1.9169,-1.8727,-1.7827,-1.8612,-1.8302,-1.7435,-1.7353,-1.7146,-1.6951,0.0,0.0,1.4423,1.4819,1.4483,1.4377,1.5018,1.5183,1.5232,0.0,1.6134,1.7148,1.8176,1.8155,1.8205,1.8612,1.8304,1.8336,1.8912,1.8929,1.907,1.9337,1.9773,1.9599,1.8718,1.4745,1.2988,1.3603,0.374,-0.2422,-0.5116,-0.9652,-1.3664,-1.7004,0.0,0.0,0.0,0.0,0.0,-1.3142,-1.2727,-1.2751,0.0,0.0,-1.3221,-1.3012,-1.3392,-1.3271,-1.2979,-1.3108,-1.2251,0.0,0.0,0.0,0.0,0.0,-0.8589,0.0,0.0,0.0,0.0,0.0,0.0,0.0,-1.2804,-1.2678,-1.2195,0.0,0.0,0.0,0.0,0.0,0.0,0.0,-1.4714,-1.5376,-1.6084,-1.6282,-1.649,-1.6763,-1.6789,-1.6897,-1.7166,-1.7227,-1.7602,-1.8486,-1.8616,-1.8967,-1.9621,-1.9621,-1.9621,-1.969,-1.969,-1.969,-1.969,-1.969,-1.9675,-1.9594,-1.9051,-1.8803,-1.8793,-1.8263,-1.8027,-1.8106,-1.8027,-1.7973,-1.7933,-1.8496,-1.8185,-1.7394,-1.8419,-1.7867,-1.6552,-1.7034,-1.6909,-1.6522,0.0,0.0,1.5356,1.4967,1.5124,1.5247,1.5184,1.5676,1.6078,1.6078,1.6729,1.7599,1.8659,1.7764,1.7535,1.8745,1.8007,1.8155,1.974,1.9847,2.0184,2.0929,2.0747,2.001,1.8724,1.5062,1.0231,0.4228,-0.385,-0.9898,-1.3914,-1.4479,-1.4805,-1.4891,0.0,0.0,0.0,0.0,0.0,-1.2498,-1.24,0.0,-1.3214,-1.351,-1.3238,-1.2829,-1.3967,-1.3645,-1.2568,-1.1864,-1.1775,-1.1814,0.0,0.0,0.0,0.0,0.0,0.0,0.0,0.0,0.0,0.0,0.0,0.0,-1.1285,-1.1768,-1.2128,0.0,0.0,0.0,0.0,0.0,0.0,0.0,-1.365,-1.442,-1.5361,-1.6182,-1.6738,-1.6789,-1.6789,-1.6723,-1.6499,-1.6749,-1.7119,-1.7599,-1.8146,-1.8733,-1.9409,-1.9099,-1.9133,-1.9696,-1.969,-1.969,-1.969,-1.969,-1.9483,-1.9066,-1.8521,-1.8271,-1.8219,-1.7679,-1.7706,-1.8066,-1.7626,-1.7162,-1.676,-1.7368,-1.7504,-1.7353,-1.8027,-1.7544,-1.6522,-1.6637,-1.6595,-1.6522,0.0,0.0,1.6434,1.6538,1.6308,1.6191,1.6411,1.6642,1.6931,1.7294,1.7922,1.8617,1.9369,1.7957,1.7587,1.9202,1.8033,1.816,2.0351,2.0094,1.9926,2.0107,1.9372,1.7979,1.5861,1.177,0.7902,0.4289,-0.5204,-1.0414,-1.1574,-1.4796,-1.5824,-1.497,0.0,0.0,0.0,0.0,-1.2077,-1.2927,-1.3226,0.0,-1.1671,-1.3595,-1.3937,-1.3461,-1.3917,-1.3446,-1.2489,-1.1752,-1.1815,0.0,0.0,-1.1066,-1.0798,0.0,-1.0129,-0.9473,0.0,0.0,0.0,-1.0264,0.0,0.0,0.0,-1.1671,-1.1961,-1.1826,-1.1805,-1.1805,-1.1805,0.0,0.0,-1.2358,-1.3316,-1.4026,-1.3845,-1.4676,-1.5443,-1.5743,-1.579,-1.5876,-1.6022,-1.6191,-1.6518,-1.7003,-1.767,-1.8334,-1.9004,-1.8811,-1.8871,-1.9269,-1.9295,-1.9185,-1.8893,-1.8892,-1.876,-1.8491,-1.796,-1.7716,-1.7679,-1.685,-1.6752,-1.7271,-1.6391,-1.6003,-1.6003,-1.628,-1.625,-1.6089,-1.6928,-1.6786,-1.6051,-1.6051,-1.6051,-1.6095,1.6868,0.0,1.7536,1.8155,1.7639,1.7325,1.7936,1.7844,1.7928,1.8601,1.8855,1.9279,2.008,0.0,0.0,0.0,1.816,1.8313,2.0467,1.954,1.9054,1.9432,1.698,1.4395,1.1802,0.7285,0.4876,0.4704,-0.5055,-0.9208,-0.8107,-1.3748,-1.6015,0.0,0.0,0.0,0.0,0.0,0.0,-1.3064,0.0,-1.2701,-1.0761,-1.3818,-1.4572,-1.3955,-1.3584,-1.3173,-1.2753,-1.2167,-1.2046,-1.2117,-1.2005,-1.1536,0.0,0.0,0.0,0.0,0.0,0.0,0.0,0.0,0.0,-1.1805,0.0,0.0,0.0,-1.1805,-1.1805,0.0,0.0,0.0,0.0,0.0,0.0,0.0,0.0,-1.2644,0.0,-1.4315,-1.4534,-1.4864,-1.5458,-1.5575,-1.587,-1.6495,-1.6924,-1.7486,-1.8281,-1.8435,-1.8563,-1.87,-1.8822,-1.8636,-1.8098,-1.81,-1.8049,-1.7955,-1.7513,-1.7168,-1.6957,-1.6013,-1.5828,-1.6107,-1.5107,-1.4926,-1.5264,-1.5318,-1.5005,-1.4652,-1.5772,-1.5915,-1.541,-1.541,-1.5499,-1.5632,1.7895,1.8206,0.0,1.8487,1.8761,1.907,1.9268,1.9169,1.9247,1.974,0.0,0.0,0.0,0.0,0.0,0.0,0.0,0.0,1.9521,0.0,0.0,2.1648,1.4403,0.943,0.7636,0.3331,-0.0436,-0.3626,-0.7381,-1.0485,-1.3013,-1.3794,-1.423,0.0,-1.3826,0.0,0.0,0.0,-1.2075,0.0,-1.2955,-1.3399,0.0,-1.4439,-1.4256,-1.3292,-1.2978,-1.3217,-1.3554,0.0,-1.2306,-1.1938,0.0,-1.2224,-1.1685,-1.1685,0.0,0.0,0.0,0.0,0.0,0.0,-1.1745,0.0,0.0,0.0,-1.1805,-1.1805,0.0,0.0,0.0,0.0,0.0,0.0,0.0,0.0,-1.035,-1.0732,-1.1617,-1.287,-1.3542,-1.4054,-1.4427,-1.475,-1.5184,-1.5842,-1.5422,-1.5656,-1.6874,-1.7488,-1.7877,-1.7997,-1.8577,-1.864,-1.8113,-1.8089,-1.7872,-1.7408,-1.7307,-1.6791,-1.5771,-1.5688,-1.5369,-1.4892,-1.4755,-1.4422,-1.405,-1.4549,-1.4422,-1.4003,-1.5161,-1.5274,-1.4789,-1.4789,-1.5141,-1.5543,1.8648,1.9113,0.0,0.0,1.9575,1.9717,1.9737,2.0258,2.0707,0.0,0.0,0.0,0.0,0.0,0.0,0.0,0.0,1.2546,0.0,0.0,0.0,0.0,0.7118,0.3863,0.1436,-0.1028,-0.3961,-0.743,-0.8889,-1.0923,-1.3398,-1.3664,-1.3915,0.0,-1.3754,0.0,-1.3192,0.0,-1.2571,0.0,0.0,0.0,0.0,-1.4342,-1.4134,-1.3457,-1.3528,-1.3498,-1.3361,0.0,-1.2703,0.0,0.0,0.0,0.0,0.0,0.0,0.0,0.0,0.0,0.0,0.0,0.0,0.0,-1.1805,0.0,-1.1805,0.0,0.0,0.0,0.0,0.0,0.0,0.0,-1.0952,0.0,0.0,0.0,-0.982,0.0,0.0,0.0,-1.3617,-1.3853,-1.405,-1.4315,-1.3918,-1.4211,-1.546,-1.5814,-1.6177,-1.6612,-1.687,-1.6746,-1.6166,-1.6157,-1.6022,-1.5807,-1.5807,-1.5536,-1.5062,-1.4713,-1.4611,-1.4663,-1.3978,-1.3695,-1.3779,-1.3695,-1.3515,-1.3334,-1.3805,-1.4086,-1.419,-1.419,-1.4318,-1.4595,0.0,0.0,0.0,0.0,0.0,2.0671,2.0625,0.0,0.0,0.0,0.0,0.0,1.8422,1.5412,0.0,0.0,0.4134,0.4477,0.0,0.0,0.1644,0.0,0.0,0.0,0.0,-0.5499,-0.7039,-0.9265,-0.9811,-1.0915,-1.2542,-1.3026,-1.3457,-1.3802,0.0,-1.3467,-1.3421,0.0,0.0,-1.3148,-1.2622,-1.2722,-1.3301,-1.4084,-1.4204,-1.3983,-1.4197,-1.3974,-1.3575,-1.3579,-1.334,0.0,-1.4255,0.0,0.0,0.0,0.0,0.0,-1.2119,0.0,0.0,0.0,0.0,0.0,0.0,0.0,0.0,0.0,0.0,0.0,0.0,0.0,0.0,0.0,0.0,-0.9938,0.0,0.0,0.0,0.0,0.0,0.0,0.0,-1.2535,-1.2813,-1.3121,-1.2671,-1.2844,-1.3887,-1.4194,-1.4519,-1.4984,-1.5234,-1.5152,-1.4631,-1.4675,-1.4706,-1.4697,-1.4697,-1.4598,-1.4428,-1.402,-1.393,-1.4154,-1.3296,-1.3152,-1.3505,-1.3055,-1.2881,-1.2881,-1.2881,-1.3152,-1.3552,-1.3552,-1.3637,-1.3826,2.2688,2.2202,0.0,0.0,0.0,0.0,0.0,0.0,0.0,0.0,0.0,0.0,0.0,0.0,0.0,0.0,0.0,-0.4344,-0.3914,0.0,-0.163,0.0,0.0,-0.8651,0.0,0.0,-0.9856,-0.9509,-1.003,-1.0572,-1.1084,-1.1616,-1.2307,-1.3128,-1.3204,-1.3522,-1.4019,-1.3433,-1.3173,-1.3198,-1.3173,-1.3185,-1.3267,0.0,-1.441,-1.484,-1.4805,0.0,0.0,-1.4761,-1.4302,0.0,0.0,0.0,0.0,0.0,0.0,0.0,0.0,0.0,0.0,-1.1954,0.0,0.0,0.0,0.0,-1.1805,0.0,0.0,0.0,0.0,0.0,0.0,0.0,0.0,0.0,0.0,0.0,0.0,0.0,0.0,0.0,0.0,-1.0588,-1.1518,-1.2642,-1.1863,-1.1522,-1.198,-1.2914,-1.3372,-1.3179,-1.4238,-1.4607,-1.4133,-1.4532,-1.4719,-1.4704,-1.4704,-1.4376,-1.3841,-1.3803,-1.3516,-1.2978,-1.2929,-1.2929,-1.2929,-1.2929,-1.2881,-1.2881,-1.2881,-1.2929,-1.2929,-1.2929,-1.3286,-1.3732,0.0,0.0,0.0,0.0,0.0,0.0,0.0,2.3473,0.0,0.0,0.0,0.0,0.0,0.4922,-0.1726,0.0,0.0,-0.7666,-1.208,-1.1759,0.0,0.0,0.0,-1.1394,0.0,0.0,0.0,0.0,0.0,-1.0829,-1.1008,-1.1553,-1.1788,-1.1743,0.0,-1.2719,0.0,0.0,0.0,0.0,0.0,-1.3198,-1.3232,0.0,-1.3615,-1.3842,-1.4398,-1.471,0.0,-1.5336,-1.5026,-1.4568,-1.5233,-1.4683,-1.3879,-1.4337,-1.4154,-1.3765,0.0,0.0,-1.3301,-1.2636,0.0,0.0,0.0,0.0,0.0,0.0,0.0,0.0,0.0,0.0,0.0,0.0,0.0,0.0,0.0,0.0,0.0,0.0,0.0,0.0,0.0,0.0,-1.0194,-1.0615,-0.8821,-0.8751,-1.1052,-1.1267,-1.1611,-1.2224,-1.2838,-1.3054,-1.2899,-1.3294,-1.3532,-1.3527,-1.3527,-1.3399,-1.3203,-1.3203,-1.3076,-1.2881,-1.2881,-1.2881,-1.2881,-1.2881,-1.2881,-1.2881,-1.2881,-1.2881,-1.2881,-1.2881,-1.3017,-1.32,2.3634,0.0,0.0,0.0,0.0,0.0,0.0,0.0,0.0,0.0,1.0448,0.0,0.5154,0.0,-0.4853,0.0,-1.2633,-1.1681,-1.6261,-1.6126,0.0,-1.3611,-1.3611,0.0,0.0,0.0,0.0,0.0,0.0,-1.0905,-1.0764,-1.1282,-1.1319,0.0,0.0,-1.2187,-1.2378,0.0,-1.2661,0.0,0.0,-1.2259,0.0,0.0,-1.3391,-1.3749,0.0,-1.4651,-1.4956,-1.5257,-1.5051,-1.479,-1.5372,-1.4861,-1.4195,-1.4939,-1.4718,-1.4251,-1.4162,-1.4154,0.0,-1.3316,-1.3151,0.0,-1.2299,0.0,-1.2171,0.0,0.0,0.0,0.0,0.0,0.0,0.0,0.0,0.0,0.0,-0.7664,0.0,0.0,0.0,0.0,0.0,0.0,-0.8974,-0.8763,-0.7617,-0.7902,-1.0136,-1.0004,-1.0263,-1.1195,-1.1746,-1.2052,-1.2052,-1.2619,-1.2881,-1.2881,-1.2881,-1.2881,-1.2881,-1.2881,-1.2881,-1.2881,-1.2881,-1.2881,-1.2881,-1.2881,-1.2881,-1.2881,-1.2881,-1.2881,-1.2881,-1.2881,-1.2881,-1.2881,0.0,0.0,0.0,0.0,2.4977,0.0,0.0,0.0,1.3063,0.0,0.6256,0.0018,-0.7274,-0.7432,-0.996,-1.7316,-1.6824,-1.6232,-1.6481,-1.5903,0.0,0.0,-1.4186,-1.3691,-1.252,0.0,0.0,0.0,0.0,0.0,0.0,0.0,0.0,0.0,-1.1505,0.0,-1.2164,-1.2342,-1.272,-1.3163,-1.3198,-1.0681,-0.7388,-1.1595,-1.3611,-1.4204,-1.4133,-1.441,-1.4805,-1.4558,-1.4486,-1.4558,-1.495,-1.4831,-1.4677,-1.5536,-1.5448,-1.505,-1.4881,-1.4842,-1.4677,-1.4019,-1.3855,0.0,0.0,0.0,-1.2846,0.0,0.0,0.0,0.0,0.0,0.0,0.0,0.0,0.0,0.0,0.0,0.0,0.0,0.0,0.0,0.0,-0.7518,-0.7872,-0.7246,-0.8153,-0.8908,0.0,-0.9104,-0.9372,-1.018,-1.1094,-1.1606,-1.1606,-1.2441,-1.2881,-1.2881,-1.2871,-1.2871,-1.2881,-1.2871,-1.2881,-1.2881,-1.2881,-1.2881,-1.2881,-1.2881,-1.2881,-1.2881,-1.2881,-1.2881,-1.2881,-1.2881,-1.2881,-1.2881,2.2164,2.3399,2.3892,0.0,2.316,2.3034,0.0,0.0,0.0,0.0,-0.0438,-0.583,-1.378,-1.3417,-1.3532,-1.6016,-1.5492,0.0,0.0,0.0,0.0,-1.4675,-1.541,-1.4817,-1.2487,-1.3244,0.0,-1.1019,0.0,0.0,-1.0322,0.0,0.0,0.0,0.0,0.0,-1.152,-1.142,-1.1872,-1.272,-1.3047,-1.2522,-1.1633,0.0,-1.1974,-1.0135,-0.9025,-1.1023,-1.4166,-1.4179,-1.4345,-1.4539,-1.4612,-1.4585,-1.46,-1.5121,-1.5197,-1.5169,-1.5443,-1.5544,-1.5394,-1.4707,-1.4528,-1.4363,0.0,0.0,0.0,0.0,0.0,0.0,0.0,0.0,0.0,0.0,0.0,0.0,0.0,0.0,0.0,-0.771,0.0,0.0,0.0,-0.593,-0.6143,-0.7203,-0.7718,-0.8439,-0.9454,0.0,-0.9381,-1.024,-1.1138,-1.1606,-1.1606,-1.2441,-1.2881,-1.2881,-1.2344,-1.2344,-1.2881,-1.2344,-1.2393,-1.2881,-1.2881,-1.2881,-1.2881,-1.2881,-1.2881,-1.2881,-1.2881,-1.2881,-1.2881,-1.2881,-1.2881,-1.2881,2.0191,0.0,0.0,1.9937,0.0,0.0,1.7673,1.1927,0.0,-0.1882,-0.6712,0.0,-1.5897,-1.5576,-1.5071,-1.5174,-1.4607,0.0,-1.6051,0.0,0.0,-1.521,-1.5562,-1.4923,-1.3128,-1.327,0.0,-1.1577,0.0,0.0,-1.0557,0.0,0.0,0.0,0.0,-1.0981,0.0,-1.1774,-1.2139,-1.2544,-1.3012,-1.3198,0.0,-1.3198,-1.2171,-1.0595,-0.9786,-1.1269,-1.3613,-1.369,-1.3796,-1.3977,-1.4171,-1.4106,-1.4038,-1.4662,-1.4728,-1.4679,-1.5109,-1.5374,-1.536,-1.4819,-1.479,-1.4715,-1.3865,-1.3666,-1.3666,0.0,-1.3273,-1.2771,0.0,0.0,0.0,0.0,0.0,0.0,0.0,0.0,0.0,0.0,-0.7111,0.0,-0.5949,-0.6098,-0.6494,-0.7079,-0.7704,-0.843,0.0,0.0,-0.9395,-1.0254,-1.1155,-1.1465,-1.1158,-1.1988,-1.2246,-1.1999,-1.1575,-1.1575,-1.195,-1.1575,-1.1724,-1.2403,-1.2403,-1.2608,-1.2881,-1.2881,-1.2881,-1.2881,-1.2881,-1.2881,-1.2881,-1.2881,-1.2881,-1.2881,0.0,0.0,0.0,0.0,0.0,0.0,0.0,0.399,0.0,-0.5962,0.0,-1.5194,-1.5384,-1.5239,-1.505,-1.4744,0.0,-1.4272,-1.541,-1.5499,-1.5485,-1.5475,-1.503,-1.4498,-1.3889,-1.2946,-1.2416,0.0,0.0,0.0,0.0,0.0,0.0,0.0,0.0,0.0,0.0,-1.2799,-1.3038,-1.2734,-1.3223,-1.3373,-1.3311,-1.3311,-1.3261,-1.3198,-1.3198,-1.3193,-1.3205,-1.3192,-1.3198,-1.3257,-1.3676,-1.3543,-1.3364,-1.4175,-1.4166,-1.3996,-1.4381,-1.4758,-1.4935,-1.4596,-1.4752,-1.4779,-1.3838,-1.3624,-1.3624,-1.3624,-1.314,-1.2837,-1.3329,0.0,0.0,0.0,0.0,0.0,0.0,0.0,0.0,0.0,0.0,0.0,0.0,-0.6958,-0.758,-0.6894,-0.776,-0.852,-0.8965,0.0,-0.9252,-1.0176,-1.0971,-1.1135,-1.0606,-1.1327,-1.1419,-1.0914,-1.0721,-1.0671,-1.0813,-1.0813,-1.1166,-1.1823,-1.1922,-1.2295,-1.2881,-1.2881,-1.2881,-1.2881,-1.2881,-1.2881,-1.2929,-1.2968,-1.2978,-1.2881,0.0,0.0,0.0,0.0,0.0,0.2922,-0.0284,-0.2422,-0.4726,-0.7564,-1.1089,-1.3732,-1.4732,-1.3956,-1.3742,-1.4606,-1.4143,0.0,0.0,0.0,0.0,-1.4152,-1.4529,-1.425,-1.3192,-1.3052,-1.2731,0.0,0.0,0.0,-1.1489,0.0,0.0,0.0,0.0,0.0,-1.1965,-1.3413,0.0,-1.3874,-1.4373,-1.4349,-1.3946,-1.3946,-1.3622,-1.3198,-1.3198,-1.3211,-1.3211,-1.3183,-1.3198,-1.3198,-1.3304,-1.3257,-1.331,-1.386,-1.396,-1.3979,-1.4397,-1.4543,-1.4575,-1.4529,-1.4564,-1.4568,-1.4363,-1.4304,-1.4304,-1.4304,-1.397,-1.3528,-1.316,0.0,0.0,0.0,0.0,0.0,0.0,0.0,0.0,0.0,0.0,-0.64,0.0,0.0,-0.6655,-0.6484,-0.7035,-0.7821,0.0,0.0,-0.8412,0.0,-1.0095,-1.0499,0.0,0.0,-1.1183,-1.1616,-1.0277,-1.0045,-1.0813,-1.0813,-1.1174,-1.185,-1.2461,-1.2774,-1.2881,-1.2881,-1.2881,-1.2881,-1.2881,-1.2881,-1.2968,-1.3467,-1.3334,-1.2881,0.0,0.0,0.0,0.0,0.0,0.0,0.0,-0.7555,-0.8859,-1.0437,-1.2253,-1.36,-1.4143,-1.3695,-1.3467,-1.3752,-1.3515,-1.36,-1.419,-1.4236,-1.4236,-1.4283,-1.4236,0.0,-1.3443,-1.2904,-1.262,-1.2594,0.0,0.0,-1.1904,-1.1904,0.0,0.0,0.0,-1.1746,0.0,0.0,0.0,-1.3249,-1.4094,-1.4277,-1.4083,-1.44,-1.4173,-1.3659,-1.3659,-1.3659,-1.3609,-1.3298,-1.3198,-1.3198,-1.3198,-1.3198,-1.3242,-1.3478,-1.3539,-1.3656,-1.4163,-1.4238,-1.4279,-1.4633,-1.4666,-1.454,-1.4351,-1.4283,-1.419,-1.3901,-1.3682,-1.3367,-1.2788,-1.1715,0.0,0.0,0.0,0.0,0.0,0.0,0.0,0.0,0.0,0.0,0.0,0.0,0.0,0.0,0.0,0.0,0.0,0.0,-0.8412,0.0,0.0,0.0,-0.9512,0.0,-0.988,-1.0053,-0.9261,-0.9213,-0.9762,-1.0115,-1.0669,-1.1334,-1.2039,-1.2559,-1.2881,-1.2881,-1.2881,-1.2881,-1.2881,-1.2881,-1.2929,-1.3248,-1.3152,-1.2929,0.0,0.358,0.0,0.0,-0.3471,0.0,-0.953,-1.1154,-1.2267,-1.2928,-1.3379,-1.36,-1.36,-1.36,-1.342,-1.2929,-1.3017,-1.3238,-1.36,-1.3732,-1.3956,-1.4294,-1.3873,-1.36,-1.36,-1.2755,-1.2539,0.0,0.0,0.0,-1.2363,-1.2363,0.0,0.0,0.0,0.0,0.0,0.0,-1.3466,-1.2893,-1.3807,-1.4176,-1.4244,-1.4685,-1.4625,-1.4249,-1.4123,-1.4085,-1.4022,-1.3546,-1.3408,-1.3348,-1.3235,-1.3198,-1.3198,-1.3198,-1.3198,-1.3348,-1.3951,-1.4014,-1.4102,-1.474,-1.4825,-1.4673,-1.4322,-1.4261,-1.411,-1.3521,-1.3204,-1.2852,-1.223,-1.1506,0.0,0.0,0.0,0.0,0.0,0.0,0.0,0.0,0.0,0.0,-0.4952,0.0,0.0,0.0,0.0,0.0,-0.7745,0.0,0.0,0.0,0.0,-0.8794,-0.8356,0.0,-0.8638,-0.8614,-0.841,-0.8565,-0.9061,-0.9718,-1.0364,-1.1065,-1.1724,-1.2344,-1.2881,-1.2881,-1.2881,-1.2881,-1.2881,-1.2881,-1.2929,-1.3065,-1.3017,-1.2968,0.0,0.0,0.0,0.0,0.0,0.0,-1.1408,-1.2286,-1.2997,-1.3627,-1.3276,-1.2968,-1.2968,-1.2968,-1.2968,-1.2881,-1.342,-1.3505,-1.3017,-1.3515,-1.36,-1.3113,-1.3017,-1.2968,-1.2968,-1.289,-1.2842,0.0,0.0,-1.2822,0.0,-1.2822,0.0,0.0,0.0,0.0,0.0,-1.3839,-1.4057,-1.4473,-1.4609,-1.466,-1.4737,-1.4779,-1.4825,-1.4765,-1.4261,-1.4085,-1.4072,-1.4022,-1.4009,-1.3921,-1.3348,-1.3198,-1.3198,-1.3198,-1.3198,-1.3348,-1.3951,-1.4088,-1.4225,-1.4751,-1.4904,-1.4866,-1.4828,-1.484,-1.4676,-1.4123,-1.3239,-1.2307,-1.14,-1.1099,-1.0754,0.0,0.0,0.0,0.0,0.0,0.0,0.0,0.0,0.0,0.0,-0.5454,-0.5353,0.0,-0.587,0.0,0.0,0.0,0.0,-0.8021,-0.8025,-0.8184,-0.848,-0.818,-0.8424,-0.9279,-0.838,-0.8553,-0.9718,-1.0415,-1.1065,-1.1765,-1.2461,-1.2822,-1.2881,-1.2881,-1.2881,-1.2881,-1.2881,-1.2881,-1.2978,-1.3505,-1.3372,-1.2968,0.0,0.0,0.0,0.0,0.0,0.0,0.0,-1.2452,-1.3104,-1.3732,-1.3286,-1.3065,-1.342,-1.3104,-1.2881,-1.2881,-1.3104,-1.3152,-1.2929,-1.3152,-1.3152,-1.2929,-1.2881,-1.2881,-1.2881,-1.2881,-1.2881,0.0,0.0,0.0,0.0,0.0,-1.2918,0.0,0.0,-1.2991,-1.3408,-1.3658,-1.3732,-1.3658,-1.4014,-1.4174,-1.4226,-1.4586,-1.4767,-1.4805,-1.4586,-1.4752,-1.5029,-1.4689,-1.4362,-1.4047,-1.3833,-1.3722,-1.3659,-1.3298,-1.3471,-1.3848,-1.4425,-1.4588,-1.4788,-1.5655,-1.5618,-1.5367,-1.5367,-1.5367,-1.5255,-1.4689,-1.3716,-1.2781,-1.2072,-1.1215,-1.0614,-1.0519,0.0,0.0,0.0,0.0,0.0,0.0,0.0,0.0,0.0,-0.5737,-0.5739,-0.5783,0.0,0.0,0.0,0.0,0.0,-0.7904,0.0,-0.7419,-0.7581,-0.7419,-0.7741,-0.8476,-0.8078,-0.8567,-0.9814,-1.0517,-1.1425,-1.2501,-1.2774,-1.2881,-1.2881,-1.2881,-1.2881,-1.2881,-1.2881,-1.2881,-1.2929,-1.3152,-1.3104,-1.2871,-0.8669,0.0,-1.0478,0.0,-1.1436,-1.2267,-1.2147,-1.2559,-1.3065,-1.3457,-1.3152,-1.3152,-1.3732,-1.3238,-1.2881,-1.2881,-1.2881,-1.2881,-1.2881,-1.2881,-1.2881,-1.2881,-1.2881,0.0,-1.2881,-1.2881,-1.2881,-1.2881,-1.2881,0.0,0.0,0.0,-1.2968,-1.318,-1.3083,-1.3077,-1.32,-1.342,-1.3286,-1.2929,-1.3372,-1.3637,-1.3862,-1.4283,-1.4575,-1.4751,-1.4771,-1.5061,-1.5385,-1.5201,-1.489,-1.4538,-1.4374,-1.4324,-1.4249,-1.3822,-1.3986,-1.445,-1.5004,-1.5155,-1.5341,-1.6283,-1.622,-1.5932,-1.5932,-1.5932,-1.574,-1.503,-1.4033,-1.3073,-1.2376,-1.1328,-1.0497,-1.0389,0.0,0.0,0.0,-0.748,0.0,0.0,-0.6443,-0.6428,-0.6145,-0.6035,-0.6082,0.0,0.0,0.0,0.0,0.0,0.0,0.0,0.0,0.0,-0.6979,-0.6979,-0.7284,-0.7882,-0.8112,-0.8853,-1.0115,-1.1023,-1.195,-1.2881,-1.2881,-1.2881,-1.2881,-1.2881,-1.2881,-1.2881,-1.2881,-1.2774,-1.2608,-1.2822,-1.2774,-1.2501,-1.0762,-1.1687,-1.231,-1.1837,-1.2733,-1.3359,-1.2949,-1.2881,-1.2881,-1.2929,-1.2881,-1.3152,-1.3732,-1.3238,-1.2881,-1.2881,-1.2881,-1.2881,-1.2881,-1.2881,-1.2881,0.0,0.0,-1.2881,-1.2881,-1.2881,-1.2881,-1.2881,0.0,0.0,-1.2881,0.0,-1.3238,-1.3779,-1.319,-1.3238,-1.3732,-1.3152,-1.2929,-1.2881,-1.2929,-1.3286,-1.3815,-1.3815,-1.419,-1.4722,-1.4771,-1.4808,-1.4893,-1.5476,-1.568,-1.558,-1.5079,-1.4903,-1.4903,-1.489,-1.489,-1.5016,-1.553,-1.568,-1.5819,-1.6371,-1.6509,-1.6509,-1.6509,-1.6509,-1.6175,-1.503,-1.3944,-1.291,-1.1906,-1.1257,-1.0454,-0.9047,0.0,0.0,0.0,-0.74,0.0,-0.6855,-0.6432,-0.6303,-0.6553,-0.6357,0.0,0.0,0.0,0.0,0.0,0.0,0.0,-0.7021,-0.7021,0.0,-0.6979,-0.6979,-0.7284,-0.7929,-0.8562,-0.9556,-1.0821,-1.2255,-1.2881,-1.2881,-1.2881,-1.2881,-1.2881,-1.2881,-1.2881,-1.2881,-1.2881,-1.2452,-1.1913,-1.2618,-1.2452,-1.1814,-1.2206,-1.2525,-1.2731,-1.2578,-1.2831,-1.3037,-1.29,-1.2881,-1.3065,-1.3457,-1.3152,-1.3152,-1.3732,-1.3238,-1.2881,0.0,-1.2881,-1.2881,0.0,-1.2881,-1.2881,-1.2881,-1.2881,-1.2881,-1.2881,-1.2881,-1.2881,-1.2881,0.0,0.0,-1.2881,-1.2881,-1.3017,-1.32,-1.2968,-1.3017,-1.3152,-1.2968,-1.2881,-1.2881,-1.2881,-1.3017,-1.32,-1.32,-1.3552,-1.4075,-1.4109,-1.4372,-1.4832,-1.5437,-1.561,-1.5586,-1.5417,-1.5418,-1.5354,-1.5016,-1.518,-1.5467,-1.5643,-1.5969,-1.6296,-1.6471,-1.6522,-1.6522,-1.6522,-1.6522,-1.6273,-1.5558,-1.4582,-1.3499,-1.2501,-1.1551,-1.0606,-0.9681,-0.9206,0.0,-0.7865,0.0,-0.6744,-0.6445,-0.6446,-0.6486,-0.658,-0.6506,0.0,0.0,0.0,0.0,0.0,0.0,0.0,0.0,-0.6979,0.0,-0.6979,-0.7221,-0.7528,-0.7929,-0.8786,-1.0027,-1.1516,-1.2461,-1.2881,-1.2881,-1.2881,-1.2881,-1.2881,-1.2881,-1.2881,-1.2832,-1.2344,-1.2021,-1.1765,-1.1525,-1.1625,-1.1665,-1.2881,-1.2881,-1.2881,-1.2881,-1.2881,-1.2881,-1.2881,-1.2881,-1.3065,-1.342,-1.3152,-1.3065,-1.342,-1.3152,0.0,-1.2881,-1.2881,-1.2881,-1.2881,-1.2881,-1.2881,-1.2881,-1.2881,-1.2881,-1.2881,-1.2881,0.0,-1.2881,-1.2881,-1.2881,-1.2881,-1.2881,-1.2881,-1.2881,-1.2881,-1.2881,-1.2881,-1.2881,-1.2881,-1.2881,-1.2881,-1.2881,-1.2881,-1.2881,-1.3152,-1.3505,-1.3732,-1.405,-1.4514,-1.532,-1.5454,-1.532,-1.5543,-1.5461,-1.5278,-1.4898,-1.521,-1.5647,-1.5647,-1.6076,-1.6522,-1.6522,-1.6522,-1.6522,-1.6522,-1.6522,-1.628,-1.5496,-1.4778,-1.3927,-1.2668,-1.1867,-1.1037,-0.9996,-0.9317,-0.8665,-0.788,0.0,-0.6727,0.0,0.0,-0.6794,0.0,-0.682,-0.6827,0.0,0.0,0.0,0.0,0.0,-0.6979,-0.6979,-0.7128,-0.7188,-0.7188,-0.775,-0.8154,-0.8469,-0.9694,-1.0953,-1.2236,-1.2666,-1.2881,-1.2881,-1.2881,-1.2881,-1.2881,-1.2881,-1.2881,-1.2832,-1.208,-1.1665,-1.1366,-1.0965,-1.0914,-1.0965,-1.2891,-1.2881,-1.2881,-1.2881,-1.2881,-1.2881,-1.2881,-1.2881,-1.2881,-1.2881,-1.2881,-1.2881,-1.2881,-1.2881,-1.2891,-1.292,0.0,0.0,-1.2881,-1.2881,-1.2881,-1.2881,-1.2881,-1.2881,-1.2881,-1.2881,-1.2881,-1.2881,-1.2832,-1.2822,-1.2832,-1.2881,-1.2832,-1.2774,-1.2881,-1.2871,-1.2813,-1.2881,-1.2881,-1.2881,-1.2881,-1.2881,-1.2881,-1.2881,-1.2881,-1.2968,-1.3552,-1.3732,-1.3909,-1.5084,-1.5096,-1.4744,-1.532,-1.5096,-1.4663,-1.4709,-1.5152,-1.5588,-1.5588,-1.6051,-1.6522,-1.6522,-1.6522,-1.6522,-1.6522,-1.6466,-1.6107,-1.4971,-1.4698,-1.4141,-1.2573,-1.2227,-1.1657,-1.0026,-0.9531,-0.8944,-0.7729,-0.7271,-0.7197,0.0,0.0,0.0,-0.7558,-0.7291,-0.7038,0.0,0.0,0.0,0.0,0.0,-0.6992,-0.7054,-0.7321,-0.752,-0.7585,-0.8478,-0.9131,-0.9562,-1.1103,-1.2187,-1.2881,-1.2881,-1.2881,-1.2881,-1.2881,-1.2881,-1.2881,-1.2881,-1.2881,-1.2832,-1.208,-1.1416,-1.0864,-1.0762,-1.0364,-0.9969,-1.2939,-1.2881,-1.2881,-1.2881,-1.2881,-1.2881,-1.2881,-1.2881,-1.2881,-1.2881,-1.2881,-1.2881,-1.2881,-1.2881,-1.3008,-1.333,-1.3066,-1.2881,-1.2881,-1.2881,-1.2881,-1.2881,-1.2881,-1.2881,-1.2881,-1.2881,-1.2881,-1.2881,-1.2344,-1.2049,-1.2094,-1.2637,-1.2314,-1.1334,-1.2412,-1.2609,-1.2106,-1.2677,-1.2881,-1.2881,-1.2881,-1.2881,-1.2881,-1.2881,-1.2881,-1.2929,-1.3055,-1.3104,-1.3248,-1.3956,-1.4143,-1.405,-1.4179,-1.4143,-1.4097,-1.456,-1.5152,-1.5588,-1.5588,-1.6051,-1.6522,-1.6522,-1.6522,-1.6522,-1.6522,-1.6139,-1.5732,-1.5454,-1.4641,-1.3772,-1.3035,-1.2528,-1.1796,-1.0579,-1.01,-0.9504,-0.8261,-0.8026,-0.8048,0.0,-0.7927,-0.7921,-0.8531,-0.802,-0.7669,0.0,0.0,-0.7361,-0.7361,-0.7141,-0.7128,-0.7355,-0.7473,-0.784,-0.8577,-0.9051,-0.9954,-1.1236,-1.1621,-1.2187,-1.2881,-1.2881,-1.2881,-1.2881,-1.2881,-1.2881,-1.2881,-1.2881,-1.2881,-1.2832,-1.208,-1.1715,-1.1466,-1.0415,-1.0261,-1.0415,-1.2499,-1.2666,-1.2774,-1.2452,-1.2666,-1.2881,-1.2881,-1.2881,-1.2881,-1.2881,-1.2881,-1.2881,-1.2881,-1.2881,-1.3047,-1.3467,-1.3125,-1.3047,-1.3428,-1.3096,-1.2969,-1.3164,-1.2988,-1.2881,-1.2881,-1.2881,-1.2715,-1.2393,-1.1972,-1.1633,-1.136,-1.1751,-1.1522,-1.0872,-1.1935,-1.2159,-1.1856,-1.2609,-1.2881,-1.2881,-1.2881,-1.2881,-1.2881,-1.2881,-1.2881,-1.2881,-1.2881,-1.2881,-1.2968,-1.36,-1.3637,-1.342,-1.3732,-1.36,-1.3467,-1.3789,-1.4283,-1.4858,-1.5096,-1.5644,-1.6139,-1.6423,-1.6281,-1.6095,-1.6095,-1.5644,-1.5096,-1.4812,-1.4272,-1.3648,-1.3093,-1.2745,-1.2196,-1.1322,-1.075,-1.0127,-0.9364,-0.8983,-0.8816,-0.8898,-0.8594,-0.8438,-0.8628,-0.8466,-0.8184,-0.7729,-0.8003,0.0,-0.752,-0.7746,-0.7879,-0.7951,-0.8087,-0.8584,-0.9573,-1.0205,-1.1126,-1.2295,-1.2295,-1.2501,-1.2881,-1.2881,-1.2881,-1.2881,-1.2881,-1.2881,-1.2881,-1.2881,-1.2881,-1.2774,-1.1724,-1.1366,-1.1166,-0.9814,-0.9562,-0.9814,-1.2122,-1.2535,-1.2812,-1.2172,-1.2499,-1.2881,-1.2881,-1.2881,-1.2881,-1.2881,-1.2939,-1.2978,-1.2978,-1.3037,-1.3242,-1.3662,-1.3311,-1.335,-1.3941,-1.3369,-1.3105,-1.3398,-1.2958,-1.2774,-1.2881,-1.2774,-1.2403,-1.1665,-1.1665,-1.1316,-1.0669,-1.0771,-1.0672,-1.0549,-1.1438,-1.1721,-1.1674,-1.255,-1.2881,-1.2881,-1.2881,-1.2881,-1.2881,-1.2881,-1.2881,-1.2881,-1.2881,-1.2881,-1.2968,-1.3505,-1.3324,-1.2968,-1.3505,-1.3334,-1.2881,-1.2881,-1.3238,-1.3826,-1.4514,-1.5141,-1.5688,-1.6107,-1.582,-1.5454,-1.5454,-1.5005,-1.4422,-1.3909,-1.3732,-1.3505,-1.2968,-1.2881,-1.2647,-1.1997,-1.137,-1.0886,-1.0501,0.0,-0.96,-0.969,-0.9406,-0.9096,-0.8948,-0.9059,-0.8864,-0.8042,-0.8682,-0.8782,-0.7965,-0.8662,-0.8997,-0.8944,-0.9082,-0.9628,-1.0601,-1.1505,-1.2295,-1.2881,-1.2881,-1.2881,-1.2881,-1.2881,-1.2881,-1.2881,-1.2881,-1.2881,-1.2881,-1.2881,-1.2881,-1.2774,-1.1484,-1.0965,-1.0762,-0.9465,-0.8956,-0.9008,-1.296,-1.3114,-1.3357,-1.3246,-1.3056,-1.2881,-1.2881,-1.2881,-1.2881,-1.2881,-1.3193,-1.3408,-1.3408,-1.373,-1.4121,-1.4551,-1.4189,-1.3848,-1.3623,-1.3486,-1.3281,-1.2988,-1.2323,-1.2236,-1.2881,-1.2295,-1.1625,-1.0965,-1.0965,-1.061,-0.9969,-1.053,-1.0205,-0.9176,-1.0991,-1.1516,-1.1054,-1.2357,-1.2881,-1.2881,-1.2881,-1.2881,-1.2881,-1.2881,-1.2881,-1.2881,-1.2881,-1.2881,-1.2929,-1.3017,-1.2968,-1.2929,-1.3017,-1.2968,-1.2881,-1.2881,-1.2978,-1.3296,-1.4387,-1.5141,-1.5499,-1.5062,-1.4926,-1.4835,-1.4835,-1.4376,-1.3909,-1.3815,-1.3372,-1.3017,-1.2929,-1.2881,-1.2706,-1.2242,-1.2068,-1.1693,-1.0876,0.0,-1.0953,-1.1078,-1.0736,-1.0723,-1.1221,-1.0831,-1.0424,-1.0318,-1.0189,-1.0082,-0.9977,-0.9826,-1.0131,-1.09,-1.0454,-1.0609,-1.1567,-1.2365,-1.2774,-1.2881,-1.2881,-1.2881,-1.2881,-1.2881,-1.2881,-1.2881,-1.2881,-1.2881,-1.2881,-1.2881,-1.2881,-1.2822,-1.1981,-1.1665,-1.1466,-1.0167,-0.9666,-0.9562,-1.2555,-1.3037,-1.3388,-1.255,-1.2686,-1.2774,-1.2344,-1.2657,-1.2881,-1.2881,-1.3242,-1.3506,-1.3506,-1.3887,-1.4307,-1.4746,-1.4202,-1.3957,-1.4209,-1.3975,-1.3594,-1.303,-1.2489,-1.2058,-1.1792,-1.1425,-1.0914,-1.0261,-1.0261,-0.9917,-0.9263,-0.9598,-0.9389,-0.8864,-1.0151,-1.0522,-1.0335,-1.1359,-1.1789,-1.1789,-1.1789,-1.1981,-1.2299,-1.2299,-1.255,-1.2881,-1.2881,-1.2881,-1.2881,-1.2881,-1.2881,-1.2881,-1.2881,-1.2881,-1.2881,-1.2881,-1.3152,-1.3515,-1.405,-1.4652,-1.5062,-1.4744,-1.4468,-1.4236,-1.4236,-1.3742,-1.3334,-1.3334,-1.3104,-1.2881,-1.2881,-1.2881,-1.2812,-1.2617,-1.2383,-1.2144,-1.1977,-1.1808,-1.1724,-1.164,-1.1469,-1.1316,-1.1266,-1.1316,-1.113,-1.0639,-1.0942,-1.0922,-1.0437,-1.1104,-1.1667,-1.2149,-1.19,-1.1962,-1.2393,-1.2715,-1.2881,-1.2881,-1.2881,-1.2881,-1.2881,-1.2881,-1.2676,-1.2314,-1.2295,-1.2089,-1.1792,-1.2147,-1.2295,-1.2295,-1.1922,-1.1814,-1.1665,-1.0312,-1.0012,-1.0269,-1.2036,-1.2674,-1.3066,-1.191,-1.2391,-1.2667,-1.2036,-1.2629,-1.3085,-1.279,-1.3221,-1.3537,-1.3537,-1.3739,-1.4164,-1.4902,-1.4059,-1.382,-1.4639,-1.4156,-1.358,-1.2969,-1.2413,-1.1533,-1.0372,-1.0669,-1.0415,-0.9562,-0.9718,-0.9465,-0.8804,-0.8804,-0.8804,-0.8811,-0.9475,-0.9799,-0.9833,-1.0541,-1.0789,-1.0789,-1.0789,-1.1213,-1.1814,-1.1795,-1.2241,-1.2881,-1.2881,-1.2881,-1.2881,-1.2881,-1.2881,-1.2881,-1.2715,-1.2774,-1.2881,-1.2715,-1.3084,-1.36,-1.36,-1.4014,-1.4479,-1.434,-1.392,-1.36,-1.36,-1.3238,-1.2881,-1.2881,-1.2881,-1.2881,-1.2881,-1.2881,-1.2881,-1.2881,0.0,-1.25,-1.2832,-1.2588,-1.2311,-1.208,-1.2039,-1.1832,-1.1334,-1.1724,-1.1755,-1.1024,-1.1789,-1.1972,-1.1229,-1.2493,-1.3158,-1.3024,-1.3074,-1.3065,-1.2881,-1.2881,-1.2881,-1.2881,-1.2881,-1.2881,-1.2881,-1.2881,-1.251,-1.1792,-1.1823,-1.1516,-1.1065,-1.1566,-1.1913,-1.203,-1.1873,-1.1814,-1.1665,-1.0466,-1.0261,-1.0517,-1.1943,-1.217,-1.2464,-1.234,-1.2655,-1.2771,-1.2307,-1.3255,-1.3633,-1.2516,-1.3068,-1.3603,-1.3603,-1.3303,-1.3716,-1.5245,-1.393,-1.3391,-1.4168,-1.3536,-1.2946,-1.2545,-1.1524,-1.0293,-0.8956,-1.0167,-1.0167,-0.8857,-0.951,-0.9465,-0.8804,-0.8804,-0.8804,-0.8811,-0.9475,-0.9813,-0.9843,-1.052,-1.0777,-1.0777,-1.0777,-1.1218,-1.18,-1.1783,-1.2241,-1.2881,-1.2881,-1.2881,-1.2881,-1.2881,-1.2881,-1.2774,-1.208,-1.2344,-1.2774,-1.208,-1.2393,-1.2978,-1.2978,-1.342,-1.3732,-1.3152,-1.3027,-1.2978,-1.2978,-1.2929,-1.2881,-1.2881,-1.2881,-1.2881,-1.2881,-1.2881,-1.2881,-1.2881,0.0,0.0,-1.2881,-1.2852,-1.2842,-1.2822,-1.2822,-1.2774,-1.2774,-1.2774,-1.2813,-1.2735,-1.3294,-1.3606,-1.3575,-1.4215,-1.4318,-1.3721,-1.3732,-1.3467,-1.2929,-1.2881,-1.2881,-1.2881,-1.2881,-1.2881,-1.2881,-1.2881,-1.251,-1.1814,-1.1814,-1.1765,-1.1715,-1.1765,-1.2187,-1.2764,-1.208,-1.1814,-1.1715,-1.1015,-1.0364,-0.9865,-1.1826,-1.2035,-1.231,-1.2513,-1.2175,-1.193,-1.202,-1.2362,-1.2633,-1.2672,-1.2789,-1.3053,-1.3579,-1.3271,-1.3252,-1.3846,-1.287,-1.2573,-1.3425,-1.2212,-1.1578,-1.1728,-1.0506,-0.9592,-0.9078,-0.9355,-0.9309,-0.8804,-0.9061,-0.9061,-0.8804,-0.8804,-0.8804,-0.8811,-0.9049,-0.9169,-0.9176,-0.9468,-0.9535,-0.9535,-0.9535,-1.0212,-1.1157,-1.118,-1.1914,-1.2881,-1.2881,-1.2881,-1.2881,-1.2881,-1.2608,-1.2187,-1.1873,-1.1972,-1.2236,-1.2452,-1.2666,-1.2881,-1.2881,-1.3065,-1.32,-1.2978,-1.2881,-1.2881,-1.2881,-1.2881,-1.2881,-1.2881,-1.2881,-1.2881,-1.2881,-1.2881,-1.2881,-1.2881,0.0,-1.2881,-1.2881,-1.2881,-1.2881,-1.2881,-1.2881,-1.2881,-1.2881,-1.2881,-1.2881,-1.2881,-1.3104,-1.3238,-1.3238,-1.4154,-1.4422,-1.3815,-1.4143,-1.3884,-1.2929,-1.2881,-1.2881,-1.2881,-1.2881,-1.2881,-1.2881,-1.2881,-1.2255,-1.1216,-1.1616,-1.1316,-1.0635,-1.1797,-1.2218,-1.2283,-1.295,-1.2897,-1.2431,-1.2019,-1.1804,-1.1601,-1.1406,-1.1586,-1.1766,-1.197,-1.1682,-1.1478,-1.1654,-1.1881,-1.2143,-1.2318,-1.229,-1.24,-1.2982,-1.255,-1.2458,-1.2948,-1.202,-1.1779,-1.2573,-1.1257,-1.0527,-1.0798,-0.9687,-0.905,-0.905,-0.8691,-0.8586,-0.8804,-0.8586,-0.8586,-0.8804,-0.8804,-0.8804,-0.8804,-0.8804,-0.8804,-0.8804,-0.8804,-0.8804,-0.8798,-0.9003,-0.9814,-1.0837,-1.1047,-1.1856,-1.2881,-1.2881,-1.2881,-1.2881,-1.2881,-1.2403,-1.1814,-1.1814,-1.1814,-1.1922,-1.2666,-1.2881,-1.2881,-1.2881,-1.3065,-1.3152,-1.2978,-1.2881,-1.2822,-1.2618,-1.2715,-1.2822,-1.2608,-1.2725,-1.2881,-1.2881,-1.2881,-1.2881,-1.2881,-1.2881,-1.2881,-1.2881,-1.2881,-1.2881,-1.2881,-1.2715,-1.2559,-1.2559,-1.2559,-1.2559,-1.2559,-1.2949,-1.3296,-1.3478,-1.4247,-1.4422,-1.3815,-1.419,-1.3994,-1.3076,-1.2949,-1.2881,-1.2881,-1.2881,-1.2881,-1.2881,-1.2881,-1.2255,-1.1166,-1.1616,-1.1266,-1.0541,-1.1913,-1.2437,-1.2429,-1.3484,-1.3584,-1.3046,-1.2466,-1.2236,-1.2058,-1.0624,-1.0624,-1.0624,-1.0624,-1.1288,-1.166,-1.1212,-1.2169,-1.2514,-1.1264,-1.1509,-1.1764,-1.1834,-1.1108,-1.124,-1.2826,-1.1545,-1.0926,-1.1703,-1.0751,-0.998,-0.9693,-0.9118,-0.8811,-0.8811,-0.8103,-0.8049,-0.8804,-0.8049,-0.8103,-0.8804,-0.8804,-0.8804,-0.8804,-0.8804,-0.8811,-0.8811,-0.8811,-0.8811,-0.8883,-0.957,-1.0213,-1.0898,-1.1548,-1.2241,-1.2881,-1.2881,-1.2881,-1.2881,-1.2881,-1.2403,-1.1814,-1.1814,-1.1814,-1.1922,-1.2666,-1.2881,-1.2881,-1.2929,-1.3324,-1.3637,-1.3065,-1.2881,-1.2715,-1.1972,-1.2344,-1.2666,-1.1972,-1.2403,-1.2881,-1.2881,-1.2881,-1.2881,-1.2881,-1.2881,-1.2881,-1.2881,-1.2881,-1.2881,-1.2881,-1.2236,-1.1814,-1.1814,-1.1814,-1.1814,-1.1814,-1.3034,-1.405,-1.4652,-1.4709,-1.4422,-1.3815,-1.3815,-1.3721,-1.3506,-1.3096,-1.2881,-1.2881,-1.2881,-1.2881,-1.2881,-1.2881,-1.251,-1.1814,-1.1814,-1.1823,-1.185,-1.2335,-1.2931,-1.3516,-1.3516,-1.3516,-1.3345,-1.2227,-1.1366,-1.0712,-1.0822,-1.0701,-1.0933,-1.2097,-1.202,-1.192,-1.2369,-1.2257,-1.2043,-1.1637,-1.1231,-1.1163,-1.1772,-1.1108,-1.0807,-1.1296,-1.087,-1.0593,-1.0615,-0.989,-0.9409,-0.9379,-0.915,-0.9057,-0.9057,-0.8691,-0.8593,-0.8804,-0.8593,-0.8593,-0.8804,-0.8804,-0.8804,-0.8804,-0.8804,-0.9228,-0.9992,-0.9966,-1.0255,-1.0714,-1.1234,-1.1445,-1.1566,-1.2113,-1.255,-1.2881,-1.2881,-1.2881,-1.2881,-1.2881,-1.2403,-1.1814,-1.1814,-1.1814,-1.1922,-1.2666,-1.2881,-1.2968,-1.342,-1.3637,-1.3637,-1.3065,-1.3238,-1.3362,-1.2706,-1.2344,-1.2187,-1.2501,-1.2344,-1.2295,-1.2822,-1.2881,-1.2881,-1.2881,-1.2881,-1.2881,-1.2881,-1.2881,-1.2881,-1.2881,-1.2236,-1.1814,-1.1814,-1.1609,-1.155,-1.1783,-1.2638,-1.3025,-1.2686,-1.3558,-1.3779,-1.32,-1.36,-1.3721,-1.3506,-1.3379,-1.332,-1.332,-1.332,-1.3164,-1.2881,-1.2881,-1.251,-1.1832,-1.2645,-1.2725,-1.2371,-1.36,-1.4057,-1.4004,-1.4609,-1.4297,-1.3474,-1.3413,-1.2619,-1.1416,-1.0788,-1.0994,-1.1351,-1.2328,-1.2143,-1.195,-1.2451,-1.1834,-1.1351,-1.1351,-1.0926,-1.0807,-1.1288,-1.0863,-1.0577,-1.0394,-1.0342,-1.0087,-0.9786,-0.9382,-0.9183,-0.9183,-0.9183,-0.913,-0.9072,-0.8624,-0.848,-0.8804,-0.848,-0.8592,-0.8978,-0.8978,-0.9005,-0.916,-0.9503,-0.9997,-1.0655,-1.1024,-1.1281,-1.1541,-1.2047,-1.2043,-1.1849,-1.2461,-1.2871,-1.3135,-1.3135,-1.3224,-1.333,-1.3185,-1.2744,-1.2187,-1.1873,-1.1972,-1.2344,-1.2774,-1.2881,-1.3017,-1.3647,-1.3956,-1.4143,-1.3993,-1.3852,-1.3637,-1.2977,-1.254,-1.2295,-1.2452,-1.2466,-1.2632,-1.3172,-1.3379,-1.3537,-1.3594,-1.343,-1.3238,-1.3238,-1.3065,-1.2881,-1.2881,-1.2127,-1.1592,-1.1592,-1.1251,-1.1266,-1.1731,-1.2465,-1.2689,-1.2241,-1.332,-1.3751,-1.3379,-1.3751,-1.3962,-1.4004,-1.4014,-1.3758,-1.327,-1.311,-1.2902,-1.2667,-1.2812,-1.2666,-1.2264,-1.3109,-1.3292,-1.2987,-1.426,-1.4629,-1.4443,-1.4961,-1.459,-1.3717,-1.3532,-1.2753,-1.1715,-1.0739,-1.1248,-1.1755,-1.1809,-1.1787,-1.1834,-1.1834,-1.1163,-1.0681,-1.0624,-1.0624,-1.0624,-1.0624,-1.0624,-1.0441,-1.014,-0.9826,-0.9526,-0.9203,-0.9157,-0.9143,-0.9143,-0.917,-0.9064,-0.8851,-0.8193,-0.8205,-0.8884,-0.8253,-0.8377,-0.9223,-0.9334,-0.95,-0.9841,-1.0564,-1.0997,-1.1193,-1.1946,-1.2069,-1.1795,-1.2438,-1.2378,-1.2044,-1.2767,-1.3204,-1.3547,-1.357,-1.3807,-1.4048,-1.3661,-1.3283,-1.291,-1.223,-1.2429,-1.2939,-1.2988,-1.2969,-1.3076,-1.3751,-1.4287,-1.48,-1.5421,-1.4732,-1.3768,-1.3246,-1.3065,-1.2871,-1.2311,-1.2941,-1.363,-1.3882,-1.4181,-1.4475,-1.4713,-1.4193,-1.3784,-1.3879,-1.3306,-1.2881,-1.2881,-1.2039,-1.1419,-1.1419,-1.1091,-1.1141,-1.172,-1.2538,-1.2977,-1.2804,-1.3638,-1.4077,-1.4024,-1.4077,-1.4346,-1.4785,-1.4673,-1.4016,-1.2967,-1.2583,-1.2324,-1.2228,-1.261,-1.2774,-1.2852,-1.332,-1.3525,-1.3633,-1.4453,-1.4805,-1.4834,-1.4805,-1.4521,-1.3975,-1.2967,-1.2235,-1.1715,-1.1543,-1.141,-1.1402,-1.2018,-1.1936,-1.1834,-1.1834,-1.1648,-1.1288,-1.0681,-1.0624,-1.0624,-1.0624,-1.0624,-1.0441,-1.014,-0.9639,-0.9256,-0.919,-0.9025,-0.8898,-0.8898,-0.9064,-0.9157,-0.909,-0.8974,-0.9085,-0.9492,-0.979,-0.977,-0.9586,-1.0251,-1.059,-1.0627,-1.083,-1.1752,-1.3176,-1.3336,-1.3467,-1.358,-1.4093,-1.3812,-1.3176,-1.3642,-1.3871,-1.3978,-1.3962,-1.4016,-1.4082,-1.3988,-1.3899,-1.3807,-1.3642,-1.3468,-1.3437,-1.3769,-1.3633,-1.359,-1.4532,-1.4647,-1.4731,-1.5835,-1.5314,-1.4695,-1.5371,-1.4836,-1.4395,-1.5207,-1.4697,-1.421,-1.4798,-1.447,-1.4355,-1.5001,-1.4205,-1.3791,-1.4363,-1.3557,-1.2881,-1.2881,-1.2517,-1.2236,-1.2236,-1.2466,-1.2539,-1.239,-1.3314,-1.3358,-1.218,-1.3403,-1.38,-1.3195,-1.3746,-1.4346,-1.4785,-1.3579,-1.3076,-1.3435,-1.3095,-1.2413,-1.1517,-1.1852,-1.203,-1.2098,-1.3049,-1.3691,-1.398,-1.457,-1.498,-1.5244,-1.4912,-1.4521,-1.4029,-1.3497,-1.2651,-1.1715,-1.145,-1.1654,-1.1831,-1.2015,-1.2011,-1.1944,-1.1794,-1.1469,-1.1108,-1.0681,-1.0624,-1.0624,-1.0624,-1.0434,-1.0174,-0.974,-0.9292,-0.9031,-0.9031,-0.8891,-0.8931,-0.9212,-0.9232,-0.9316,-0.9595,-0.9526,-0.9622,-0.9967,-1.0287,-1.0313,-1.0186,-1.0629,-1.0791,-1.0742,-1.1159,-1.2123,-1.3453,-1.3616,-1.3877,-1.4121,-1.4165,-1.3922,-1.3508,-1.3745,-1.4048,-1.4419,-1.4421,-1.4424,-1.4417,-1.4436,-1.4282,-1.4087,-1.4086,-1.382,-1.3481,-1.3516,-1.324,-1.3058,-1.3744,-1.3896,-1.4101,-1.5336,-1.5556,-1.5661,-1.6219,-1.5656,-1.5061,-1.5466,-1.5247,-1.4985,-1.483,-1.4819,-1.5001,-1.5485,-1.5158,-1.4908,-1.53,-1.4587,-1.4002,-1.4002,-1.3399,-1.2976,-1.2772,-1.2906,-1.2988,-1.2779,-1.3651,-1.3818,-1.3058,-1.4101,-1.4513,-1.411,-1.4513,-1.4853,-1.5078,-1.4255,-1.3848,-1.3839,-1.2685,-1.1913,-1.1505,-1.2061,-1.2447,-1.2664,-1.3671,-1.4238,-1.4473,-1.4912,-1.5098,-1.5088,-1.4873,-1.4394,-1.3756,-1.3214,-1.2489,-1.1665,-1.1263,-1.1981,-1.2401,-1.1858,-1.186,-1.1889,-1.1637,-1.1052,-1.0624,-1.0624,-1.0624,-1.0624,-1.0624,-1.0294,-0.992,-0.9376,-0.9078,-0.8884,-0.8884,-0.8838,-0.9025,-0.9512,-0.9345,-0.9409,-0.9953,-0.9833,-0.9914,-1.0265,-1.0424,-1.0531,-1.0675,-1.0849,-1.0847,-1.08,-1.1531,-1.2266,-1.3045,-1.3441,-1.3763,-1.4014,-1.3691,-1.3643,-1.3695,-1.3743,-1.4197,-1.4877,-1.4877,-1.4877,-1.4877,-1.4877,-1.464,-1.4332,-1.4332,-1.3968,-1.3465,-1.3195,-1.2742,-1.235,-1.2619,-1.286,-1.3336,-1.4552,-1.5385,-1.6066,-1.6361,-1.6265,-1.5976,-1.5438,-1.5771,-1.5903,-1.4991,-1.5289,-1.5737,-1.6025,-1.5997,-1.6056,-1.6311,-1.5701,-1.5236,-1.5391,-1.4681,-1.405,-1.3622,-1.3657,-1.364,-1.3527,-1.4132,-1.4432,-1.4312,-1.5029,-1.5352,-1.5167,-1.5352,-1.541,-1.541,-1.5235,-1.4874,-1.4204,-1.233,-1.16,-1.1881,-1.261,-1.3129,-1.3497,-1.4311,-1.4717,-1.4805,-1.5078,-1.5078,-1.4873,-1.4538,-1.4009,-1.3326,-1.2495,-1.1968,-1.1516,-1.2131,-1.2094,-1.1914,-1.1499,-1.1262,-1.1084,-1.0785,-1.0688,-1.0624,-1.0624,-1.0624,-1.0624,-1.0624,-1.0294,-1.0087,-1.0,-0.9499,-0.913,-0.913,-0.8945,-0.8844,-0.8925,-0.907,-0.9223,-0.9303,-0.982,-1.0094,-1.0113,-1.0798,-1.0965,-1.0622,-1.1338,-1.1628,-1.1648,-1.1772,-1.2266,-1.3045,-1.3441,-1.3618,-1.3668,-1.3914,-1.4262,-1.4622,-1.4603,-1.4904,-1.5332,-1.5332,-1.5332,-1.5332,-1.5332,-1.5284,-1.5225,-1.5225,-1.4492,-1.3658,-1.3965,-1.3249,-1.2464,-1.2812,-1.2705,-1.2814,-1.4208,-1.435,-1.4602,-1.6373,-1.7689,-1.8487,-1.8437,-1.7839,-1.7201,-1.6594,-1.5911,-1.5638,-1.6304,-1.5649,-1.5437,-1.671,-1.5908,-1.5442,-1.6137,-1.6406,-1.6396,-1.6089,-1.6372,-1.6367,-1.5725,-1.5785,-1.5533,-1.4851,-1.5191,-1.505,-1.4392,-1.505,-1.541,-1.541,-1.4688,-1.4332,-1.4204,-1.3193,-1.2625,-1.2505,-1.2908,-1.3114,-1.3176,-1.3892,-1.4434,-1.4756,-1.4443,-1.4707,-1.5157,-1.3448,-1.2965,-1.2977,-1.1541,-1.1015,-1.0965,-1.2091,-1.2091,-1.1964,-1.1503,-1.1323,-1.1136,-1.0842,-1.0732,-1.0624,-1.0624,-1.0624,-1.0624,-1.0624,-1.0294,-1.0053,-0.9886,-0.9639,-0.9419,-0.9196,-0.9064,-0.9051,-0.9051,-0.9117,-0.9183,-0.9183,-0.982,-1.004,-0.9873,-1.0782,-1.1026,-1.0654,-1.1172,-1.1199,-1.0854,-1.0517,-1.0822,-1.1596,-1.1503,-1.1998,-1.2892,-1.3286,-1.4003,-1.4785,-1.4782,-1.5057,-1.541,-1.541,-1.541,-1.541,-1.541,-1.541,-1.541,-1.541,-1.4587,-1.3573,-1.3537,-1.2658,-1.1659,-1.1636,-1.1662,-1.1811,-1.2472,-1.312,-1.3976,-1.5297,-1.6623,-1.7611,-1.7859,-1.7725,-1.7312,-1.645,-1.5833,-1.5526,-1.5806,-1.5816,-1.5966,-1.6622,-1.6645,-1.6817,-1.7506,-1.7968,-1.8067,-1.7413,-1.7504,-1.7327,-1.6498,-1.6436,-1.6195,-1.5576,-1.5699,-1.5486,-1.4874,-1.5225,-1.541,-1.541,-1.505,-1.4864,-1.4874,-1.48,-1.4163,-1.3168,-1.3557,-1.3856,-1.4061,-1.4569,-1.4951,-1.5117,-1.4922,-1.4795,-1.4528,-1.3312,-1.2175,-1.1239,-1.122,-1.1038,-1.0813]},{"header":{"parameterUnit":"m.s-1","parameterCategory":1,"la1":30.6,"la2":28.766,"lo1":-90.7593,"lo2":-88.6598,"dy":0.0162,"dx":0.0183,"nx":116,"ny":114,"refTime":"2023-09-09T12:00:00:Z","depth":0,"parameterNumber":3,"parameterNumberName":"V-component_of_WINDS"},"data":[0.0,0.0,0.0,0.0,0.0,0.0,0.0,0.0,0.0,0.0,0.0,0.0,0.0,0.0,0.0,0.0,0.0,0.0,0.0,0.0,0.0,0.0,0.0,0.0,0.0,0.0,0.0,0.0,0.0,0.0,0.0,0.0,0.0,0.0,0.0,0.0,0.0,0.0,0.0,0.0,0.0,0.0,0.0,0.0,0.0,0.0,0.0,0.0,0.0,0.0,0.0,0.0,0.0,0.0,0.0,0.0,0.0,0.0,0.0,0.0,0.0,0.0,0.0,0.0,0.0,0.0,0.0,0.0,0.0,0.0,0.0,0.0,0.0,0.0,0.0,0.0,0.0,0.0,0.0,0.0,0.0,0.0,0.0,0.0,0.0,0.0,0.0,0.0,0.0,0.0,0.0,0.0,0.0,0.0,0.0,0.0,0.0,0.0,0.0,0.0,0.0,0.0,0.0,0.0,0.0,0.0,0.0,0.0,0.0,0.0,0.0,0.0,0.0,0.0,0.0,0.0,0.0,0.0,0.0,0.0,0.0,0.0,0.0,0.0,0.0,0.0,0.0,0.0,0.0,0.0,0.0,0.0,0.0,0.0,0.0,0.0,0.0,0.0,0.0,0.0,0.0,0.0,0.0,0.0,0.0,0.0,0.0,0.0,0.0,0.0,0.0,0.0,0.0,0.0,0.0,0.0,0.0,0.0,0.0,0.0,0.0,0.0,0.0,0.0,0.0,0.0,0.0,0.0,0.0,0.0,0.0,0.0,0.0,0.0,0.0,0.0,0.0,0.0,0.0,0.0,0.0,0.0,0.0,0.0,0.0,0.0,0.0,0.0,0.0,0.0,0.0,0.0,0.0,0.0,0.0,0.0,0.0,0.0,0.0,0.0,0.0,0.0,0.0,0.0,0.0,0.0,0.0,0.0,0.0,0.0,0.0,0.0,0.0,0.0,0.0,0.0,0.0,0.0,0.0,0.0,0.0,0.0,0.0,0.0,0.0,0.0,0.0,0.0,0.0,0.0,0.0,0.0,0.0,0.0,0.0,0.0,0.0,0.0,0.0,0.0,0.0,0.0,0.0,0.0,0.0,0.0,0.0,0.0,0.0,0.0,0.0,0.0,0.0,0.0,0.0,0.0,0.0,0.0,0.0,0.0,0.0,0.0,0.0,0.0,0.0,0.0,0.0,0.0,0.0,0.0,0.0,0.0,0.0,0.0,0.0,0.0,0.0,0.0,0.0,0.0,0.0,0.0,0.0,0.0,0.0,0.0,0.0,0.0,0.0,0.0,0.0,0.0,0.0,0.0,0.0,0.0,0.0,0.0,0.0,0.0,0.0,0.0,0.0,0.0,0.0,0.0,0.0,0.0,0.0,0.0,0.0,0.0,0.0,0.0,0.0,0.0,0.0,0.0,0.0,0.0,0.0,0.0,0.0,0.0,0.0,0.0,0.0,0.0,0.0,0.0,0.0,0.0,0.0,0.0,0.0,0.0,0.0,0.0,0.0,0.0,0.0,0.0,0.0,0.0,0.0,0.0,0.0,0.0,0.0,0.0,0.0,0.0,0.0,0.0,0.0,0.0,0.0,0.0,0.0,0.0,0.0,0.0,0.0,0.0,0.0,0.0,0.0,0.0,0.0,0.0,0.0,0.0,0.0,0.0,0.0,0.0,0.0,0.0,0.0,0.0,0.0,0.0,0.0,0.0,0.0,0.0,0.0,0.0,0.0,0.0,0.0,0.0,0.0,0.0,0.0,0.0,0.0,0.0,0.0,0.0,0.0,0.0,0.0,0.0,0.0,0.0,0.0,0.0,0.0,0.0,0.0,0.0,0.0,0.0,0.0,0.0,0.0,0.0,0.0,0.0,0.0,0.0,0.0,0.0,0.0,0.0,0.0,0.0,0.0,0.0,0.0,0.0,0.0,0.0,0.0,0.0,0.0,0.0,0.0,0.0,0.0,0.0,0.0,0.0,0.0,0.0,0.0,0.0,0.0,0.0,0.0,0.0,0.0,0.0,0.0,0.0,0.0,0.0,0.0,0.0,0.0,0.0,0.0,0.0,0.0,0.0,0.0,0.0,0.0,0.0,0.0,0.0,0.0,0.0,0.0,0.0,0.0,0.0,0.0,0.0,0.0,0.0,0.0,0.0,0.0,0.0,0.0,0.0,0.0,0.0,0.0,0.0,0.0,0.0,0.0,0.0,0.0,0.0,0.0,0.0,0.0,0.0,0.0,0.0,0.0,0.0,0.0,0.0,0.0,0.0,0.0,0.0,0.0,0.0,0.0,0.0,0.0,0.0,0.0,0.0,0.0,0.0,0.0,0.0,0.0,0.0,0.0,0.0,0.0,0.0,0.0,0.0,0.0,0.0,0.0,0.0,0.0,0.0,0.0,0.0,0.0,0.0,0.0,0.0,0.0,0.0,0.0,0.0,0.0,0.0,0.0,0.0,0.0,0.0,0.0,0.0,0.0,0.0,0.0,0.0,0.0,0.0,0.0,0.0,0.0,0.0,0.0,0.0,0.0,0.0,0.0,0.0,0.0,0.0,0.0,0.0,0.0,0.0,0.0,0.0,0.0,0.0,0.0,0.0,0.0,0.0,0.0,0.0,0.0,0.0,0.0,0.0,0.0,0.0,0.0,0.0,0.0,0.0,0.0,0.0,0.0,0.0,0.0,0.0,0.0,0.0,0.0,0.0,0.0,0.0,0.0,0.0,0.0,0.0,0.0,0.0,0.0,0.0,0.0,0.0,0.0,0.0,0.0,0.0,0.0,0.0,0.0,0.0,0.0,0.0,0.0,0.0,0.0,0.0,0.0,0.0,0.0,0.0,0.0,0.0,0.0,0.0,0.0,0.0,0.0,0.0,0.0,0.0,0.0,0.0,0.0,0.0,0.0,0.0,0.0,0.0,0.0,0.0,0.0,0.0,0.0,0.0,0.0,0.0,0.0,0.0,0.0,0.0,0.0,0.0,0.0,0.0,0.0,0.0,0.0,0.0,0.0,0.0,0.0,0.0,0.0,0.0,0.0,0.0,0.0,0.0,0.0,0.0,0.0,0.0,0.0,0.0,0.0,0.0,0.0,0.0,0.0,0.0,0.0,0.0,0.0,0.0,0.0,0.0,0.0,0.0,0.0,0.0,0.0,0.0,0.0,0.0,0.0,0.0,0.0,0.0,0.0,0.0,0.0,0.0,0.0,0.0,0.0,0.0,0.0,0.0,0.0,0.0,0.0,0.0,0.0,0.0,0.0,0.0,0.0,0.0,0.0,0.0,0.0,0.0,0.0,0.0,0.0,0.0,0.0,0.0,0.0,0.0,0.0,0.0,0.0,0.0,0.0,0.0,0.0,0.0,0.0,0.0,0.0,0.0,0.0,0.0,0.0,0.0,0.0,0.0,0.0,0.0,0.0,0.0,0.0,0.0,0.0,0.0,0.0,0.0,0.0,0.0,0.0,0.0,0.0,0.0,0.0,0.0,0.0,0.0,0.0,0.0,0.0,0.0,0.0,0.0,0.0,0.0,0.0,0.0,0.0,0.0,0.0,0.0,0.0,0.0,0.0,0.0,0.0,0.0,0.0,0.0,0.0,0.0,0.0,0.0,0.0,0.0,0.0,0.0,0.0,0.0,0.0,0.0,0.0,0.0,0.0,0.0,0.0,0.0,0.0,0.0,0.0,0.0,0.0,0.0,0.0,0.0,0.0,0.0,0.0,0.0,0.0,0.0,0.0,0.0,0.0,0.0,0.0,0.0,0.0,0.0,0.0,0.0,0.0,0.0,0.0,0.0,0.0,0.0,0.0,0.0,0.0,0.0,0.0,0.0,0.0,0.0,0.0,0.0,0.0,0.0,0.0,0.0,0.0,0.0,0.0,0.0,0.0,0.0,0.0,0.0,0.0,0.0,0.0,0.0,0.0,0.0,0.0,0.0,0.0,0.0,0.0,0.0,0.0,0.0,0.0,0.0,0.0,0.0,0.0,0.0,0.0,0.0,0.0,0.0,0.0,0.0,0.0,0.0,0.0,0.0,0.0,0.0,0.0,0.0,0.0,0.0,0.0,0.0,0.0,0.0,0.0,0.0,0.0,0.0,0.0,0.0,0.0,0.0,0.0,0.0,0.0,0.0,0.0,0.0,0.0,0.0,0.0,0.0,0.0,0.0,0.0,0.0,0.0,0.0,0.0,0.0,0.0,0.0,0.0,0.0,0.0,0.0,0.0,0.0,0.0,0.0,0.0,0.0,0.0,0.0,0.0,0.0,0.0,0.0,0.0,0.0,0.0,0.0,0.0,0.0,0.0,0.0,0.0,0.0,0.0,0.0,0.0,0.0,0.0,0.0,0.0,0.0,0.0,0.0,0.0,0.0,0.0,0.0,0.0,0.0,0.0,0.0,0.0,0.0,0.0,0.0,0.0,0.0,0.0,0.0,0.0,0.0,0.0,0.0,0.0,0.0,0.0,0.0,0.0,0.0,0.0,0.0,0.0,0.0,0.0,0.0,0.0,0.0,0.0,0.0,0.0,0.0,0.0,0.0,0.0,0.0,0.0,0.0,0.0,0.0,0.0,0.0,0.0,0.0,0.0,0.0,0.0,0.0,0.0,0.0,0.0,0.0,0.0,0.0,0.0,0.0,0.0,0.0,0.0,0.0,0.0,0.0,0.0,0.0,0.0,0.0,0.0,0.0,0.0,0.0,0.0,0.0,0.0,0.0,0.0,0.0,0.0,0.0,0.0,0.0,0.0,0.0,0.0,0.0,0.0,0.0,0.0,0.0,0.0,0.0,0.0,0.0,0.0,0.0,0.0,0.0,0.0,0.0,0.0,0.0,0.0,0.0,0.0,0.0,0.0,0.0,0.0,0.0,0.0,0.0,0.0,0.0,0.0,0.0,0.0,0.0,0.0,0.0,0.0,0.0,0.0,0.0,0.0,0.0,0.0,0.0,0.0,0.0,0.0,0.0,0.0,0.0,0.0,0.0,0.0,0.0,0.0,0.0,0.0,0.0,0.0,0.0,0.0,0.0,0.0,0.0,0.0,0.0,0.0,0.0,0.0,0.0,0.0,0.0,0.0,0.0,0.0,0.0,0.0,0.0,0.0,0.0,0.0,0.0,0.0,0.0,0.0,0.0,0.0,0.0,0.0,0.0,0.0,0.0,0.0,0.0,0.0,0.0,0.0,0.0,0.0,0.0,0.0,0.0,0.0,0.0,0.0,0.0,0.0,0.0,0.0,0.0,0.0,0.0,0.0,0.0,0.0,0.0,0.0,0.0,0.0,0.0,0.0,0.0,0.0,0.0,0.0,0.0,0.0,0.0,0.0,0.0,0.0,0.0,0.0,0.0,0.0,0.0,0.0,0.0,0.0,0.0,0.0,0.0,0.0,0.0,0.0,0.0,0.0,0.0,0.0,0.0,0.0,0.0,0.0,0.0,0.0,0.0,0.0,0.0,0.0,0.0,0.0,0.0,0.0,0.0,0.0,0.0,0.0,0.0,0.0,0.0,0.0,0.0,0.0,0.0,0.0,0.0,0.0,0.0,0.0,0.0,0.0,0.0,0.0,0.0,0.0,0.0,0.0,0.0,0.0,0.0,0.0,0.0,0.0,0.0,0.0,0.0,0.0,0.0,0.0,0.0,0.0,0.0,0.0,0.0,0.0,0.0,0.0,0.0,0.0,0.0,0.0,0.0,0.0,0.0,0.0,0.0,0.0,0.0,0.0,0.0,0.0,0.0,0.0,0.0,0.0,0.0,0.0,0.0,0.0,0.0,0.0,0.0,0.0,0.0,0.0,0.0,0.0,0.0,0.0,0.0,0.0,0.0,0.0,0.0,0.0,0.0,0.0,0.0,0.0,0.0,0.0,0.0,0.0,0.0,0.0,0.0,0.0,0.0,0.0,0.0,0.0,0.0,0.0,0.0,0.0,0.0,0.0,0.0,0.0,0.0,0.0,0.0,0.0,0.0,0.0,0.0,0.0,0.0,0.0,0.0,0.0,0.0,0.0,0.0,0.0,0.0,0.0,0.0,0.0,0.0,0.0,0.0,0.0,0.0,0.0,0.0,0.0,0.0,0.0,0.0,0.0,0.0,0.0,0.0,0.0,0.0,0.0,0.0,0.0,0.0,1.3639,0.0,0.0,0.0,0.0,0.0,0.0,0.0,0.0,0.0,0.0,0.0,0.0,0.0,0.0,0.0,0.0,0.0,0.0,0.0,0.0,0.0,0.0,0.0,0.0,0.0,0.0,0.0,0.0,0.0,0.0,0.0,0.0,0.0,0.0,0.0,0.0,0.0,0.0,0.0,0.8664,0.8524,0.8383,0.8671,0.8731,0.8655,0.0,0.0,0.0,0.0,0.0,0.0,0.0,0.0,0.0,0.0,0.0,0.0,0.0,0.0,0.0,0.0,0.0,0.0,0.0,0.0,0.0,0.0,0.0,0.0,0.0,0.0,0.0,0.0,0.0,0.0,0.0,0.0,0.0,0.0,0.0,0.0,0.0,0.0,0.0,0.0,0.0,0.0,0.0,0.0,0.0,0.0,0.0,0.0,0.0,0.0,0.0,0.0,0.0,0.0,0.0,0.0,0.0,0.0,0.0,0.0,0.0,0.0,0.0,0.0,0.0,0.0,0.0,0.0,0.0,0.0,0.0,1.4987,0.0,0.0,0.0,0.0,0.0,0.0,0.0,0.0,0.0,0.0,0.0,0.0,0.0,0.0,0.0,0.0,0.0,0.0,0.0,0.0,0.0,0.0,0.0,0.0,0.7235,0.6642,0.6696,0.7074,0.0,0.0,0.0,0.0,0.0,0.0,0.0,0.0,0.0,0.8731,0.8643,0.8669,0.883,0.9081,0.9169,0.924,1.0324,0.0,0.0,0.0,0.0,0.0,0.0,0.0,0.0,0.0,0.0,0.0,0.0,0.0,0.0,0.0,0.0,0.0,0.0,0.0,0.0,0.0,0.0,0.0,0.0,0.0,0.0,0.0,0.0,0.0,0.0,0.0,0.0,0.0,0.0,0.0,0.0,0.0,0.0,0.0,0.0,0.0,0.0,0.0,0.0,0.0,0.0,0.0,0.0,0.0,0.0,0.0,0.0,0.0,0.0,0.0,0.0,0.0,0.0,0.0,0.0,0.0,0.0,0.0,1.7096,1.768,1.8432,1.8579,1.8309,1.7654,1.6998,1.6241,1.5531,1.6088,0.0,0.0,0.0,0.0,0.0,0.0,0.0,0.0,0.0,0.0,0.0,0.0,0.0,0.0,0.0,0.0,0.0,0.0,0.0,0.0,0.0,0.675,0.6696,0.6588,0.7182,0.7616,0.0,0.0,0.0,0.0,0.0,0.0,0.0,0.8804,0.8684,0.843,0.9111,0.9771,1.0394,1.0564,1.1246,1.2377,1.1278,1.1532,1.2824,0.0,0.0,0.0,0.0,0.0,0.0,0.0,0.0,0.0,0.0,0.0,0.0,0.0,0.0,0.0,0.0,0.0,0.0,0.0,0.0,0.0,0.0,0.0,0.0,0.0,0.0,0.0,0.0,0.0,0.0,0.0,0.0,0.0,0.0,0.0,0.0,0.0,0.0,0.0,0.0,0.0,0.8763,0.8609,0.0,0.0,0.0,0.0,0.0,0.0,0.0,0.0,0.0,0.0,0.0,0.0,0.0,1.1885,1.3353,1.5504,1.7082,1.8009,1.9861,2.039,1.9792,2.0578,2.0306,1.9214,1.9088,0.0,1.62,1.6244,0.0,0.0,0.0,0.0,0.0,0.0,0.0,0.0,0.0,0.0,0.0,0.0,0.0,0.0,0.0,0.0,0.0,0.0,0.0,0.0,0.0,0.5982,0.5982,0.5982,0.6585,0.7191,0.7687,0.8331,0.0,0.0,0.0,0.0,0.8804,0.8947,0.899,0.8856,1.0304,1.0993,1.0973,1.1855,1.2848,1.3758,1.3111,1.2948,1.3123,1.3418,0.0,0.0,0.0,0.0,0.0,0.0,0.0,0.0,0.0,0.0,0.0,0.0,0.0,0.0,0.0,0.0,0.0,0.0,0.0,0.0,0.0,0.0,0.0,0.0,0.0,0.0,0.0,0.0,0.0,0.0,0.0,0.0,0.0,0.0,0.0,0.0,0.0,0.0,0.0,0.9517,0.982,1.0282,0.9888,0.9813,0.0,0.0,0.0,0.0,0.0,0.0,0.0,0.0,0.0,1.2323,1.3967,1.5286,1.6299,1.8295,1.9663,2.045,2.1707,2.2358,2.2509,2.2895,2.2519,2.1518,2.1518,2.0525,1.8855,1.7956,1.7255,1.6707,0.0,0.0,0.0,0.0,1.2538,1.1122,0.0,0.0,0.0,0.0,0.0,0.0,0.0,0.0,0.0,0.0,0.0,0.0,0.5274,0.5503,0.5708,0.5801,0.6496,0.7333,0.8148,0.849,0.0,0.0,0.0,0.8804,0.8804,0.8994,0.9293,0.9709,1.1404,1.2307,1.2486,1.368,1.4675,1.548,1.5221,1.4662,1.3867,1.4051,1.3838,1.334,0.0,0.0,0.0,0.0,0.0,0.0,0.0,0.0,0.0,0.0,0.0,0.0,0.0,0.0,0.0,0.0,0.0,0.0,0.0,0.0,0.0,0.0,0.0,0.0,0.0,0.0,0.0,0.0,0.0,0.0,0.0,0.0,0.0,0.0,0.0,0.0,0.0,1.0355,1.0833,1.1379,1.093,1.087,0.0,0.0,0.0,0.0,0.0,0.0,1.2652,1.3375,1.4355,1.5583,1.7486,1.8733,1.9252,2.1194,2.2501,2.3063,2.3833,2.4512,2.5108,2.5295,2.4707,2.3641,2.3911,2.3312,2.1919,1.9913,1.8694,1.7972,1.7255,1.6087,1.4782,1.4599,1.3718,1.2498,0.0,0.0,0.0,0.0,0.0,0.0,0.0,0.0,0.0,0.0,0.0,0.4365,0.4704,0.5588,0.6303,0.6617,0.7767,0.8755,0.9451,0.9064,0.9088,0.971,0.9159,0.8804,0.8804,0.8791,0.9524,1.0992,1.2184,1.3874,1.6026,1.6319,1.7144,1.8327,1.7463,1.6652,1.5889,1.4658,1.4346,1.458,1.3369,0.0,0.0,0.0,0.0,0.0,0.0,0.0,0.0,0.0,0.0,0.0,0.0,0.0,0.0,0.0,0.0,0.0,0.0,0.0,0.0,0.0,0.0,0.0,0.0,0.0,0.0,0.0,0.0,0.0,0.0,0.0,0.0,0.0,0.0,0.0,0.0,0.0,0.0,1.0538,1.1031,0.0,0.0,0.0,0.0,1.3322,1.4278,1.519,1.6014,1.6556,1.7493,1.893,2.0716,2.1684,2.1643,2.4322,2.5567,2.5447,2.6809,2.7334,2.709,2.7635,2.6871,2.5157,2.6172,2.5984,2.476,2.1669,1.975,1.8702,1.8371,1.7624,1.6716,1.6309,1.5234,1.3755,0.0,0.0,0.0,0.0,0.0,0.0,0.0,0.0,0.4865,0.5023,0.5023,0.5211,0.5738,0.6538,0.742,0.8439,0.9327,0.9967,1.0286,1.0129,0.9937,0.9784,0.9159,0.8956,0.9316,1.0761,1.166,1.1928,1.421,1.5789,1.6661,1.7492,1.827,1.9062,1.8682,1.8264,1.7637,1.6348,1.541,1.4717,1.3984,1.3525,0.0,0.0,0.0,0.0,0.0,0.0,0.0,0.0,0.0,0.0,0.0,0.0,0.0,0.0,0.0,0.0,0.0,0.0,0.0,0.0,0.0,0.0,0.0,0.0,0.0,0.0,0.0,0.0,0.0,0.0,0.0,0.0,0.0,0.0,0.0,0.0,0.0,1.319,1.3942,0.0,1.472,1.519,1.5914,1.702,1.7055,1.7668,1.9196,2.0258,2.1358,2.2439,2.4705,2.5954,2.6062,2.8079,2.8798,2.8174,2.9016,2.9211,2.8815,2.9045,2.8495,2.7409,2.7786,2.7452,2.6512,2.5227,2.3626,2.1927,2.102,1.9573,1.7933,1.7588,1.6638,1.5341,0.0,0.0,0.0,0.0,0.0,0.0,0.0,0.0,0.5311,0.5668,0.5937,0.6289,0.6759,0.7787,0.892,1.0378,1.0728,1.1135,1.1787,1.1152,1.0639,1.0482,0.9971,0.9932,1.0409,1.2189,1.3287,1.3502,1.5688,1.7054,1.7656,1.8572,1.9219,1.9502,1.9502,1.9258,1.8799,1.7959,1.6758,1.5371,1.4437,1.4141,1.4053,0.0,0.0,0.0,0.0,0.0,0.0,0.0,0.0,0.0,0.0,0.0,0.0,0.0,0.0,0.0,0.0,0.0,0.0,0.0,0.0,0.0,0.0,0.0,0.0,0.0,0.0,0.0,0.0,0.0,0.0,0.0,0.0,0.0,0.0,0.0,1.4434,1.5585,1.6495,1.7199,1.7655,1.7991,1.8701,1.9897,1.9949,2.0856,2.3053,2.3964,2.5135,2.6705,2.8367,2.9142,2.892,3.0379,3.056,2.9498,2.9982,3.0052,2.9756,2.9569,2.9027,2.8275,2.8356,2.7927,2.7168,2.7297,2.6333,2.4676,2.3546,2.1896,2.015,1.9876,1.8952,1.7684,0.0,0.0,0.0,0.0,0.0,0.0,0.0,0.6583,0.6503,0.6216,0.6851,0.7428,0.7752,0.9256,1.0827,1.2349,1.1976,1.2312,1.3888,1.2001,1.1124,1.1801,1.1653,1.1726,1.2136,1.2915,1.4082,1.5744,1.6505,1.7675,1.9316,1.9727,1.9922,1.9932,1.9951,1.9727,1.9346,1.9346,1.8389,1.6719,1.4895,1.4717,1.5254,0.0,0.0,0.0,0.0,0.0,0.0,0.0,0.0,0.0,0.0,0.0,0.0,0.0,0.0,0.0,0.0,0.0,0.0,0.0,0.0,0.0,0.0,0.0,0.0,0.0,0.0,0.0,0.0,0.0,0.0,0.0,0.0,0.0,1.2912,1.4164,1.5576,1.7391,1.839,1.9199,1.9757,2.0435,2.1126,2.1915,2.2963,2.4747,2.7614,2.761,2.8795,3.1523,3.1539,3.1064,3.0152,3.1085,3.0844,2.942,2.9684,2.9845,2.9855,2.9245,2.8473,2.7629,2.7874,2.7515,2.681,2.7657,2.7481,2.6612,2.5687,2.4523,2.3309,2.3115,2.2181,2.0641,0.0,0.0,0.0,0.0,0.0,0.0,0.0,0.573,0.5905,0.6164,0.7384,0.861,0.964,1.1168,1.2616,1.3793,1.3541,1.3425,1.3575,1.2281,1.1669,1.2029,1.242,1.2863,1.3319,1.4889,1.6002,1.6474,1.7562,1.8682,1.9746,1.9863,2.0088,2.04,2.0723,2.081,2.0703,2.0703,2.043,1.9795,1.7441,1.625,1.5762,0.0,0.0,0.0,0.0,0.0,0.0,0.0,0.0,0.0,0.0,0.0,0.0,0.0,0.0,0.0,0.0,0.0,0.0,0.0,0.0,0.0,0.0,0.0,0.0,0.0,0.0,0.0,0.0,0.0,0.0,0.0,0.0,1.296,1.3518,1.4762,1.6581,1.9065,2.0971,2.2237,2.2627,2.3975,2.5118,2.5861,2.6226,2.7296,2.9312,2.9996,3.0804,3.1882,3.2839,3.3309,3.3196,3.3217,3.2792,3.1899,3.0769,2.9916,2.9292,2.8538,2.8001,2.7686,2.7908,2.7791,2.7458,2.7887,2.7522,2.6648,2.6264,2.5376,2.4271,2.4036,2.3029,2.141,0.0,0.0,0.0,0.0,0.0,0.0,0.0,0.6177,0.6617,0.7189,0.8673,1.0068,1.0908,1.2195,1.3481,1.4631,1.3943,1.3504,1.3682,1.3097,1.2881,1.3202,1.4116,1.48,1.5286,1.6569,1.7321,1.7558,1.8479,1.9258,1.9922,2.0098,2.042,2.0859,2.1123,2.1338,2.1504,2.196,2.1879,2.1357,2.0166,1.8933,1.7519,1.6133,1.5664,1.5595,1.4393,1.4654,1.5255,1.3366,0.0,0.0,0.0,0.0,0.0,0.0,0.0,0.0,0.0,0.0,0.0,0.0,0.0,0.0,0.0,0.0,0.0,0.0,0.0,0.0,0.0,0.0,0.0,0.0,1.418,1.5974,1.7843,1.8006,1.9127,2.241,2.4434,2.5746,2.6252,2.7211,2.7971,2.8369,2.8493,2.9384,3.1233,3.1714,3.2367,3.3444,3.398,3.4071,3.3654,3.3442,3.2595,3.1097,3.0108,2.9252,2.8527,2.7615,2.7182,2.7142,2.6893,2.6699,2.6598,2.6842,2.6606,0.0,0.0,0.0,0.0,0.0,2.368,2.2371,0.0,0.0,0.0,0.0,0.0,0.0,0.0,0.723,0.7984,0.845,1.0149,1.1411,1.1652,1.265,1.3777,1.5088,1.3745,1.3195,1.4024,1.4233,1.4517,1.5049,1.623,1.708,1.7519,1.7939,1.834,1.8711,1.9141,1.96,2.0068,2.0459,2.0879,2.1309,2.1357,2.1673,2.2192,2.3246,2.3196,2.2469,2.3018,2.1937,1.9775,1.7783,1.7461,1.791,1.6602,1.6417,1.6592,1.4919,0.0,0.0,0.0,0.0,0.0,0.0,0.0,0.0,0.0,0.0,0.0,0.0,0.0,0.0,0.0,0.0,0.0,0.0,0.0,0.0,0.0,0.0,0.0,0.0,1.8123,1.9975,2.4025,2.3217,2.3401,2.6775,2.8228,2.9302,3.0156,3.0179,3.0122,3.0106,3.0217,3.115,3.3119,0.0,0.0,0.0,0.0,3.3992,3.2771,3.2591,3.1274,2.8869,2.8589,2.8231,2.7785,2.6718,2.6329,2.6406,2.5646,2.5244,2.5095,2.5294,2.533,2.5351,2.6282,2.6128,2.5343,2.4845,2.4208,2.3493,0.0,0.0,0.0,0.0,0.0,0.0,0.0,0.7304,0.8247,0.7452,0.9844,1.1584,1.1492,1.2888,1.4332,1.5479,1.4512,1.3917,1.4077,1.4932,1.583,1.688,1.7441,1.7959,1.8389,1.8818,1.9082,1.916,1.959,2.0205,2.0986,2.1064,2.1338,2.1777,2.2109,2.2788,2.3774,2.4284,2.4943,2.5585,2.5333,2.3303,2.0322,1.9209,1.8682,1.835,1.7061,1.7547,1.8512,1.6764,1.677,1.7346,1.5974,0.0,0.0,0.0,0.0,0.0,0.0,0.0,0.0,0.0,0.0,0.0,0.0,0.0,0.0,0.0,0.0,0.0,0.0,0.0,0.0,2.0919,2.2652,2.4748,2.7433,2.9343,3.0532,3.0635,3.0927,3.1653,3.2986,3.2476,3.2378,3.3166,3.248,3.2574,3.3907,3.4091,3.436,3.4836,3.4995,3.462,3.3747,3.2507,3.1404,3.0429,0.0,0.0,2.7841,2.6945,2.6628,2.6793,2.6789,2.6343,2.5583,2.5771,2.5557,2.5099,2.5506,2.5556,2.5379,2.5099,2.4899,2.4607,0.0,0.0,0.0,0.0,0.0,0.0,0.0,0.7281,0.8023,0.7881,0.9768,1.1251,1.1558,1.2608,1.3736,1.4956,1.4633,1.4469,1.4578,1.5704,1.6748,1.7627,1.8506,1.8965,1.8965,1.9385,1.9502,1.9287,1.9932,2.0459,2.0908,2.1357,2.168,2.1904,2.2882,2.3762,2.4629,2.5926,2.6449,2.6543,2.6841,2.5563,2.3488,2.2558,2.1914,2.1271,2.0202,2.0325,2.0728,1.9067,1.9105,1.9525,1.8226,1.7223,1.6353,0.0,0.0,0.0,0.0,0.0,0.0,0.0,0.0,0.0,0.0,0.0,0.0,0.0,0.0,2.283,0.0,0.0,2.5078,2.7388,2.8792,3.0405,3.2728,3.4229,3.4761,3.3801,3.4133,3.455,3.4932,3.4672,3.435,3.3973,3.3521,3.3451,3.388,3.3964,3.4009,3.4013,3.4237,3.373,3.2421,3.1642,3.0313,2.8494,2.7278,2.6614,2.6431,2.5883,2.6,2.6611,2.671,2.634,2.5669,2.5474,2.5437,2.546,2.5199,2.5211,2.539,2.5292,2.5196,2.4976,0.0,0.0,0.0,0.0,0.0,0.0,0.0,0.6784,0.7573,0.8307,0.9447,1.0462,1.1103,1.1747,1.2676,1.3895,1.454,1.4964,1.5173,1.654,1.7605,1.8193,1.9404,1.9844,1.9424,1.9824,1.9948,1.9889,2.0466,2.0928,2.1342,2.1752,2.2217,2.2546,2.3764,2.4775,2.5535,2.7348,2.7695,2.7221,2.8108,2.7808,2.6887,2.6058,2.5161,2.4161,2.295,2.2409,2.2073,2.089,2.0759,2.0928,2.0127,1.9358,1.846,1.7118,1.6145,0.0,0.0,0.0,0.0,0.0,0.0,0.0,0.0,0.0,2.1872,2.4733,2.5894,2.7238,2.9881,2.9831,3.0363,3.3533,3.447,3.5516,3.7545,3.7906,3.7666,3.6862,3.706,3.7063,3.6543,3.6289,3.5567,3.4081,3.3782,3.3549,3.3246,3.316,3.3028,3.2877,3.297,3.2319,3.0845,3.0688,2.9298,2.6683,2.6399,2.5963,2.5322,2.5148,2.555,2.6462,2.6472,2.634,2.6061,2.5295,2.5355,2.5866,2.5096,2.4998,2.5297,2.5318,2.5233,2.5059,0.0,0.0,0.0,0.0,0.0,0.0,0.0,0.0,0.0,0.7224,0.8437,0.9194,0.899,1.0153,1.1379,1.2371,1.4327,1.546,1.5385,1.7305,1.8659,1.9144,2.001,2.0293,1.9853,2.0273,2.0988,2.1891,2.137,2.209,2.3813,2.2878,2.3128,2.4471,2.4693,2.5815,2.7763,2.8004,2.8609,2.9456,2.9546,2.9235,2.856,2.8027,2.6304,2.3951,2.2044,2.1185,2.0895,2.0783,2.1008,2.1396,2.1754,2.1133,2.031,2.0597,0.0,1.6779,1.5463,1.1559,0.0,1.3441,1.7797,2.2076,0.0,0.0,2.8318,3.0076,3.1392,3.2669,3.4321,3.4408,3.4666,3.6026,3.7267,3.8365,3.9222,3.9716,4.0033,4.0223,3.8855,3.7974,3.8194,3.6512,3.5168,3.455,3.3299,3.2381,3.1931,3.1794,3.1613,3.1336,3.1339,3.1219,3.0904,3.0241,2.9572,2.8817,2.7602,2.6846,2.6518,2.6371,2.6541,2.7011,2.7074,2.7282,2.7466,2.6135,2.5649,2.5666,2.5035,2.4832,2.4879,2.4999,2.5109,2.5155,0.0,0.0,0.0,0.0,0.0,0.0,0.0,0.0,0.0,0.0,0.5561,0.6717,0.7406,1.0162,1.2278,1.3026,1.4631,1.5715,1.6058,1.791,1.9203,1.9715,2.051,2.0897,2.0788,2.0639,2.0661,2.0838,2.171,2.2333,2.2919,2.3889,2.4555,2.4989,2.6181,2.7256,2.8176,2.8767,2.9365,2.9792,2.9792,2.9252,2.8348,2.7882,2.6194,2.3949,2.3412,2.2662,0.0,2.2429,2.2681,2.2903,2.3141,2.2717,2.1992,2.1003,2.1021,0.0,1.7103,0.0,0.0,0.0,2.1377,2.6317,2.8407,2.9181,3.01,3.2301,3.3055,3.3744,3.5067,3.5486,3.5995,0.0,3.7941,3.8698,3.949,3.8727,3.7891,3.7418,3.6352,3.5901,3.6502,3.524,3.3802,3.2439,3.1684,3.1095,3.0632,3.0009,2.9748,2.9913,2.9626,2.9475,2.9516,2.9182,2.8391,2.7121,2.6514,2.5932,2.5346,2.5291,2.5815,2.6764,2.7068,2.745,2.7749,2.6409,2.6158,2.645,2.5254,2.4931,2.5142,2.5075,2.5092,2.5125,0.0,0.0,0.0,0.0,0.0,0.0,0.0,0.0,0.0,0.0,0.2682,0.4666,0.6798,0.9612,1.1752,1.276,1.3839,1.481,1.5574,1.7433,1.8736,1.9339,2.0284,2.0814,2.0999,2.0705,2.0613,2.0711,2.203,2.278,2.2885,2.4546,2.525,2.5116,2.6995,2.7882,2.8052,2.9303,2.9691,2.9541,2.939,2.8547,2.7322,2.6491,2.4917,2.3284,2.3811,2.3259,2.2315,2.2842,2.3158,2.3366,2.3665,2.3652,2.3289,2.2085,2.3081,2.3512,1.8684,0.0,0.0,1.9151,2.336,2.7995,2.9035,2.971,3.0752,3.2984,3.2932,3.2889,3.4112,3.447,3.495,3.6081,3.684,3.7555,3.8331,3.6946,3.5526,3.4566,3.3365,3.2769,3.3188,3.3124,3.2179,3.0118,2.9766,2.9403,2.8827,2.7989,2.772,2.8263,2.7765,2.7614,2.7902,2.8079,2.7509,2.6093,2.5937,2.5484,2.4694,2.4493,2.5102,2.632,2.6796,2.725,2.7606,2.6595,2.6552,2.6936,2.5637,2.5172,2.5273,2.5574,2.5418,2.5084,0.0,0.0,0.0,0.0,0.0,0.0,0.0,0.0,0.0,0.0,0.0,0.0,0.0,0.7785,0.8534,1.0531,1.1255,1.205,1.3122,1.537,1.6935,1.7475,1.8839,1.9778,1.9968,2.0419,2.1288,2.2776,2.272,2.3498,2.4882,2.4826,2.4926,2.5105,2.6621,2.7424,2.7627,2.9142,2.9465,2.89,2.8373,2.7189,2.5519,2.3774,2.2454,2.1561,2.2215,2.1528,2.0362,2.0913,2.1436,2.2043,2.3106,2.3613,0.0,2.5058,2.5298,2.4297,0.0,0.0,2.3206,2.2058,2.4436,2.762,2.9936,3.0567,3.1026,3.2269,3.1186,3.0404,3.1671,3.1289,3.1122,3.2211,3.3735,3.4949,3.5386,3.4773,3.4013,3.3322,3.0836,2.8917,0.0,3.018,3.0462,2.8249,2.7738,2.7166,2.6354,2.5771,2.5716,2.6268,2.5758,2.5767,2.6361,2.7077,2.738,2.7335,2.6765,2.6167,2.5541,2.4771,2.4909,2.5851,2.632,2.6749,2.7105,2.6782,2.6702,2.6676,2.6175,2.5505,2.5023,2.6558,2.6199,2.5045,0.0,0.0,0.0,0.0,0.0,0.0,0.0,0.0,0.0,0.0,0.0,0.0,0.0,0.0,0.0,0.0,0.887,1.0824,1.356,1.5405,1.6589,1.7071,1.8422,1.9147,1.9163,1.8974,1.9353,2.0383,2.0523,2.1363,2.2842,2.3642,2.4038,2.4108,2.6275,2.698,2.661,2.7656,2.8009,2.772,2.6824,2.5855,2.4762,2.3334,2.2481,2.1934,0.0,2.1108,2.0866,2.162,2.1781,2.1768,2.2466,2.2963,2.3617,2.5236,2.4245,2.2388,2.1292,0.0,2.302,2.1399,2.2927,2.4964,2.5697,2.5983,2.6335,2.7115,2.6248,2.5453,2.5652,2.5565,2.5763,2.6909,2.8591,3.032,3.1742,3.1586,3.0603,2.8581,2.7498,0.0,0.0,0.0,0.0,2.6347,2.6154,2.5897,2.5467,2.4945,2.4891,2.548,2.4932,2.4993,2.5727,2.5943,2.5692,2.4867,2.3813,2.3455,2.3652,2.3773,2.4205,2.4909,2.5688,2.6165,2.6387,2.6497,2.6926,2.7409,2.6448,2.6371,2.6874,2.7456,2.7176,2.6587,0.0,0.0,0.0,0.0,0.0,0.0,0.0,0.0,0.0,0.0,0.0,0.0,0.0,0.0,0.0,0.0,0.0,0.8145,1.0485,1.3226,1.4804,1.4861,1.6401,1.7295,1.7347,1.7153,1.7382,1.8061,1.8562,1.9293,2.0273,2.1616,2.2083,2.1851,2.4157,2.4792,2.4238,2.554,2.5813,2.5408,2.4645,2.3865,2.3013,2.159,2.075,0.0,1.89,1.8195,1.8305,2.0929,2.2108,2.2399,2.2089,2.2391,2.2669,2.1718,2.1198,2.0603,1.9077,1.9435,2.0012,1.8653,1.9089,1.9853,1.9627,1.9657,1.9775,2.007,1.9996,1.9865,1.9743,2.0049,2.0741,2.2206,2.3655,2.5298,2.7345,2.7324,2.6537,2.5061,2.4426,2.3833,0.0,0.0,0.0,2.5021,2.5154,2.5092,2.4728,2.4209,2.4157,2.4667,2.4183,2.4105,2.4553,2.457,2.4173,2.3404,2.2899,2.2665,2.2701,2.3241,2.3613,2.3834,2.4854,2.5347,2.5486,2.6075,2.6754,2.7365,2.6929,2.7255,2.8077,2.8658,2.8743,2.8635,0.0,0.0,0.0,0.0,0.0,0.0,0.0,0.0,0.0,0.0,0.0,0.0,0.0,0.0,0.0,0.0,0.0,0.0,0.4408,0.9017,1.1544,1.1146,1.3165,1.4389,1.4629,1.5068,1.5561,1.6074,1.6938,1.7422,1.7487,1.8834,1.9025,1.834,2.0322,2.0962,2.0759,2.274,2.2946,2.1951,2.184,2.1212,2.0162,1.8469,1.7253,1.6204,1.4422,0.0,0.0,0.0,0.0,0.0,0.0,2.1591,2.1195,1.5446,1.6546,1.8511,1.3387,1.3228,1.4345,1.3638,1.3039,1.2481,1.2087,1.1912,1.175,1.1673,1.2808,1.3946,0.0,0.0,1.6193,1.8182,1.9056,2.0262,2.2493,2.2298,2.2151,0.0,0.0,0.0,0.0,0.0,0.0,2.4178,0.0,2.4741,2.4016,2.3464,2.3414,2.3941,2.3427,2.3078,2.3078,2.3025,2.3012,2.3099,2.3879,2.3653,2.2592,2.3152,2.3159,2.2737,2.3849,2.4348,2.443,2.5486,2.616,2.6622,2.7517,2.8119,2.8714,3.012,3.0823,3.1002,0.0,0.0,0.0,0.0,0.0,0.0,0.0,0.0,0.0,0.0,0.0,0.0,0.0,0.0,0.0,0.0,0.0,0.0,0.3124,0.6107,0.8558,1.0322,1.1949,1.2673,1.2295,1.309,1.3861,1.4542,1.4254,1.4641,1.5747,1.5953,1.5658,1.5112,1.7452,1.7841,1.688,1.8457,1.9503,1.9956,1.8586,1.7598,1.6818,1.4825,1.3077,1.159,0.0,0.0,0.0,0.0,0.0,0.0,0.0,1.6639,1.8342,1.6351,1.3314,1.035,0.914,0.8302,0.7414,0.5793,0.5167,0.4823,0.3939,0.4225,0.5098,0.6757,0.8159,0.9636,0.0,0.0,0.0,1.4795,1.6029,0.0,1.8858,2.056,0.0,1.8961,0.0,2.0984,2.0021,2.1673,0.0,0.0,2.4029,2.3976,2.3376,2.3627,2.3653,2.3364,2.3153,2.3078,2.3078,2.2698,2.2468,2.2477,2.2296,2.2333,2.2445,2.2213,2.2269,2.263,2.3004,2.3362,2.3803,2.4521,2.5788,2.7316,2.7296,2.8494,3.0297,3.1165,3.1544,3.1728,0.0,0.0,0.0,0.0,0.0,0.0,0.0,0.0,0.0,0.0,0.0,0.0,0.0,0.0,0.0,0.0,0.0,0.0,0.0,0.2532,0.5014,0.7114,0.9596,1.0724,1.0242,1.0758,1.1167,1.1499,1.1148,1.1421,1.231,1.2855,1.1736,0.9291,1.0331,1.0303,0.9489,1.047,1.1137,0.0,0.0,1.1263,1.1299,1.0249,0.889,0.0,0.0,0.0,0.0,0.0,0.0,2.2876,1.8728,1.6634,1.4964,1.125,0.0,0.5023,0.3082,0.1865,0.0939,-0.0094,-0.0275,-0.0354,-0.0752,-0.0078,0.1004,0.2302,0.4451,0.0,0.0,0.0,0.0,0.0,0.0,0.0,1.5678,1.788,1.8971,0.0,1.9538,0.0,2.0648,2.1958,2.2935,0.0,2.398,2.4117,2.354,2.3577,2.3477,2.3078,2.3078,2.2944,2.2567,2.2645,2.2483,2.2114,2.2172,2.2242,2.2369,2.2361,2.259,2.305,0.0,2.3827,2.4462,2.5032,2.627,2.7734,2.7727,2.9265,3.1523,3.1791,3.2392,3.316,0.0,0.0,0.0,0.0,0.0,0.0,0.0,0.0,0.0,0.0,0.0,0.0,0.0,0.0,0.0,0.0,0.0,0.0,0.0,0.0,0.0,0.3198,0.6753,0.8561,0.8351,0.8568,0.8351,0.7625,0.7617,0.7586,0.76,0.8905,0.7033,0.2656,0.1958,0.1477,0.1219,0.1691,0.1794,0.1748,0.3202,0.4285,0.5049,0.0,0.0,0.0,0.0,0.0,0.0,0.0,0.7224,1.87,2.0644,1.7463,1.1497,0.4072,0.1698,0.0618,-0.3534,-0.4825,-0.4897,-0.4551,-0.429,-0.3896,-0.3405,-0.2405,-0.1544,-0.1361,0.0,0.4369,0.5103,0.7056,0.9013,1.036,0.0,1.1654,1.3306,1.5059,1.6732,1.8132,1.9136,2.0352,2.2074,2.2446,2.2767,2.3096,2.399,2.431,2.3829,2.3468,2.3206,2.3056,2.3117,2.2837,2.2075,2.2837,2.2837,2.2063,2.2763,2.2887,2.2422,2.3041,2.3392,2.3595,2.4262,2.4888,2.5553,2.6168,2.7042,2.8001,2.8427,3.0118,3.2299,3.1983,3.2955,3.4407,0.0,0.0,0.0,0.0,0.0,0.0,0.0,0.0,0.0,0.0,-0.3259,-0.297,0.0,0.0,0.0,0.0,0.0,0.0,0.0,0.0,0.0,0.0,0.4644,0.614,0.6381,0.8164,0.7491,0.4157,0.3353,0.2507,0.1667,0.1605,0.0632,-0.1087,-0.1275,-0.1637,-0.2018,-0.1117,0.023,0.1756,0.1615,0.1337,0.0929,0.0,0.0,0.0,0.0,0.0,0.0,0.0,-0.1782,0.9239,0.9097,0.957,0.9007,0.2964,-0.2168,-0.6245,-0.7945,-0.933,-0.9965,-0.8547,-0.7912,-0.7245,-0.5635,-0.4834,0.0,0.0,0.0,0.2302,0.42,0.6406,0.0,0.9323,0.0,0.0,0.0,0.0,1.48,0.0,0.0,0.0,0.0,0.0,0.0,0.0,0.0,2.2959,2.2762,2.3532,2.3556,2.2659,2.338,2.3553,2.2896,2.3541,2.3541,2.2884,2.3005,2.3027,2.2975,2.328,2.3384,2.3485,2.4295,0.0,2.4922,2.6031,2.7229,2.8323,2.8408,2.9889,3.1907,3.1363,3.1923,3.3038,0.0,0.0,0.0,0.0,0.0,0.0,0.0,-0.3686,-0.3941,-0.3627,-0.318,-0.3169,-0.3823,-0.4078,-0.4395,0.0,0.0,0.0,0.0,0.0,0.0,0.0,0.0,0.0,0.0,0.5174,0.0,0.0,0.0,0.0,0.0,0.0,0.0,0.0,0.0,-0.8485,-0.8439,-0.7814,-0.676,-0.5499,-0.4975,-0.4683,0.0,0.0,0.0,0.0,0.0,0.0,0.0,0.0,-0.5149,0.226,0.2512,0.3687,0.4115,-0.0081,-0.5152,-0.9622,-1.0297,-1.1517,-1.2128,-1.0389,-0.9442,-0.8404,-0.6869,0.0,0.0,0.0,-0.1393,0.1095,0.2941,0.0,0.0,0.0,0.0,0.0,0.0,0.0,0.0,0.0,0.0,0.0,0.0,0.0,0.0,0.0,0.0,2.2996,2.2594,2.2593,2.2419,2.1858,2.2516,2.2577,2.1803,2.296,2.3157,2.2506,2.2884,2.3078,2.3125,2.3644,2.43,2.5007,2.5824,2.6593,2.7277,2.7886,2.8855,2.9966,2.9642,3.0836,3.2613,3.1815,3.2051,3.2826,0.0,0.0,0.0,0.0,0.0,0.0,0.0,-0.377,-0.4058,-0.3036,-0.2603,-0.2728,-0.3606,-0.3918,-0.4208,0.0,0.0,0.0,0.0,0.0,0.0,0.0,0.0,0.0,0.0,0.0,0.0,0.0,0.0,0.0,0.0,0.0,0.0,0.0,0.0,0.0,0.0,-1.3486,-1.2912,0.0,0.0,0.0,0.0,0.0,0.0,0.0,0.0,0.0,0.0,0.0,-0.7646,-0.38,-0.2815,-0.1489,-0.0924,-0.3907,-0.785,-1.1499,-1.2309,-1.317,-1.3353,-1.174,-1.0363,-0.9028,-0.73,-0.6339,0.0,0.0,-0.2215,0.022,0.1687,0.0,0.0,0.0,0.0,0.0,0.0,0.0,0.0,0.0,0.0,0.0,0.0,0.0,0.0,0.0,0.0,2.2761,2.2523,2.1696,2.1152,2.1061,2.1525,2.1406,2.059,2.2035,2.2357,2.1628,2.2445,2.2823,2.2884,2.3942,2.5181,2.6424,2.7299,2.8408,2.9633,2.9726,3.0387,3.1244,3.0729,3.1523,3.2901,3.1691,3.1756,3.2413,0.0,0.0,0.0,0.0,0.0,0.0,0.0,-0.2029,-0.1764,-0.255,-0.1158,-0.0578,-0.1868,-0.3408,-0.4432,0.0,0.0,0.0,0.0,0.0,0.0,0.0,0.0,0.0,0.0,0.0,0.0,0.0,0.0,0.0,0.0,0.0,0.0,0.0,0.0,0.0,0.0,0.0,0.0,0.0,0.0,0.0,0.0,0.0,0.0,0.0,0.0,0.0,0.0,0.0,0.0,-0.9589,-0.917,-0.6538,-0.4434,-0.8216,0.0,0.0,-1.5408,-1.5447,-1.4533,-1.3352,-1.186,-0.9896,-0.7117,0.0,0.0,-0.4629,-0.2609,-0.0552,0.0928,0.3607,0.6108,0.0,0.0,0.9397,0.0,0.0,0.0,0.0,0.0,0.0,0.0,0.0,0.0,0.0,0.0,2.1211,2.2039,2.1527,2.1048,2.067,2.1173,2.1169,2.0602,2.1223,2.1289,2.0719,2.1628,2.2002,2.2075,2.4102,2.5499,2.6452,2.7698,2.8747,0.0,3.021,3.0505,3.0592,3.0541,3.0928,3.1384,2.9444,2.9587,3.0579,0.0,0.0,0.0,0.0,0.0,0.0,-0.2688,-0.1425,-0.0626,-0.12,0.0459,0.1085,-0.0543,-0.1885,-0.3204,-0.4556,0.0,0.0,0.0,0.0,0.0,0.0,0.0,0.0,0.0,0.0,0.0,-1.0615,-1.1775,0.0,0.0,0.0,0.0,0.0,0.0,0.0,0.0,0.0,0.0,0.0,0.0,0.0,0.0,0.0,0.0,0.0,0.0,0.0,0.0,0.0,0.0,0.0,-1.1057,-0.996,0.0,0.0,-1.1824,-1.3697,-1.4622,-1.4969,-1.4774,-1.3328,-1.1952,-1.0373,-0.84,0.0,0.0,-0.5273,-0.2991,-0.0663,0.082,0.3498,0.5995,0.7444,0.0,0.0,0.0,0.0,0.0,0.0,0.0,0.0,0.0,0.0,0.0,0.0,0.0,2.0671,2.0762,2.0277,2.0001,1.9837,2.0018,1.9881,1.9369,2.0402,2.0665,2.0234,2.1689,2.2416,2.2492,2.5179,2.6745,2.7579,2.9001,3.0063,0.0,3.1011,3.1365,3.1781,3.1781,3.1935,3.199,3.0753,3.0376,3.0386,0.0,0.0,0.0,0.0,0.0,-0.2696,-0.2682,-0.1146,0.0183,0.0495,0.1779,0.2223,0.0926,-0.026,-0.183,-0.3917,-0.4297,0.0,0.0,0.0,0.0,0.0,0.0,0.0,0.0,0.0,-1.1925,-1.2671,-1.2975,-1.3362,0.0,0.0,0.0,0.0,0.0,0.0,0.0,0.0,0.0,0.0,0.0,0.0,0.0,0.0,0.0,0.0,0.0,0.0,0.0,0.0,0.0,0.0,0.0,0.0,0.0,0.0,-1.2384,-1.3893,-1.4226,-1.4278,-1.4131,-1.3287,-1.1873,-1.026,0.0,0.0,-0.6178,-0.5267,-0.2922,-0.0599,0.0811,0.3536,0.5887,0.7171,0.0,0.8878,0.0,0.0,0.0,0.0,0.0,0.0,0.0,0.0,0.0,0.0,2.0498,2.0381,1.9941,1.9512,1.9287,1.9287,1.9051,1.8859,1.8818,1.9594,1.9921,1.9704,2.1599,2.2472,2.2561,2.5444,2.7264,2.8288,2.9505,3.0586,0.0,3.1482,3.1796,3.2256,3.2245,3.2114,3.1857,3.099,3.0304,2.9743,0.0,0.0,0.0,0.0,0.0,0.0,-0.2696,-0.1047,0.0795,0.2458,0.2688,0.2693,0.268,0.1169,-0.0597,-0.256,-0.3757,0.0,0.0,0.0,0.0,0.0,0.0,0.0,0.0,0.0,-1.2385,-1.28,-1.3984,-1.4575,-1.4585,-1.4123,-1.3942,0.0,0.0,0.0,0.0,0.0,0.0,0.0,0.0,0.0,0.0,0.0,0.0,0.0,0.0,0.0,0.0,0.0,0.0,0.0,0.0,0.0,0.0,0.0,-1.2792,-1.3616,-1.5023,-1.3987,-1.2699,-1.358,-1.173,-0.9367,0.0,0.0,-0.5634,-0.4288,-0.2364,-0.0475,0.0842,0.3497,0.5725,0.6475,0.783,0.0,0.0,0.0,0.0,0.0,0.0,0.0,0.0,0.0,0.0,0.0,2.0322,0.0,1.9941,1.9512,1.9287,1.9287,1.8457,1.8418,1.9268,1.8848,1.8848,1.935,2.1134,2.2036,2.2115,2.4499,2.6595,2.8255,2.8789,2.995,0.0,3.1482,3.1524,3.1507,3.1435,3.1067,3.0342,2.8936,2.8445,2.8211,0.0,0.0,0.0,0.0,0.0,0.0,0.0,-0.1631,-0.0411,0.0722,0.194,0.2288,0.1232,0.0357,-0.0986,-0.3055,-0.3579,0.0,0.0,0.0,0.0,0.0,0.0,0.0,0.0,0.0,-1.3479,-1.3891,-1.4416,-1.4738,-1.4877,-1.4721,-1.4424,-1.3981,-1.3712,0.0,0.0,0.0,0.0,0.0,0.0,0.0,0.0,0.0,0.0,0.0,0.0,0.0,0.0,0.0,0.0,0.0,0.0,0.0,0.0,-1.1856,0.0,0.0,-1.3183,-1.2833,-1.2232,-1.1476,-1.0315,-0.917,-0.8378,0.0,-0.5731,-0.4424,-0.2558,-0.058,0.1369,0.3287,0.5059,0.6396,0.7402,0.0,0.0,0.0,0.0,0.0,0.0,0.0,0.0,0.0,0.0,0.0,2.0049,2.0059,1.9922,1.9228,1.8848,1.8848,1.8584,1.8574,1.8838,1.9004,1.9501,2.0339,2.1494,2.256,2.3649,2.5593,2.7333,2.8789,2.9558,3.0524,3.1482,3.1482,3.1482,3.1567,3.2026,3.1549,3.0498,3.0514,2.9918,2.894,0.0,0.0,0.0,0.0,0.0,0.0,0.0,-0.2107,-0.1211,-0.0282,0.091,0.1275,0.0206,-0.0465,-0.1658,-0.3745,-0.4005,0.0,0.0,0.0,0.0,0.0,0.0,0.0,0.0,-1.3322,-1.3772,-1.4326,-1.4577,-1.4748,-1.4879,-1.4608,-1.4092,-1.3417,-1.3115,-1.2494,0.0,0.0,0.0,0.0,0.0,0.0,-1.4867,0.0,0.0,0.0,0.0,0.0,0.0,0.0,0.0,0.0,0.0,0.0,0.0,0.0,-1.2686,0.0,0.0,-1.1995,-1.1456,-1.0473,-0.9393,0.0,0.0,0.0,-0.5481,-0.4185,-0.2252,-0.0152,0.1704,0.3447,0.4955,0.6004,0.7015,0.0,0.0,0.0,0.0,0.0,0.0,0.0,0.0,0.0,0.0,1.936,1.958,1.9609,1.9443,1.8926,1.8564,1.8408,1.8555,1.8789,1.9111,1.9228,1.9865,2.0936,2.164,2.2685,2.3955,2.5646,2.7063,2.8243,2.9032,2.995,0.0,3.1349,3.1637,3.1992,3.24,3.1712,3.0556,3.0954,3.0038,2.8575,0.0,0.0,0.0,0.0,0.0,0.0,0.0,-0.2558,-0.1721,-0.0725,-0.033,-0.0247,-0.0546,-0.1383,-0.2631,-0.4418,0.0,0.0,0.0,0.0,0.0,0.0,0.0,0.0,-1.3278,-1.3121,-1.3389,-1.4214,-1.4534,-1.4688,-1.4698,-1.4072,-1.3315,-1.2457,-1.178,-1.0997,-1.0253,-1.1056,-1.2219,-1.3548,-1.3645,-1.4162,0.0,0.0,0.0,0.0,0.0,0.0,0.0,0.0,0.0,0.0,0.0,0.0,0.0,0.0,0.0,0.0,0.0,0.0,0.0,0.0,0.0,0.0,0.0,0.0,0.0,0.0,0.0,0.0524,0.1945,0.3811,0.5213,0.5454,0.0,0.0,0.0,0.0,0.0,0.0,0.0,0.0,0.0,0.0,0.0,1.8492,1.9014,1.9082,1.8701,1.8623,1.8428,1.8066,1.8437,1.9004,1.9775,1.9453,1.9955,2.124,2.1717,2.2502,2.3482,2.49,2.6036,0.0,2.7499,2.8684,3.0315,3.0998,3.1799,3.2501,3.2475,3.1647,3.0522,3.0354,2.9048,2.7412,0.0,0.0,0.0,0.0,0.0,0.0,0.0,0.0,0.0,0.0,-0.181,-0.1606,-0.2243,-0.3276,-0.4029,0.0,0.0,0.0,0.0,0.0,0.0,0.0,0.0,0.0,-1.3471,-1.3226,-1.3495,-1.4343,-1.4587,-1.4756,-1.4859,-1.5311,-1.4422,-1.2445,-1.2916,-1.2043,-1.0293,-1.1699,-1.2531,-1.3007,-1.4149,-1.4659,0.0,0.0,0.0,0.0,-1.3104,-1.2441,0.0,0.0,0.0,0.0,0.0,0.0,0.0,0.0,-1.3006,-1.3365,-1.1664,0.0,-0.9837,-0.9266,-0.831,0.0,0.0,0.0,0.0,0.0,0.0,0.0,0.0,0.0,0.0,0.0,0.0,0.0,0.0,0.0,0.0,0.0,0.0,0.0,0.0,0.0,1.762,1.8492,1.873,1.8887,1.9121,1.8516,1.8262,1.8486,1.8584,1.8584,1.8457,1.9004,2.0002,2.1327,2.1408,2.2689,2.5054,2.4991,2.5895,2.7538,2.7683,2.8684,3.0315,3.0998,3.144,3.1696,3.1768,3.0974,2.9735,2.9728,2.9344,2.8678,0.0,0.0,0.0,0.0,0.0,0.0,0.0,0.0,0.0,0.0,0.0,0.0,0.0,0.0,0.0,0.0,0.0,0.0,0.0,0.0,0.0,0.0,0.0,-1.0189,-1.254,-1.2198,-1.2412,-1.3242,-1.3803,-1.4214,-1.4545,-1.5358,-1.4844,-1.3216,-1.2787,-1.1702,-1.0252,-1.1091,-1.1891,-1.2666,-1.3284,0.0,0.0,0.0,0.0,0.0,-1.2444,-1.201,0.0,-1.1341,-1.1196,-1.1118,0.0,0.0,0.0,0.0,-1.2314,-1.2443,-1.0819,-1.0171,-0.9668,-0.8594,-0.7779,-0.7178,0.0,0.0,0.0,0.0,0.0,0.0,0.0,0.0,0.0,0.0,0.0,0.0,0.0,0.0,0.0,0.0,0.0,0.0,0.0,0.0,1.6608,1.7342,1.7764,1.8164,1.8398,1.7978,1.791,1.833,1.835,1.833,1.8301,1.876,1.9756,2.1307,2.1018,2.218,2.4469,2.4456,2.5153,2.6388,2.6388,2.7621,2.9709,2.9842,3.0688,3.1903,3.1656,3.0869,2.9942,2.9942,2.9484,2.8754,0.0,0.0,0.0,0.0,0.0,0.0,0.0,0.0,0.0,0.0,0.0,0.0,0.0,0.0,0.0,0.0,0.0,0.0,0.0,0.0,0.0,0.0,0.0,-0.9342,-1.1525,-1.0987,-1.1133,-1.2068,-1.3026,-1.37,-1.4127,-1.522,-1.5271,-1.4338,-1.2223,-1.0941,-1.0358,-1.0325,-1.1066,-1.2263,-1.2031,0.0,0.0,0.0,0.0,0.0,0.0,0.0,0.0,-1.1512,-1.1431,-1.149,-1.1768,0.0,0.0,0.0,0.0,0.0,-0.983,-0.9637,-0.9483,-0.8132,-0.7412,-0.6852,-0.6307,0.0,0.0,0.0,0.0,0.0,0.0,0.0,0.0,0.0,0.0,0.0,0.0,0.0,0.0,0.0,0.0,0.0,0.0,1.4704,1.5566,1.5865,1.6817,1.7353,1.7285,1.7285,1.748,1.79,1.791,1.8115,1.8535,1.8545,1.9407,2.1118,2.0781,2.1526,2.3215,2.3778,2.4305,2.482,0.0,0.0,2.8504,2.8281,2.9696,3.196,3.1502,3.0925,3.0316,3.0286,2.9489,2.8435,0.0,0.0,0.0,0.0,0.0,0.0,0.0,0.0,0.0,0.0,0.0,0.0,0.0,0.0,0.0,0.0,0.0,0.0,0.0,0.0,0.0,-0.9406,-0.8765,-0.9627,-1.2266,-1.1141,-1.1291,-1.283,-1.3826,-1.4235,-1.4145,-1.6547,-1.6903,-1.5432,-1.2512,-1.1181,-1.1121,-1.1181,-1.1235,-1.1359,-1.1873,0.0,0.0,0.0,0.0,0.0,0.0,0.0,0.0,-1.2003,-1.2066,-1.2066,-1.2107,0.0,0.0,0.0,0.0,0.0,-0.8584,-0.8199,-0.8236,-0.764,-0.7235,-0.6852,-0.6307,0.0,0.0,0.0,0.0,0.0,0.0,0.0,0.0,0.0,0.0,0.0,0.0,0.0,0.0,0.0,0.0,0.0,1.3349,1.5191,1.6258,1.5923,1.6817,1.7227,1.6855,1.6836,1.7031,1.7471,1.748,1.7686,1.8105,1.8105,1.8946,2.0702,2.0624,2.1724,2.3866,2.3954,2.4305,2.482,0.0,2.546,2.6604,2.7739,2.886,2.984,3.0449,3.022,2.9566,2.9566,2.9438,2.915,0.0,0.0,0.0,0.0,0.0,0.0,0.0,0.0,0.0,0.0,0.0,0.0,0.0,0.0,0.0,0.0,0.0,0.0,0.0,0.0,0.0,-0.9434,-0.9177,-0.9905,-1.1859,-1.147,-1.1636,-1.2401,-1.338,-1.3937,-1.4145,-1.5809,-1.5767,-1.4272,-1.2582,-1.1417,-1.0701,-1.0619,-1.0701,-1.0884,0.0,0.0,0.0,0.0,0.0,0.0,0.0,0.0,0.0,0.0,-1.2431,-1.2392,-1.2251,0.0,0.0,0.0,0.0,0.0,-0.7151,-0.6601,-0.6384,-0.5907,-0.6192,-0.6252,-0.5029,0.0,0.0,0.0,0.0,0.0,0.0,0.0,0.0,0.0,0.0,0.0,0.0,0.0,0.0,0.0,0.0,1.2373,1.3222,1.4457,1.5312,1.5534,1.6258,1.6582,1.6387,1.6367,1.6572,1.7021,1.7031,1.7236,1.7666,1.7676,1.8685,2.059,2.1112,2.2059,2.3527,2.3527,2.3841,2.4356,0.0,2.473,2.6078,2.6058,2.7147,2.8819,2.883,2.9077,2.9451,2.9761,2.9673,2.9246,0.0,0.0,0.0,0.0,0.0,0.0,0.0,0.0,0.0,0.0,0.0,0.0,0.0,0.0,0.0,0.0,0.0,0.0,0.0,0.0,-0.8697,-0.9932,-1.0082,-1.0614,-1.1647,-1.1718,-1.1884,-1.2159,-1.3011,-1.3866,-1.4693,-1.4908,-1.4451,-1.3411,-1.2512,-1.1493,-1.0409,-1.0047,-1.0075,-1.0345,0.0,0.0,0.0,0.0,0.0,0.0,0.0,0.0,0.0,0.0,0.0,0.0,0.0,0.0,0.0,-0.9224,-0.7977,-0.6863,-0.576,-0.5214,-0.4778,-0.4201,0.0,-0.5492,-0.3709,0.0,0.0,0.0,0.0,0.0,0.0,0.0,0.0,0.0,0.0,0.0,0.0,0.0,0.0,0.0,1.1347,1.1935,1.3347,1.398,1.4572,1.5131,1.5913,1.6257,1.5978,1.6257,1.6467,1.6562,1.6874,1.7209,1.7476,1.7725,1.8742,2.059,2.1302,2.2002,2.2823,2.3005,2.3255,2.3517,2.3205,2.3956,2.535,2.459,2.5703,2.7877,2.7539,2.8104,2.9195,2.9545,2.9405,2.9,0.0,0.0,0.0,0.0,0.0,0.0,0.0,0.0,0.0,0.0,0.0,0.0,0.0,0.0,0.0,0.0,0.0,0.0,0.0,0.0,-1.0244,-1.1394,-1.1822,-1.2141,-1.2404,-1.1711,-1.1857,-1.292,-1.356,-1.4734,-1.6381,-1.4886,-1.4289,-1.4412,-1.2258,-1.122,-1.1074,-1.0187,-0.9646,-0.9366,-0.903,0.0,0.0,0.0,0.0,0.0,0.0,0.0,0.0,0.0,0.0,0.0,0.0,0.0,-1.0151,-0.8134,-0.6763,-0.5654,-0.4456,-0.4285,-0.422,-0.3234,-0.4121,0.0,-0.3116,-0.3157,0.0,0.0,0.0,0.0,0.0,0.0,0.0,0.0,0.0,0.0,0.0,0.0,0.0,0.0,1.3477,1.3711,1.3858,1.4689,1.5104,1.4747,1.6226,1.6642,1.5537,1.674,1.7077,1.6154,1.745,1.8029,1.7781,1.8566,1.9516,2.059,2.0655,2.1175,2.2002,2.2763,2.2714,2.2061,2.2775,2.3175,2.3359,2.4041,2.512,2.6524,2.7143,2.7843,2.8398,2.7868,2.7955,2.827,0.0,0.0,0.0,0.0,0.0,0.0,0.0,0.0,0.0,0.0,0.0,0.0,0.0,0.0,0.0,0.0,0.0,0.0,0.0,-0.9851,-1.0544,-1.1572,-1.2037,-1.2547,-1.3184,-1.2761,-1.2944,-1.375,-1.4094,-1.4678,-1.5403,-1.4685,-1.3977,-1.3247,-1.2354,-1.1407,-1.0487,-0.9868,-0.9359,-0.8883,-0.8462,-0.8345,0.0,0.0,0.0,0.0,0.0,0.0,0.0,0.0,-1.2941,-1.2423,-1.1605,-1.0222,-0.8585,-0.7098,-0.5905,-0.4903,-0.421,-0.3671,-0.3183,-0.2506,0.0,0.0,0.0,0.0,0.0,0.0,0.0,0.0,0.0,0.0,0.0,0.0,0.0,0.0,0.0,0.0,0.0,1.3145,1.3268,1.363,1.4429,1.4551,1.5059,1.6136,1.656,1.6785,1.6754,1.6866,1.6726,1.6348,1.6916,1.7021,1.6779,1.8008,1.8929,1.9672,1.9733,2.0635,2.2124,2.2005,2.1822,2.1728,2.2658,2.2937,2.2648,2.3285,2.3914,2.464,2.5795,2.6918,2.7834,2.8012,2.8142,2.8197,0.0,0.0,0.0,0.0,0.0,0.0,0.0,0.0,0.0,0.0,0.0,0.0,0.0,0.0,0.0,0.0,0.0,0.0,-0.9997,-1.0417,-1.1059,-1.1891,-1.242,-1.297,-1.3584,-1.3395,-1.3607,-1.4188,-1.4178,-1.4312,-1.459,-1.3807,-1.3084,-1.2452,-1.1906,-1.1086,-1.0076,-0.9703,-0.9179,-0.8571,-0.8093,-0.7825,0.0,0.0,0.0,0.0,0.0,0.0,0.0,0.0,-1.2756,-1.181,-1.0822,-0.9113,-0.7255,-0.6075,-0.4982,-0.406,-0.3523,-0.2947,-0.2346,0.0,0.0,0.0,0.0,0.0,0.0,0.0,0.0,0.0,0.0,0.0,0.0,0.0,0.0,0.0,0.0,0.0,1.3075,1.331,1.3473,1.3895,1.4773,1.489,1.5498,1.6884,1.7105,1.7302,1.7578,1.7578,1.7302,1.6866,1.7302,1.7344,1.6932,1.7899,1.8839,1.9587,1.9021,1.9762,2.1617,2.1384,2.1247,2.1168,2.2168,2.2397,2.2083,2.246,2.3038,2.3852,2.469,2.5884,2.7211,2.7208,2.7488,2.766,0.0,0.0,0.0,0.0,0.0,0.0,0.0,0.0,0.0,0.0,0.0,0.0,0.0,0.0,0.0,0.0,0.0,0.0,-1.1287,-1.1542,-1.1974,-1.2591,-1.3177,-1.3546,-1.36,-1.3413,-1.3607,-1.4183,-1.3669,-1.3742,-1.4357,-1.2151,-1.1582,-1.2326,-1.0808,-1.0104,-1.0086,-0.9744,-0.9143,-0.8364,-0.7889,-0.7264,-0.6651,0.0,0.0,0.0,0.0,0.0,0.0,0.0,-1.2405,-1.11,-1.0015,-0.8239,-0.6332,-0.5046,-0.4,-0.3097,-0.2211,-0.1981,0.0,0.0,0.0,0.0,0.0,0.0,0.0,0.0,0.0,0.0,0.0,0.0,0.0,0.0,0.0,0.0,0.0,1.2465,1.3195,1.4024,1.4512,1.4775,1.4775,1.5828,1.6472,1.6482,1.7841,1.8382,1.7688,1.898,1.9085,1.7622,1.9032,1.9411,1.8703,1.8715,1.9364,2.0652,1.8585,1.8542,2.0214,2.1119,2.0994,2.0214,2.1119,2.1493,2.1481,2.1481,2.269,2.4429,2.3872,2.4841,2.6385,2.5155,2.5463,2.6463,0.0,0.0,0.0,0.0,0.0,0.0,0.0,0.0,0.0,0.0,0.0,0.0,0.0,0.0,0.0,0.0,0.0,0.0,-1.1001,-1.1629,-1.2222,-1.2787,-1.3438,-1.3849,-1.4011,-1.4194,-1.3799,-1.2786,-1.3915,-1.4295,-1.3969,-1.3201,-1.2711,-1.2421,-1.1304,-1.0538,-1.0062,-0.9688,-0.918,-0.8537,-0.7792,-0.7121,-0.6655,0.0,0.0,0.0,0.0,0.0,0.0,0.0,0.0,0.0,-0.8314,-0.6388,-0.4496,-0.3513,-0.2589,-0.1835,-0.1571,0.0,0.0,0.0,0.0,0.0,0.0,0.0,0.0,0.0,0.0,0.0,0.0,0.0,0.0,0.9475,1.0833,1.1885,1.221,1.312,1.379,1.3796,1.3965,1.4115,1.4272,1.5029,1.5881,1.6785,1.7647,1.8438,1.9125,1.8733,1.8271,1.7792,1.8219,1.8116,1.7372,1.8746,1.9393,1.9286,1.917,1.9633,2.0551,2.0275,2.0055,2.0007,2.1031,2.1267,2.097,2.097,2.1519,2.2416,2.1877,2.255,2.3871,2.3976,2.4236,2.4654,0.0,0.0,0.0,0.0,0.0,0.0,0.0,0.0,0.0,0.0,0.0,0.0,0.0,0.0,0.0,0.0,0.0,0.0,0.0,-1.1527,-1.2167,-1.275,-1.3408,-1.3913,-1.4188,-1.4577,-1.412,-1.2751,-1.3906,-1.4418,-1.4299,-1.3579,-1.3163,-1.2966,-1.176,-1.0986,-1.0586,-1.0128,-0.9619,-0.9075,-0.8269,-0.7695,-0.7279,0.0,0.0,0.0,0.0,0.0,0.0,0.0,0.0,0.0,-0.6652,-0.4877,-0.3199,-0.2612,-0.1905,-0.1232,-0.0877,0.0,0.0,0.0,0.0,0.0,0.0,0.0,0.0,0.0,0.0,0.0,0.0,0.0,0.0,0.9813,1.0945,1.1746,1.1746,1.2847,1.3572,1.3378,1.337,1.3537,1.3824,1.4654,1.5592,1.6602,1.728,1.8089,1.9096,1.8437,1.8006,1.8006,1.8212,1.801,1.7342,1.899,1.948,1.8858,1.9492,1.9987,2.0326,1.9875,1.9744,1.9849,2.0526,2.0627,2.0326,2.0326,2.0848,2.16,2.0718,2.1522,2.3131,2.3237,2.3488,2.3833,0.0,0.0,0.0,0.0,0.0,0.0,0.0,0.0,0.0,0.0,0.0,0.0,0.0,0.0,0.0,0.0,0.0,0.0,0.0,0.0,-1.1923,-1.2594,-1.3261,-1.381,-1.4214,-1.465,-1.4511,-1.3734,-1.3861,-1.4294,-1.4969,-1.3505,-1.316,-1.3717,-1.2108,-1.1433,-1.1446,-1.0839,-1.0357,-0.9915,-0.9173,-0.8737,-0.8425,-0.7725,0.0,0.0,0.0,0.0,0.0,0.0,0.0,0.0,-0.4877,-0.3526,-0.2171,-0.1992,-0.1535,-0.0892,0.0,0.0,0.0,0.0,0.0,0.0,0.0,0.0,0.0,0.0,0.0,0.0,0.0,0.0,0.0,1.0152,1.0723,1.0987,1.0987,1.2073,1.2929,1.3036,1.3055,1.3208,1.358,1.4532,1.5437,1.616,1.6854,1.7533,1.8157,1.8154,1.8129,1.8129,1.8618,1.8643,1.8129,1.9145,1.9447,1.8983,1.951,1.9761,1.9798,1.9798,1.9798,1.9798,1.9798,1.9798,1.9798,1.9798,2.0502,2.1483,2.0297,2.1262,2.3261,2.2724,2.2909,2.3558,0.0,0.0,0.0,0.0,0.0,0.0,0.0,0.0,0.0,0.0,0.0,0.0,0.0,0.0,0.0,0.0,0.0,0.0,0.0,0.0,-1.1974,-1.2808,-1.3471,-1.4006,-1.4343,-1.4571,-1.4707,-1.4775,-1.4865,-1.4668,-1.4224,-1.3831,-1.364,-1.3576,-1.2019,-1.1646,-1.2115,-1.0945,-1.0761,-1.1197,-0.9986,-0.9718,-0.9987,-0.9622,-0.9499,0.0,0.0,0.0,0.0,0.0,0.0,0.0,-0.2403,-0.1408,-0.0582,-0.0062,0.0393,0.0766,0.0,0.0,0.0,0.0,0.0,0.0,0.0,0.0,0.0,0.0,0.0,0.0,0.0,0.0,0.0,1.1148,1.1935,1.2472,1.2472,1.2706,1.325,1.4217,1.4291,1.4339,1.441,1.4675,1.5263,1.6268,1.6492,1.7072,1.8131,1.779,1.7564,1.7564,1.7664,1.7677,1.7564,1.8216,1.8706,1.8983,1.9145,1.9409,1.9798,1.9798,1.9798,1.9798,1.9798,1.9798,1.9798,1.9798,1.9964,2.022,1.9888,2.0143,2.0694,2.107,2.1327,2.1642,0.0,0.0,0.0,0.0,0.0,0.0,0.0,0.0,0.0,0.0,0.0,0.0,0.0,0.0,0.0,0.0,0.0,0.0,0.0,0.0,-1.2055,-1.3089,-1.3537,-1.3853,-1.4011,-1.4386,-1.4673,-1.4802,-1.5004,-1.4916,-1.4519,-1.4436,-1.4346,-1.4213,-1.3023,-1.2657,-1.2831,-1.1561,-1.137,-1.1822,-1.047,-1.0481,-1.1075,-0.9263,-0.8733,-0.8696,-0.6771,0.0,0.0,0.0,0.0,0.0,0.0,0.0,0.0776,0.0927,0.1302,0.1621,0.0,0.0,0.0,0.0,0.0,0.0,0.0,0.0,0.0,0.0,0.0,0.0,0.0,0.0,0.0,1.2129,1.2598,1.2881,1.2881,1.2881,1.3104,1.3742,1.4846,1.5428,1.5017,1.4983,1.528,1.598,1.6037,1.6408,1.7343,1.7124,1.6974,1.6974,1.7237,1.725,1.6974,1.779,1.8216,1.8242,1.8505,1.8781,1.9045,1.9309,1.9284,1.9032,1.9032,1.9032,1.9032,1.9032,1.9196,1.9434,1.9434,1.9585,1.9901,2.0547,2.0979,2.139,0.0,0.0,0.0,0.0,0.0,0.0,0.0,0.0,0.0,0.0,0.0,0.0,0.0,0.0,0.0,0.0,0.0,0.0,0.0,0.0,0.0,-1.3192,-1.3444,-1.3601,-1.3674,-1.4253,-1.4538,-1.4513,-1.4822,-1.5049,-1.5193,-1.5169,-1.5158,-1.5125,-1.4379,-1.382,-1.3334,-1.2138,-1.1712,-1.178,-1.0354,-1.0479,-1.1116,-0.783,-0.6797,-0.6683,-0.3343,-0.157,-0.0636,0.0596,0.0,0.0,0.0,0.0,0.2263,0.1868,0.208,0.2417,0.0,0.0,0.0,0.0,0.0,0.0,0.0,0.0,0.0,0.0,0.0,0.0,0.0,0.0,1.2776,1.2871,1.2881,1.2881,1.2881,1.2881,1.2909,1.2892,1.5021,1.6232,1.5555,1.552,1.5586,1.5732,1.562,1.5852,1.6466,1.6522,1.6522,1.6522,1.6986,1.6999,1.6479,1.7451,1.7739,1.7388,1.794,1.8154,1.8078,1.853,1.8543,1.8204,1.8204,1.8204,1.8204,1.8204,1.848,1.8845,1.8933,1.9233,1.9585,2.0228,2.0833,2.1274,0.0,0.0,0.0,0.0,0.0,0.0,0.0,0.0,0.0,0.0,0.0,0.0,0.0,0.0,0.0,0.0,0.0,0.0,-1.0954,0.0,0.0,-1.2609,-1.3141,-1.3617,-1.4028,-1.4234,-1.4415,-1.4595,-1.4803,0.0,0.0,0.0,0.0,-1.5756,-1.5237,-1.4289,-1.2992,-1.1787,-1.1025,-1.0483,-0.8789,-0.8456,-0.8701,-0.621,-0.4905,-0.4037,-0.1008,0.104,0.2492,0.3835,0.4454,0.0,0.0,0.0,0.4442,0.3751,0.3873,0.0,0.0,0.0,0.0,0.0,0.0,0.0,0.0,0.0,0.0,0.0,0.0,0.0,0.0,0.0,1.2175,1.2783,1.2881,1.2881,1.2881,1.2881,1.2909,1.2892,1.5037,1.6469,1.6337,1.6357,1.636,1.6392,1.5716,1.566,1.6466,1.6522,1.6522,1.6522,1.6597,1.6597,1.6522,1.6672,1.6961,1.7388,1.794,1.7953,1.7501,1.7564,1.7827,1.8204,1.8204,1.8204,1.8204,1.8204,1.8242,1.8355,1.8844,1.8781,1.8468,1.9056,1.9269,1.9453,0.0,0.0,0.0,0.0,0.0,0.0,0.0,0.0,0.0,0.0,0.0,0.0,0.0,0.0,0.0,-1.0021,-0.997,-1.016,-1.0794,-1.1776,-1.2558,-1.3095,-1.3704,-1.4416,-1.5264,-1.5028,-1.5239,-1.5892,0.0,0.0,0.0,-1.7438,-1.7056,0.0,0.0,0.0,-1.2491,-1.0721,-0.9813,-0.9383,-0.7343,-0.7051,-0.7432,-0.3803,-0.236,-0.1804,0.1794,0.3542,0.4275,0.5286,0.5579,0.5532,0.5617,0.0,0.0,0.0,0.0,0.0,0.0,0.0,0.0,0.0,0.0,0.0,0.0,0.0,0.0,0.0,0.0,0.0,0.0,0.0,1.1499,1.2701,1.2902,1.2914,1.29,1.2881,1.2909,1.2892,1.3856,1.5017,1.6357,1.6502,1.6516,1.6491,1.6157,1.6114,1.6466,1.6522,1.6522,1.6522,1.6522,1.6522,1.6522,1.6522,1.6647,1.6898,1.7137,1.7124,1.6898,1.6898,1.7024,1.7262,1.7262,1.7262,1.7262,1.7262,1.7451,1.7765,1.8003,1.8141,1.8276,1.8789,1.9217,1.9529,0.0,0.0,0.0,0.0,0.0,0.0,0.0,0.0,0.0,0.0,0.0,0.0,0.0,0.0,0.0,0.0,-0.9687,-1.0059,-1.0742,-1.1829,-1.2663,-1.3084,-1.3986,-1.4874,-1.5736,-1.5737,-1.6101,-1.6877,0.0,0.0,-1.8107,-1.8391,-1.7442,0.0,-1.5037,-1.358,0.0,0.0,0.0,-0.7299,-0.5502,-0.5218,-0.542,-0.1033,0.0607,0.1003,0.4499,0.5836,0.6012,0.6639,0.6562,0.6251,0.6699,0.6373,0.0,0.0,0.0,0.0,0.0,0.0,0.0,0.0,0.0,0.0,0.0,0.0,0.0,0.0,0.0,0.0,0.0,0.0,1.1273,1.2507,1.2634,1.2633,1.2871,1.2909,1.2907,1.2872,1.2916,1.3609,1.5419,1.6142,1.6498,1.6479,1.6516,1.6485,1.6479,1.6485,1.6485,1.6522,1.6522,1.6522,1.6522,1.6522,1.6522,1.6522,1.6522,1.6522,1.6522,1.6522,1.6522,1.6522,1.6522,1.6522,1.6522,1.6522,1.6773,1.7174,1.7325,1.763,1.8053,1.8591,1.9066,1.9377,0.0,0.0,0.0,0.0,0.0,0.0,0.0,0.0,0.0,0.0,0.0,0.0,-0.8761,-0.8789,-0.8816,-0.8844,-0.9197,-0.98,-1.0634,-1.1775,-1.2196,-1.1711,-1.3435,0.0,-1.4581,-1.5926,-1.6702,0.0,0.0,0.0,-1.8098,-1.8062,-1.6523,-1.3889,-1.5147,-1.3257,-0.9006,0.0,0.0,0.0,0.0,0.0,0.0,0.0,0.0,0.0,0.6892,0.7819,0.8199,0.8536,0.8154,0.7466,0.7319,0.7027,0.6639,0.0,0.0,0.0,0.0,0.0,0.0,0.0,0.0,0.0,0.0,0.0,0.0,0.0,0.0,0.0,0.0,0.0,1.1709,1.2168,1.193,1.1949,1.2764,1.2912,1.2892,1.2899,1.2898,1.2954,1.3091,1.5168,1.6479,1.6522,1.6511,1.6492,1.6479,1.6523,1.6492,1.6479,1.6522,1.6522,1.6522,1.6522,1.6522,1.6522,1.6522,1.6522,1.6522,1.6522,1.6522,1.6522,1.6522,1.6522,1.6522,1.6522,1.6534,1.6622,1.7162,1.7388,1.7429,1.8008,1.8262,1.8305,0.0,0.0,0.0,0.0,0.0,0.0,0.0,0.0,0.0,0.0,0.0,0.0,0.0,-0.7838,-0.7875,-0.8439,-0.9373,-1.0037,-1.029,-1.1353,-1.1819,-1.1501,-1.2673,-1.3613,-1.4103,-1.4846,-1.5839,0.0,0.0,-1.7891,-1.9011,-1.7002,-1.4742,-1.2358,-1.2438,-1.0002,-0.5791,-0.4279,0.0,0.0,0.0,0.0,0.0,0.0,0.0,0.0,0.0,0.0,0.0,0.0,0.0,0.7339,0.736,0.7034,0.666,0.6565,0.0,0.0,0.0,0.0,0.0,0.0,0.0,0.0,0.0,0.0,0.0,0.0,0.0,0.0,0.0,0.0,0.0,1.1309,1.124,1.1285,1.1695,1.2857,1.3766,1.4022,1.4744,1.5199,1.5203,1.5981,1.6486,1.6479,1.6498,1.5806,1.4261,1.5647,1.651,1.6522,1.6522,1.6522,1.6522,1.6522,1.6522,1.6522,1.6522,1.6522,1.6522,1.6522,1.6522,1.6522,1.6879,1.6993,1.6993,1.6637,1.671,1.7018,1.6865,1.6815,1.6905,1.7799,1.8154,1.8154,0.0,0.0,0.0,0.0,0.0,0.0,0.0,0.0,0.0,-0.8268,0.0,0.0,0.0,0.0,-0.7689,-0.839,-0.9379,-1.0109,-1.0333,-1.1055,-1.1359,-1.1247,-1.1908,-1.2733,-1.3648,-1.4427,-1.5693,0.0,0.0,0.0,0.0,-1.5264,-1.2038,-0.8486,-0.7336,-0.5346,0.0,0.0,0.0,0.0836,0.0,0.0,0.1712,0.0,0.0,0.0,0.0,0.0,0.0,0.0,0.0,0.0,0.0,0.7087,0.6659,0.6974,0.0,0.0,0.0,0.0,0.0,0.0,0.0,0.0,0.0,0.0,0.0,0.0,0.0,0.0,0.0,0.0,0.0,1.1347,1.1136,1.1074,1.143,1.255,1.3531,1.4137,1.491,1.5668,1.6449,1.6504,1.651,1.6479,1.6498,0.0,1.4184,1.5635,1.6498,1.6522,1.6522,1.6522,1.6522,1.6522,1.6522,1.6522,1.6522,1.6522,1.6522,1.6522,1.6522,1.6522,1.6879,1.7034,1.7034,1.6837,1.6993,1.7229,1.671,1.6837,1.7394,1.7907,1.8224,1.838,0.0,0.0,0.0,0.0,0.0,0.0,0.0,0.0,0.0,-0.9126,0.0,0.0,0.0,0.0,0.0,-0.8683,-0.9265,-0.9986,-1.0782,-1.0861,-1.0856,-1.0782,-1.1063,-1.1781,-1.3005,-1.472,-1.6392,0.0,0.0,0.0,0.0,0.0,-0.8453,-0.2267,-0.0098,0.0507,0.0,0.0,0.2042,0.3274,0.0,0.2673,0.2759,0.0,0.0,0.0,0.7695,0.7695,0.0,0.828,0.0,0.0,0.0,0.72,0.6724,0.7244,0.0,0.0,0.0,0.0,0.0,0.0,0.0,0.0,0.0,0.0,0.0,0.0,0.0,0.0,0.0,0.0,0.0,1.2329,1.1599,1.1284,1.2173,1.1943,1.2095,1.3061,1.3191,1.404,1.6174,1.6388,1.6435,1.6509,1.6523,1.6504,1.6491,1.6492,1.6492,1.6479,1.6522,1.6522,1.6522,1.6522,1.6522,1.6522,1.6522,1.6522,1.6522,1.6522,1.6522,1.6522,1.6522,1.6552,1.6552,1.7076,1.7312,1.7271,1.671,1.7504,1.8817,1.8302,1.8458,1.8893,0.0,0.0,0.0,0.0,0.0,0.0,-0.8883,-0.9006,-0.9043,0.0,0.0,0.0,-0.8828,-0.8791,-0.8686,-0.8503,-0.9521,-1.0112,-0.9897,-1.0233,-0.9725,-0.829,-0.893,-0.9164,-0.881,-1.2036,-1.4684,-1.6626,-1.7594,-1.6426,-1.3188,-0.9632,-0.4909,0.0,0.3296,0.4934,0.5669,0.5305,0.0,0.0,0.539,0.4686,0.0,0.0,0.0,0.0,0.0,0.7695,0.7705,0.0,0.744,0.7162,0.0,0.0,0.0,0.7356,0.0,0.0,0.7093,0.0,0.0,0.0,0.0,0.0,0.0,0.0,0.0,0.0,0.0,0.0,0.0,0.0,0.0,0.0,1.1606,1.1217,1.1866,1.1862,1.2066,1.2709,1.2666,1.3059,1.4144,1.4257,1.4886,0.0,1.6485,1.6511,1.6516,1.6517,1.6485,1.6522,1.6522,1.6522,1.6522,1.6522,1.6522,1.6522,1.6879,1.6879,1.6522,1.6909,1.6879,1.6552,1.7312,1.7422,1.7076,1.6837,1.7188,1.7827,1.7312,1.7585,1.8341,1.8574,1.8765,1.8893,0.0,0.0,0.0,0.0,0.0,-0.8696,-0.8856,-0.9077,-0.9245,0.0,0.0,0.0,-0.9223,-0.9205,-0.9032,-0.8553,-0.945,-0.9668,-0.8827,-0.9058,-0.8686,-0.7571,-0.7477,-0.7553,-0.7761,-0.6407,-0.9232,-1.6442,-1.3427,-1.1614,-1.0816,-0.5817,-0.0826,0.4058,0.0,0.0,0.0,0.0,0.0,0.0,0.7253,0.0,0.0,0.7251,0.7812,0.0,0.0,0.0,0.7907,0.7617,0.7539,0.0,0.0,0.0,0.0,0.0,0.0,0.0,0.0,0.0,0.0,0.0,0.0,0.0,0.8078,0.8711,0.0,0.0,0.0,0.0,0.0,0.0,0.0,0.0,1.1698,1.1492,1.2043,1.2133,1.2173,1.2238,1.2191,1.2485,1.326,1.3099,1.3691,1.5517,1.5265,1.5441,1.6442,1.6498,1.6522,1.6522,1.6522,1.6522,1.6522,1.6522,1.6522,1.6522,1.7034,1.7146,1.6837,1.7394,1.7463,1.7188,1.7827,1.7907,1.7585,1.7034,1.7463,1.838,1.7585,1.7907,1.8779,1.8855,1.9043,1.9244,0.0,0.0,-0.6011,-0.6949,-0.8194,-0.9203,-0.9614,-0.9719,-0.9751,0.0,-0.9742,-0.9751,-0.9664,-0.9704,-0.9527,-0.8977,-0.9377,-0.9142,-0.7882,-0.7841,-0.7753,-0.7666,-0.6329,-0.6039,-0.7045,0.0193,-0.2144,-1.4715,-0.7147,-0.4728,-0.7074,-0.1486,0.3407,0.7571,0.0,0.0,0.0,0.0,0.0,0.7935,0.8584,0.8723,0.0,0.0,0.8142,0.8329,0.8087,0.8173,0.8308,0.7915,0.7994,0.0,0.0,0.0,0.0,0.0,0.7175,0.0,0.0,0.0,0.0,0.0,0.0,0.0,0.7962,0.8552,0.9357,0.0,0.0,0.0,0.0,0.0,0.0,0.0,1.1809,1.1852,1.2342,1.2437,1.2258,1.1847,1.1811,1.2164,1.3113,1.2574,1.2789,1.4249,1.3587,1.4099,1.6391,1.6391,1.6391,1.6522,1.6522,1.6522,1.6522,1.6522,1.6509,1.6514,1.7079,1.7381,1.7449,1.7947,1.8185,1.8106,1.8185,1.821,1.8249,1.7706,1.8027,1.8817,1.7787,1.8341,1.9639,1.9169,1.9281,1.969,0.0,0.0,-0.5551,-0.6861,-0.8042,-0.8981,-0.9534,-0.9891,-1.0095,-1.0095,-1.0453,-1.0679,-1.0611,-1.1046,-1.1117,-1.0498,-1.0607,-0.9909,-0.8076,-0.7968,-0.7247,-0.5657,-0.4221,-0.1399,0.3133,0.1683,0.0246,-0.1044,-0.1168,-0.0281,0.1585,0.3443,0.6361,1.0091,0.0,0.0,0.0,0.0,0.0,0.8915,0.905,0.0,0.9822,0.9816,0.9356,0.8817,0.9644,0.9422,0.8678,0.8424,0.8713,0.9147,0.0,0.0,0.0,0.0,0.0,0.0,0.0,0.0,0.0,0.0,0.0,0.0,0.8777,0.9111,0.9475,0.0,0.0,0.0,0.0,0.0,0.0,0.0,1.1353,1.1677,1.184,1.1919,1.1884,1.1811,1.1811,1.2039,1.2603,1.2169,1.2324,1.3383,1.4113,1.5102,1.6431,1.5674,1.5632,1.6454,1.6522,1.6522,1.6522,1.6522,1.6494,1.6501,1.7196,1.7799,1.8379,1.863,1.8496,1.8145,1.8574,1.8977,1.928,1.8788,1.8688,1.8855,1.8185,1.865,1.969,1.9566,1.9603,1.969,0.0,0.0,-0.5419,-0.6348,-0.7954,-0.9301,-0.9812,-1.0298,-1.0683,-1.0912,-1.1418,-1.1633,-1.1296,-1.2458,-1.2777,-1.1424,-1.2278,-1.1625,-0.8691,-0.8842,-0.6619,-0.1098,0.127,0.4817,0.9815,1.0008,1.016,1.0485,0.7751,0.7157,0.8525,0.7867,0.8636,1.0629,0.0,0.0,0.0,0.0,1.0638,1.1386,1.0854,0.0,0.8755,1.0291,1.0454,0.9915,1.0019,0.9503,0.8826,0.91,0.9273,0.0,0.0,0.9327,0.91,0.0,0.8499,0.7914,0.0,0.0,0.0,0.8612,0.0,0.0,0.0,0.9578,0.9686,0.988,0.9905,0.9905,0.9905,0.0,0.0,1.037,1.1173,1.1511,1.0576,1.116,1.1797,1.208,1.2116,1.2292,1.2801,1.265,1.2675,1.3165,1.4055,1.4913,1.5666,1.5715,1.6189,1.7274,1.6773,1.6751,1.7312,1.6788,1.6525,1.6504,1.7419,1.8107,1.863,1.9384,1.9442,1.893,1.9621,1.9939,1.9939,1.9662,1.9713,1.9869,1.9133,1.931,2.0,2.0,2.0,1.9965,-0.2861,0.0,-0.5236,-0.555,-0.7533,-0.9309,-0.9942,-1.0459,-1.104,-1.1623,-1.2421,-1.27,-1.2125,0.0,0.0,0.0,-1.3935,-1.3305,-0.9762,-0.8598,-0.5106,0.1529,0.6055,1.0458,1.477,1.7806,1.8852,1.7868,1.5444,1.3978,1.3426,1.1691,1.0904,0.0,0.0,0.0,0.0,0.0,0.0,1.3121,0.0,1.0752,0.856,1.0991,1.1643,1.1101,1.0143,0.9615,0.9394,0.9897,0.9798,0.9552,0.994,0.9679,0.0,0.0,0.0,0.0,0.0,0.0,0.0,0.0,0.0,0.9905,0.0,0.0,0.0,0.9905,0.9905,0.0,0.0,0.0,0.0,0.0,0.0,0.0,0.0,1.0239,0.0,1.1958,1.2304,1.2639,1.3087,1.3069,1.3082,1.3179,1.3643,1.4097,1.4542,1.5676,1.6862,1.8058,1.7475,1.7531,1.8416,1.7555,1.7128,1.7114,1.7977,1.8654,1.9082,2.0131,2.035,1.998,2.0698,2.0829,2.0534,2.042,2.0652,2.1023,2.0097,2.0008,2.0449,2.0449,2.0382,2.028,-0.2754,-0.387,0.0,-0.4567,-0.6096,-0.7753,-0.919,-0.9873,-1.0559,-1.1512,0.0,0.0,0.0,0.0,0.0,0.0,0.0,0.0,-1.1614,0.0,0.0,-0.3526,0.5313,1.2921,1.8548,1.7339,1.6654,1.6701,1.6874,1.6223,1.4773,1.4536,1.3802,0.0,1.2781,0.0,0.0,0.0,1.2559,0.0,1.2899,1.3283,0.0,1.3583,1.3063,1.1916,1.0938,1.0895,1.1223,0.0,1.028,0.9929,0.0,1.0257,0.9805,0.9805,0.0,0.0,0.0,0.0,0.0,0.0,0.9855,0.0,0.0,0.0,0.9905,0.9905,0.0,0.0,0.0,0.0,0.0,0.0,0.0,0.0,0.857,0.8966,0.9704,1.061,1.1929,1.2821,1.2933,1.2653,1.2685,1.3176,1.2826,1.2849,1.3362,1.4739,1.631,1.8076,1.8904,1.9387,1.9509,1.9398,1.9333,1.9333,1.9476,1.9922,2.074,2.0631,2.0675,2.0878,2.0975,2.1181,2.143,2.107,2.1181,2.146,2.0489,2.0454,2.0926,2.0926,2.0649,2.0348,-0.2995,-0.4019,0.0,0.0,-0.5567,-0.7767,-0.8633,-0.988,-1.0895,0.0,0.0,0.0,0.0,0.0,0.0,0.0,0.0,-1.0481,0.0,0.0,0.0,0.0,1.1558,1.6246,1.8773,1.8096,1.7507,1.7087,1.7259,1.666,1.5345,1.5109,1.4663,0.0,1.334,0.0,1.427,0.0,1.3779,0.0,0.0,0.0,0.0,1.4467,1.3649,1.2604,1.218,1.1682,1.1211,0.0,1.0659,0.0,0.0,0.0,0.0,0.0,0.0,0.0,0.0,0.0,0.0,0.0,0.0,0.0,0.9905,0.0,0.9905,0.0,0.0,0.0,0.0,0.0,0.0,0.0,0.919,0.0,0.0,0.0,0.835,0.0,0.0,0.0,1.2315,1.2256,1.2268,1.2499,1.2477,1.2852,1.3799,1.4427,1.5554,1.7354,1.8819,1.9781,2.0233,1.9864,1.9697,1.9695,1.9695,2.0156,2.102,2.1408,2.1359,2.1039,2.1524,2.1705,2.1628,2.1705,2.184,2.1974,2.1565,2.1383,2.1337,2.1337,2.1228,2.1039,0.0,0.0,0.0,0.0,0.0,-0.7677,-0.8543,0.0,0.0,0.0,0.0,0.0,-1.302,-1.4884,0.0,0.0,-0.9341,-0.6162,0.0,0.0,0.7418,0.0,0.0,0.0,0.0,1.8415,1.8219,1.7703,1.7518,1.6969,1.6053,1.5662,1.5345,1.5062,0.0,1.4441,1.5507,0.0,0.0,1.5739,1.5109,1.5229,1.5712,1.4907,1.408,1.327,1.2896,1.2147,1.129,1.1193,1.1144,0.0,1.1908,0.0,0.0,0.0,0.0,0.0,1.0169,0.0,0.0,0.0,0.0,0.0,0.0,0.0,0.0,0.0,0.0,0.0,0.0,0.0,0.0,0.0,0.0,0.8302,0.0,0.0,0.0,0.0,0.0,0.0,0.0,1.1587,1.1689,1.1814,1.2183,1.2788,1.3706,1.4256,1.5167,1.6496,1.8398,1.9836,2.0799,2.0384,2.0241,2.0416,2.0416,2.0751,2.139,2.2007,2.1972,2.1385,2.202,2.2106,2.1823,2.2163,2.231,2.231,2.231,2.2106,2.1794,2.1794,2.1718,2.1598,-0.2886,-0.2677,0.0,0.0,0.0,0.0,0.0,0.0,0.0,0.0,0.0,0.0,0.0,0.0,0.0,0.0,0.0,-0.1422,0.1522,0.0,1.6188,0.0,0.0,1.7837,0.0,0.0,1.7873,1.817,1.791,1.7595,1.7231,1.6901,1.6331,1.5577,1.5666,1.5419,1.4968,1.5521,1.5769,1.5799,1.5769,1.5784,1.5741,0.0,1.4537,1.3899,1.2589,0.0,0.0,1.1689,1.179,0.0,0.0,0.0,0.0,0.0,0.0,0.0,0.0,0.0,0.0,1.0031,0.0,0.0,0.0,0.0,0.9905,0.0,0.0,0.0,0.0,0.0,0.0,0.0,0.0,0.0,0.0,0.0,0.0,0.0,0.0,0.0,0.0,1.0542,1.093,1.1383,1.1863,1.2195,1.2352,1.4155,1.5316,1.5636,1.7899,1.983,2.1352,2.1343,2.1617,2.2215,2.2215,2.2243,2.2258,2.2305,2.2274,2.2254,2.2282,2.2282,2.2282,2.2282,2.231,2.231,2.231,2.2282,2.2282,2.2282,2.2003,2.1658,0.0,0.0,0.0,0.0,0.0,0.0,0.0,-1.0328,0.0,0.0,0.0,0.0,0.0,-0.0021,0.1527,0.0,0.0,1.0266,1.0782,1.4201,0.0,0.0,0.0,1.8145,0.0,0.0,0.0,0.0,0.0,1.7415,1.728,1.6968,1.6757,1.6693,0.0,1.6062,0.0,0.0,0.0,0.0,0.0,1.5799,1.577,0.0,1.5389,1.5106,1.4273,1.3837,0.0,1.2868,1.2721,1.2832,1.2839,1.243,1.1959,1.2084,1.1876,1.155,0.0,0.0,1.1161,1.0556,0.0,0.0,0.0,0.0,0.0,0.0,0.0,0.0,0.0,0.0,0.0,0.0,0.0,0.0,0.0,0.0,0.0,0.0,0.0,0.0,0.0,0.0,1.0328,1.0708,1.0059,1.0807,1.3467,1.4421,1.5339,1.6369,1.8335,1.963,2.0151,2.1379,2.2082,2.2291,2.2291,2.23,2.2303,2.2303,2.231,2.231,2.231,2.231,2.231,2.231,2.231,2.231,2.231,2.231,2.231,2.231,2.2209,2.2077,0.3849,0.0,0.0,0.0,0.0,0.0,0.0,0.0,0.0,0.0,0.1121,0.0,0.5502,0.0,1.071,0.0,1.3908,1.6761,1.6332,1.641,0.0,1.8063,1.8063,0.0,0.0,0.0,0.0,0.0,0.0,1.7368,1.7479,1.7126,1.7101,0.0,0.0,1.647,1.6351,0.0,1.6133,0.0,0.0,1.4674,0.0,0.0,1.561,1.5269,0.0,1.4461,1.3946,1.338,1.32,1.3201,1.3187,1.3032,1.2781,1.2703,1.257,1.2334,1.1989,1.1876,0.0,1.1173,1.1035,0.0,1.032,0.0,1.0168,0.0,0.0,0.0,0.0,0.0,0.0,0.0,0.0,0.0,0.0,0.7499,0.0,0.0,0.0,0.0,0.0,0.0,1.0054,1.0443,1.0108,1.1181,1.4145,1.4762,1.5505,1.6597,1.8616,1.9667,1.9667,2.1423,2.231,2.231,2.231,2.231,2.231,2.231,2.231,2.231,2.231,2.231,2.231,2.231,2.231,2.231,2.231,2.231,2.231,2.231,2.231,2.231,0.0,0.0,0.0,0.0,-0.2021,0.0,0.0,0.0,0.347,0.0,0.438,0.8301,1.6729,1.8167,1.8439,1.8248,1.8121,1.8027,1.7985,1.7508,0.0,0.0,1.6831,1.6683,1.639,0.0,0.0,0.0,0.0,0.0,0.0,0.0,0.0,0.0,1.6977,0.0,1.6438,1.6378,1.6136,1.5827,1.5799,1.2786,0.8844,1.388,1.5183,1.4329,1.4508,1.4038,1.333,1.334,1.3332,1.334,1.3344,1.365,1.3928,1.3387,1.3547,1.3671,1.271,1.2454,1.2316,1.1763,1.1625,0.0,0.0,0.0,1.0731,0.0,0.0,0.0,0.0,0.0,0.0,0.0,0.0,0.0,0.0,0.0,0.0,0.0,0.0,0.0,0.0,0.904,0.9985,1.0543,1.1863,1.3145,0.0,1.5151,1.5832,1.637,1.874,2.0002,2.0002,2.1549,2.231,2.231,2.2293,2.2293,2.231,2.2293,2.231,2.231,2.231,2.231,2.231,2.231,2.231,2.231,2.231,2.231,2.231,2.231,2.231,2.231,1.0513,0.8171,0.7021,0.0,0.4292,0.1813,0.0,0.0,0.0,0.0,1.5443,1.6811,1.8204,1.9431,2.0062,1.9778,1.9919,0.0,0.0,0.0,0.0,1.8699,1.8861,1.8461,1.7507,1.7655,0.0,1.7296,0.0,0.0,1.7789,0.0,0.0,0.0,0.0,0.0,1.6919,1.701,1.6722,1.6136,1.5898,1.4989,1.3925,0.0,1.402,1.1866,1.4513,1.5312,1.5125,1.5139,1.5117,1.5121,1.5131,1.4333,1.3496,1.3795,1.3624,1.3303,1.3074,1.2985,1.286,1.2341,1.219,1.2052,0.0,0.0,0.0,0.0,0.0,0.0,0.0,0.0,0.0,0.0,0.0,0.0,0.0,0.0,0.0,0.9312,0.0,0.0,0.0,0.7906,0.8573,1.0383,1.2174,1.3704,1.4912,0.0,1.6167,1.7384,1.9099,2.0002,2.0002,2.1549,2.231,2.231,2.25,2.25,2.231,2.25,2.2473,2.231,2.231,2.231,2.231,2.231,2.231,2.231,2.231,2.231,2.231,2.231,2.231,2.231,1.4138,0.0,0.0,1.258,0.0,0.0,1.1043,1.4214,0.0,1.9107,1.9915,0.0,1.9371,2.0027,2.0555,2.0601,2.0959,0.0,2.0,0.0,0.0,1.9122,1.939,1.91,1.8153,1.8098,0.0,1.826,0.0,0.0,1.8285,0.0,0.0,0.0,0.0,1.7574,0.0,1.7455,1.694,1.6274,1.5926,1.5799,0.0,1.5799,1.4569,1.3084,1.507,1.4295,1.2694,1.5006,1.5801,1.5798,1.5808,1.5127,1.441,1.4727,1.441,1.387,1.3664,1.3542,1.347,1.3343,1.3201,1.2961,1.2594,1.2522,1.2522,0.0,1.2486,1.2333,0.0,0.0,0.0,0.0,0.0,0.0,0.0,0.0,0.0,0.0,0.997,0.0,0.8495,0.8629,0.9448,1.1006,1.239,1.3824,0.0,0.0,1.6272,1.776,1.9224,2.006,2.0233,2.1738,2.2554,2.2686,2.284,2.284,2.2712,2.284,2.2764,2.249,2.249,2.2398,2.231,2.231,2.231,2.231,2.231,2.231,2.231,2.231,2.231,2.231,0.0,0.0,0.0,0.0,0.0,0.0,0.0,2.127,0.0,2.0966,0.0,2.044,2.0322,2.0407,2.0619,2.0959,0.0,2.1259,2.0449,2.0382,1.9999,1.911,1.9412,1.9327,1.8684,1.8403,1.867,0.0,0.0,0.0,0.0,0.0,0.0,0.0,0.0,0.0,0.0,1.786,1.7223,1.6521,1.6184,1.6008,1.5933,1.5933,1.5873,1.5799,1.5799,1.2852,0.9638,1.427,1.5799,1.58,1.5802,1.5787,1.5786,1.5674,1.5258,1.4748,1.4318,1.4127,1.4111,1.4406,1.4246,1.3963,1.3838,1.3803,1.3803,1.3803,1.343,1.3235,1.3682,0.0,0.0,0.0,0.0,0.0,0.0,0.0,0.0,0.0,0.0,0.0,0.0,1.0172,1.1237,1.1761,1.2539,1.3768,1.5528,0.0,1.6353,1.7805,1.9195,2.0089,2.0483,2.1759,2.2656,2.3141,2.3124,2.3147,2.3189,2.3189,2.3021,2.2712,2.266,2.2527,2.231,2.231,2.231,2.231,2.231,2.231,2.2282,2.2237,2.2254,2.231,0.0,0.0,0.0,0.0,0.0,2.1127,2.1717,2.2114,2.1998,2.1066,2.1531,2.1658,2.0943,2.1491,2.1675,2.1055,2.1368,0.0,0.0,0.0,0.0,2.1081,2.0846,2.0541,2.0217,2.0099,1.9887,0.0,0.0,0.0,1.9799,0.0,0.0,0.0,0.0,0.0,1.8336,1.8718,0.0,1.7837,1.7513,1.7025,1.6547,1.6547,1.6234,1.5799,1.5799,1.5197,1.4544,1.5504,1.5799,1.5799,1.5786,1.58,1.5653,1.4929,1.4647,1.4602,1.4714,1.4735,1.4703,1.4529,1.4438,1.4379,1.4363,1.4367,1.4367,1.4367,1.453,1.4571,1.4113,0.0,0.0,0.0,0.0,0.0,0.0,0.0,0.0,0.0,0.0,1.1369,0.0,0.0,1.1131,1.1231,1.2626,1.411,0.0,0.0,1.6779,0.0,1.8987,1.9746,0.0,0.0,2.1482,2.2797,2.2683,2.2829,2.3189,2.3189,2.3038,2.2764,2.248,2.2349,2.231,2.231,2.231,2.231,2.231,2.231,2.2237,2.1869,2.1974,2.231,0.0,0.0,0.0,0.0,0.0,0.0,0.0,2.2578,2.2204,2.1638,2.1769,2.1764,2.1368,2.1705,2.1869,2.1691,2.184,2.1764,2.1337,2.1306,2.1306,2.1275,2.1306,0.0,2.1101,2.0955,2.0899,2.096,0.0,0.0,2.0619,2.0619,0.0,0.0,0.0,1.9168,0.0,0.0,0.0,1.8834,1.8285,1.7868,1.7547,1.7314,1.6816,1.6278,1.6278,1.6278,1.6219,1.5918,1.5799,1.5799,1.5799,1.5799,1.5711,1.5301,1.5169,1.53,1.5868,1.5538,1.5179,1.597,1.5727,1.5389,1.5593,1.5655,1.5554,1.5237,1.5329,1.5242,1.4582,1.4338,0.0,0.0,0.0,0.0,0.0,0.0,0.0,0.0,0.0,0.0,0.0,0.0,0.0,0.0,0.0,0.0,0.0,0.0,1.6779,0.0,0.0,0.0,2.0283,0.0,2.1554,2.2847,2.2779,2.3093,2.3714,2.3544,2.3277,2.2982,2.2643,2.2426,2.231,2.231,2.231,2.231,2.231,2.231,2.2282,2.2049,2.2106,2.2282,0.0,2.3261,0.0,0.0,2.3574,0.0,2.3007,2.2744,2.2476,2.2057,2.1832,2.1764,2.1764,2.1764,2.1899,2.2282,2.2209,2.2032,2.1764,2.1658,2.1491,2.1291,2.1568,2.1764,2.1764,2.1547,2.1718,0.0,0.0,0.0,2.1414,2.1414,0.0,0.0,0.0,0.0,0.0,0.0,2.0153,1.9759,1.918,1.8812,1.8563,1.8216,1.7584,1.6906,1.6756,1.6712,1.6637,1.6144,1.5979,1.5978,1.5844,1.5799,1.5799,1.5799,1.5799,1.5978,1.6849,1.6336,1.587,1.7334,1.7055,1.6512,1.6843,1.6921,1.6741,1.6114,1.5946,1.573,1.5103,1.4928,0.0,0.0,0.0,0.0,0.0,0.0,0.0,0.0,0.0,0.0,1.1456,0.0,0.0,0.0,0.0,0.0,1.5365,0.0,0.0,0.0,0.0,1.9752,2.0174,0.0,2.1514,2.2886,2.2795,2.3217,2.4074,2.3753,2.3414,2.3069,2.2764,2.25,2.231,2.231,2.231,2.231,2.231,2.231,2.2282,2.218,2.2209,2.2237,0.0,0.0,0.0,0.0,0.0,0.0,2.288,2.251,2.2175,2.1702,2.1986,2.2237,2.2237,2.2237,2.2237,2.231,2.1899,2.1823,2.2209,2.184,2.1764,2.2152,2.2209,2.2237,2.2237,2.2215,2.2243,0.0,0.0,2.2209,0.0,2.2209,0.0,0.0,0.0,0.0,0.0,2.1008,2.1238,2.0862,2.0767,2.0178,1.9293,1.926,1.8555,1.7518,1.6921,1.6712,1.6697,1.6637,1.6622,1.6517,1.5978,1.5799,1.5799,1.5799,1.5799,1.5978,1.6849,1.7014,1.7028,1.758,1.7605,1.756,1.7593,1.7608,1.7413,1.6756,1.6422,1.6111,1.569,1.6378,1.656,0.0,0.0,0.0,0.0,0.0,0.0,0.0,0.0,0.0,0.0,1.2771,1.2687,0.0,1.3421,0.0,0.0,0.0,0.0,1.8895,1.9021,1.9399,2.0101,1.9507,2.0336,2.254,2.2118,2.2575,2.3753,2.3392,2.3069,2.2721,2.248,2.2321,2.231,2.231,2.231,2.231,2.231,2.231,2.2254,2.1823,2.1928,2.2237,0.0,0.0,0.0,0.0,0.0,0.0,0.0,2.2463,2.2135,2.1658,2.2003,2.218,2.1899,2.2135,2.231,2.231,2.2135,2.2106,2.2282,2.2106,2.2106,2.2282,2.231,2.231,2.231,2.231,2.231,0.0,0.0,0.0,0.0,0.0,2.204,0.0,0.0,2.0993,2.1354,2.1543,2.1658,2.1751,2.1477,2.1113,2.07,2.0448,1.9686,1.8696,1.842,1.8137,1.7832,1.7428,1.704,1.6667,1.6413,1.6353,1.6278,1.5918,1.6054,1.6503,1.7267,1.7462,1.7702,1.8657,1.8612,1.8313,1.8313,1.8313,1.81,1.7428,1.709,1.6732,1.6166,1.6394,1.6581,1.6433,0.0,0.0,0.0,0.0,0.0,0.0,0.0,0.0,0.0,1.4848,1.4952,1.5165,0.0,0.0,0.0,0.0,0.0,1.8966,0.0,1.9328,1.9621,1.9328,2.0167,2.2081,2.1897,2.2465,2.3692,2.3346,2.2915,2.2436,2.2349,2.231,2.231,2.231,2.231,2.231,2.231,2.231,2.2282,2.2106,2.2135,2.2293,2.3657,0.0,2.3534,0.0,2.3063,2.2831,2.2607,2.2426,2.218,2.1853,2.2106,2.2106,2.1658,2.2032,2.231,2.231,2.231,2.231,2.231,2.231,2.231,2.231,2.231,0.0,2.231,2.231,2.231,2.231,2.231,0.0,0.0,0.0,2.2237,2.2044,2.1349,2.1444,2.2077,2.1899,2.2003,2.2282,2.1928,2.1718,2.1552,2.1275,2.0623,1.9844,1.9513,1.919,1.883,1.8197,1.7667,1.7249,1.7055,1.6995,1.6906,1.6473,1.6667,1.7145,1.7802,1.7981,1.8283,1.9405,1.9331,1.8986,1.8986,1.8986,1.8841,1.8314,1.7961,1.7587,1.7034,1.6954,1.7047,1.7204,0.0,0.0,0.0,1.595,0.0,0.0,1.5554,1.6214,1.6657,1.6468,1.6597,0.0,0.0,0.0,0.0,0.0,0.0,0.0,0.0,0.0,1.9305,1.9305,2.015,2.1803,2.1697,2.2333,2.3544,2.3111,2.2712,2.231,2.231,2.231,2.231,2.231,2.231,2.231,2.231,2.2349,2.2398,2.2321,2.2349,2.2436,2.3212,2.357,2.3648,2.2859,2.3089,2.3139,2.2429,2.231,2.231,2.2282,2.231,2.2106,2.1658,2.2032,2.231,2.231,2.231,2.231,2.231,2.231,2.231,0.0,0.0,2.231,2.231,2.231,2.231,2.231,0.0,0.0,2.231,0.0,2.2032,2.1628,2.2061,2.2032,2.1658,2.2106,2.2282,2.231,2.2282,2.2003,2.1582,2.1582,2.1337,2.0831,1.9781,1.9386,1.9321,1.8857,1.8687,1.8568,1.7891,1.7682,1.7682,1.7667,1.7667,1.7817,1.8508,1.8687,1.8852,1.951,1.9675,1.9675,1.9675,1.9675,1.9622,1.9412,1.9105,1.8784,1.8421,1.8642,1.8478,1.7287,0.0,0.0,0.0,1.7121,0.0,1.6652,1.6757,1.7202,1.8005,1.7348,0.0,0.0,0.0,0.0,0.0,0.0,0.0,1.9289,1.9289,0.0,1.9305,1.9305,2.015,2.1785,2.1461,2.1977,2.3206,2.2571,2.231,2.231,2.231,2.231,2.231,2.231,2.231,2.231,2.231,2.2463,2.2643,2.2415,2.2463,2.2695,2.2598,2.2713,2.2733,2.246,2.2564,2.2581,2.2344,2.231,2.218,2.1853,2.2106,2.2106,2.1658,2.2032,2.231,0.0,2.231,2.231,0.0,2.231,2.231,2.231,2.231,2.231,2.231,2.231,2.231,2.231,0.0,0.0,2.231,2.231,2.2209,2.2077,2.2237,2.2209,2.2106,2.2237,2.231,2.231,2.231,2.2209,2.2077,2.2077,2.1794,2.1366,2.1016,2.0718,2.0415,1.9937,1.9802,1.9771,1.9556,1.8955,1.8298,1.7817,1.8011,1.8433,1.8642,1.9031,1.942,1.963,1.969,1.969,1.969,1.969,1.9566,1.9042,1.9263,1.9279,1.8189,1.8485,1.8841,1.8697,1.8566,0.0,1.8197,0.0,1.7683,1.6899,1.7357,1.7821,1.8078,1.7876,0.0,0.0,0.0,0.0,0.0,0.0,0.0,0.0,1.9305,0.0,1.9305,1.984,2.0684,2.1785,2.2023,2.2389,2.2848,2.248,2.231,2.231,2.231,2.231,2.231,2.231,2.231,2.2338,2.25,2.2608,2.2721,2.2865,2.2815,2.2772,2.231,2.231,2.231,2.231,2.231,2.231,2.231,2.231,2.218,2.1899,2.2106,2.218,2.1899,2.2106,0.0,2.231,2.231,2.231,2.231,2.231,2.231,2.231,2.231,2.231,2.231,2.231,0.0,2.231,2.231,2.231,2.231,2.231,2.231,2.231,2.231,2.231,2.231,2.231,2.231,2.231,2.231,2.231,2.231,2.231,2.2106,2.1823,2.1658,2.143,2.1118,2.0516,2.0416,2.0516,2.0348,1.9968,1.9467,1.9069,1.9122,1.9322,1.9322,1.9502,1.969,1.969,1.969,1.969,1.969,1.969,1.9662,1.9568,1.9971,2.0076,1.923,1.946,1.9809,1.9939,1.9424,1.9125,1.9503,0.0,1.8482,0.0,0.0,1.8665,0.0,1.8739,1.8757,0.0,0.0,0.0,0.0,0.0,1.9305,1.9305,1.9583,1.9748,1.9748,2.0456,2.1243,2.2063,2.2428,2.2582,2.2537,2.2388,2.231,2.231,2.231,2.231,2.231,2.231,2.231,2.2338,2.2599,2.2772,2.2923,2.3117,2.3141,2.3117,2.2327,2.231,2.231,2.231,2.231,2.231,2.231,2.231,2.231,2.231,2.231,2.231,2.231,2.231,2.2327,2.2378,0.0,0.0,2.231,2.231,2.231,2.231,2.231,2.231,2.231,2.231,2.231,2.231,2.2338,2.2321,2.2338,2.231,2.2338,2.2349,2.231,2.2293,2.2304,2.231,2.231,2.231,2.231,2.231,2.231,2.231,2.231,2.2237,2.1794,2.1658,2.1521,2.0667,2.0682,2.0959,2.0516,2.0682,2.1039,2.1007,2.0665,2.0314,2.0314,2.0,1.969,1.969,1.969,1.969,1.969,1.9711,1.998,2.0797,2.0991,2.1064,2.1133,2.1177,2.1139,2.0903,2.0209,1.9856,2.0401,1.9842,1.9641,0.0,0.0,0.0,2.0486,1.9898,1.947,0.0,0.0,0.0,0.0,0.0,1.9341,1.9381,2.0115,2.0521,2.056,2.1116,2.1776,2.2527,2.2639,2.2563,2.231,2.231,2.231,2.231,2.231,2.231,2.231,2.231,2.231,2.2338,2.2599,2.2898,2.3165,2.3212,2.3414,2.3628,2.2412,2.231,2.231,2.231,2.231,2.231,2.231,2.231,2.231,2.231,2.231,2.231,2.231,2.231,2.253,2.3088,2.2632,2.231,2.231,2.231,2.231,2.231,2.231,2.231,2.231,2.231,2.231,2.231,2.25,2.266,2.2746,2.2449,2.2561,2.2982,2.2508,2.2286,2.2297,2.2292,2.231,2.231,2.231,2.231,2.231,2.231,2.231,2.2282,2.2163,2.2135,2.2049,2.1491,2.1368,2.143,2.1321,2.1368,2.1399,2.1086,2.0665,2.0314,2.0314,2.0,1.969,1.969,1.969,1.969,1.969,1.9929,2.0227,2.0416,2.1007,2.1308,2.0759,2.0954,2.1063,2.0651,1.993,1.9594,2.0192,2.0118,2.0046,0.0,2.0786,2.1185,2.1115,2.1168,2.1215,0.0,0.0,2.0225,2.0225,1.962,1.9583,2.0207,2.0393,2.0693,2.1096,2.1852,2.2357,2.266,2.2685,2.2563,2.231,2.231,2.231,2.231,2.231,2.231,2.231,2.231,2.231,2.2338,2.2599,2.2746,2.2873,2.3392,2.3459,2.3392,2.2549,2.2388,2.2349,2.2463,2.2388,2.231,2.231,2.231,2.231,2.231,2.231,2.231,2.231,2.231,2.2598,2.3325,2.2733,2.2598,2.3257,2.2682,2.2462,2.2801,2.2496,2.231,2.231,2.231,2.236,2.2473,2.2634,2.2832,2.3035,2.2816,2.2735,2.2794,2.305,2.2867,2.2298,2.2286,2.231,2.231,2.231,2.231,2.231,2.231,2.231,2.231,2.231,2.231,2.2237,2.1764,2.1718,2.1899,2.1658,2.1764,2.1869,2.1645,2.1275,2.083,2.0682,2.0296,1.9929,1.9747,1.9839,1.9965,1.9965,2.0296,2.0682,2.0862,2.1259,2.1526,2.1366,2.153,2.1667,2.152,2.0541,2.0092,2.0909,2.0416,2.0276,2.109,2.1406,2.1698,2.2044,2.1771,2.1461,2.1235,2.0987,0.0,2.0521,2.0311,2.026,2.0316,2.0661,2.1115,2.1628,2.2265,2.2562,2.2527,2.2527,2.2436,2.231,2.231,2.231,2.231,2.231,2.231,2.231,2.231,2.231,2.2349,2.2764,2.2923,2.3021,2.3692,2.3816,2.3692,2.3041,2.273,2.253,2.2771,2.2549,2.231,2.231,2.231,2.231,2.231,2.2412,2.2479,2.2479,2.2581,2.2936,2.3663,2.3054,2.3122,2.4269,2.3156,2.2699,2.3207,2.2671,2.2349,2.231,2.2349,2.249,2.2772,2.2772,2.2947,2.3277,2.323,2.3017,2.2622,2.3714,2.3509,2.2306,2.2296,2.231,2.231,2.231,2.231,2.231,2.231,2.231,2.231,2.231,2.231,2.2237,2.1823,2.1957,2.2237,2.1823,2.1974,2.231,2.231,2.2032,2.1598,2.1118,2.0649,2.0261,1.998,2.0158,2.0416,2.0416,2.0748,2.1181,2.1521,2.1658,2.1823,2.2237,2.231,2.2354,2.2444,2.1384,2.08,2.165,0.0,2.0587,2.2153,2.1893,2.196,2.2862,2.2144,2.1401,2.0951,2.1222,2.1202,2.075,2.1041,2.0942,2.0326,2.1012,2.1625,2.2101,2.2459,2.2527,2.231,2.231,2.231,2.231,2.231,2.231,2.231,2.231,2.231,2.231,2.231,2.231,2.2349,2.2908,2.3117,2.3212,2.3876,2.4113,2.4094,2.4763,2.3904,2.3253,2.3294,2.2728,2.231,2.231,2.231,2.231,2.231,2.2852,2.3224,2.3224,2.3782,2.4458,2.5203,2.4577,2.3985,2.3596,2.3359,2.3004,2.2496,2.2579,2.2537,2.231,2.2527,2.2815,2.3117,2.3117,2.3282,2.3628,2.3512,2.3611,2.3905,2.4117,2.348,2.2293,2.2293,2.231,2.231,2.231,2.231,2.231,2.231,2.231,2.231,2.231,2.231,2.2282,2.2209,2.2237,2.2282,2.2209,2.2237,2.231,2.231,2.2254,2.202,2.1229,2.0649,2.0382,2.0731,2.0829,2.0894,2.0894,2.1213,2.1521,2.1582,2.1928,2.2209,2.2282,2.231,2.2118,2.1528,2.1223,2.0986,2.0673,0.0,2.1381,2.1625,2.2383,2.2864,2.2755,2.2835,2.2873,2.2772,2.2229,2.187,2.1768,2.1192,2.1005,2.1277,2.1673,2.2118,2.2581,2.2422,2.2349,2.231,2.231,2.231,2.231,2.231,2.231,2.231,2.231,2.231,2.231,2.231,2.231,2.2321,2.2652,2.2772,2.2873,2.3522,2.3774,2.3816,2.532,2.4391,2.3663,2.3853,2.3004,2.2349,2.25,2.2371,2.231,2.231,2.2936,2.3393,2.3393,2.4052,2.478,2.5541,2.549,2.5179,2.4611,2.4205,2.3905,2.375,2.3488,2.3163,2.2773,2.2915,2.3141,2.3459,2.3459,2.3649,2.3976,2.3907,2.399,2.4189,2.4208,2.3494,2.2291,2.2293,2.2289,2.2289,2.2289,2.2297,2.2302,2.2302,2.2296,2.231,2.231,2.231,2.231,2.231,2.231,2.231,2.231,2.231,2.231,2.231,2.2106,2.184,2.143,2.1023,2.0731,2.0959,2.115,2.1306,2.1306,2.1675,2.1974,2.1974,2.2135,2.231,2.231,2.231,2.2192,2.1854,2.1448,2.1247,2.1386,2.1413,2.1593,2.2125,2.2631,2.2947,2.2972,2.2947,2.2821,2.2558,2.2435,2.227,2.2006,2.1677,2.1601,2.1805,2.2031,2.2263,2.2473,2.236,2.231,2.231,2.231,2.231,2.231,2.231,2.2405,2.2561,2.2527,2.2616,2.2773,2.2607,2.2527,2.2527,2.266,2.2695,2.2772,2.3437,2.3588,2.3477,2.6109,2.5282,2.4574,2.483,2.3804,2.2969,2.2998,2.2901,2.2779,2.2722,2.3488,2.4049,2.4049,2.4787,2.5422,2.5812,2.6303,2.6407,2.6007,2.5538,2.5141,2.478,2.4101,2.3646,2.3432,2.3277,2.3392,2.3816,2.3753,2.3876,2.419,2.419,2.419,2.4208,2.4208,2.3656,2.2751,2.2734,2.2747,2.2747,2.2747,2.2737,2.2695,2.2418,2.2312,2.231,2.231,2.231,2.231,2.231,2.231,2.231,2.236,2.2349,2.231,2.236,2.2101,2.1764,2.1764,2.1477,2.1166,2.126,2.1538,2.1764,2.1764,2.2032,2.231,2.231,2.231,2.231,2.231,2.231,2.231,2.231,0.0,2.1651,2.2226,2.1803,2.1759,2.2599,2.2643,2.273,2.2982,2.2764,2.2461,2.2111,2.2289,2.228,2.192,2.1858,2.1898,2.2,2.2084,2.218,2.231,2.231,2.231,2.231,2.231,2.231,2.231,2.231,2.2453,2.2773,2.2712,2.2848,2.3069,2.2822,2.2643,2.2625,2.2686,2.2695,2.2772,2.3369,2.3459,2.3346,2.8136,2.7335,2.6578,2.6614,2.5662,2.4663,2.4023,2.4161,2.422,2.3915,2.5103,2.5992,2.5992,2.6976,2.736,2.6673,2.7339,2.7607,2.7217,2.7449,2.6542,2.4098,2.3498,2.3531,2.4113,2.3522,2.3522,2.417,2.3837,2.3876,2.419,2.419,2.419,2.4208,2.4208,2.4136,2.406,2.405,2.4064,2.4064,2.4064,2.4056,2.3928,2.2755,2.2312,2.231,2.231,2.231,2.231,2.231,2.231,2.2349,2.2599,2.25,2.2349,2.2599,2.2473,2.2254,2.2254,2.1899,2.1658,2.2106,2.2225,2.2254,2.2254,2.2282,2.231,2.231,2.231,2.231,2.231,2.231,2.231,2.231,0.0,0.0,2.231,2.226,2.2243,2.2321,2.2321,2.2349,2.2349,2.2349,2.2304,2.2281,2.1907,2.1668,2.1619,2.1274,2.1228,2.1642,2.1658,2.1869,2.2282,2.231,2.231,2.231,2.231,2.231,2.231,2.231,2.2453,2.2695,2.2695,2.2721,2.2746,2.2721,2.2563,2.2332,2.2599,2.2695,2.2746,2.3093,2.3414,2.3671,2.8376,2.8012,2.7487,2.6835,2.6411,2.5878,2.5059,2.5067,2.5063,2.4736,2.5792,2.6468,2.6224,2.721,2.7783,2.747,2.7918,2.8075,2.7678,2.8255,2.7781,2.6035,2.5054,2.4665,2.4942,2.4213,2.3937,2.419,2.4074,2.4074,2.419,2.419,2.419,2.4208,2.4203,2.42,2.4218,2.419,2.4205,2.4205,2.4205,2.4204,2.4063,2.2797,2.2289,2.231,2.231,2.231,2.231,2.231,2.2398,2.2563,2.2686,2.2634,2.2537,2.2463,2.2388,2.231,2.231,2.218,2.2077,2.2254,2.231,2.231,2.231,2.231,2.231,2.231,2.231,2.231,2.231,2.231,2.231,2.231,0.0,2.231,2.231,2.231,2.231,2.231,2.231,2.231,2.231,2.231,2.231,2.231,2.2135,2.2032,2.2032,2.1385,2.1181,2.1582,2.1368,2.1584,2.2282,2.231,2.231,2.231,2.231,2.231,2.231,2.231,2.2571,2.2996,2.2797,2.2947,2.3335,2.3406,2.3101,2.2623,2.3482,2.3266,2.2542,2.3337,2.3293,2.2892,2.859,2.8496,2.8232,2.753,2.7356,2.704,2.6175,2.6223,2.6189,2.5826,2.6659,2.721,2.6915,2.7699,2.8147,2.7926,2.8316,2.8438,2.8075,2.8397,2.8155,2.7066,2.5737,2.5035,2.5035,2.4542,2.4247,2.419,2.4247,2.4247,2.419,2.419,2.419,2.419,2.419,2.419,2.419,2.419,2.419,2.4171,2.3762,2.384,2.4058,2.2775,2.2298,2.231,2.231,2.231,2.231,2.231,2.249,2.2695,2.2695,2.2695,2.266,2.2388,2.231,2.231,2.231,2.218,2.2106,2.2254,2.231,2.2321,2.2415,2.236,2.2321,2.2398,2.2377,2.231,2.231,2.231,2.231,2.231,2.231,2.231,2.231,2.231,2.231,2.231,2.236,2.2426,2.2426,2.2426,2.2426,2.2426,2.2203,2.202,2.1886,2.1323,2.1181,2.1582,2.1337,2.1653,2.2649,2.2429,2.231,2.231,2.231,2.231,2.231,2.231,2.2571,2.3021,2.2797,2.2972,2.3399,2.3763,2.3515,2.301,2.3833,2.3528,2.2711,2.3323,2.3135,2.2677,2.8994,2.8994,2.8994,2.8994,2.8658,2.8149,2.7405,2.7656,2.778,2.7362,2.7958,2.8402,2.8394,2.8749,2.8718,2.7982,2.8576,2.8839,2.8428,2.8007,2.742,2.6631,2.5052,2.4208,2.4208,2.4393,2.441,2.419,2.441,2.4393,2.419,2.419,2.419,2.419,2.419,2.4208,2.4208,2.4208,2.4208,2.4078,2.2821,2.3075,2.4052,2.2788,2.2312,2.231,2.231,2.231,2.231,2.231,2.249,2.2695,2.2695,2.2695,2.266,2.2388,2.231,2.231,2.2282,2.1957,2.1718,2.218,2.231,2.236,2.2634,2.25,2.2388,2.2634,2.249,2.231,2.231,2.231,2.231,2.231,2.231,2.231,2.231,2.231,2.231,2.231,2.2537,2.2695,2.2695,2.2695,2.2695,2.2695,2.2017,2.143,2.1023,2.1007,2.1181,2.1582,2.1582,2.2172,2.3393,2.2682,2.231,2.231,2.231,2.231,2.231,2.231,2.2453,2.2695,2.2695,2.2712,2.2764,2.3569,2.3693,2.341,2.341,2.341,2.335,2.2875,2.2923,2.3236,2.9732,2.9402,2.8858,2.8326,2.8316,2.8252,2.7781,2.8022,2.82,2.8095,2.8512,2.8707,2.842,2.8749,2.8905,2.8676,2.8881,2.8714,2.8017,2.6808,2.6027,2.5768,2.5311,2.5054,2.5054,2.4542,2.4266,2.419,2.4266,2.4266,2.419,2.419,2.419,2.419,2.419,2.4198,2.4274,2.5463,2.4757,2.2976,2.4091,2.3862,2.2822,2.2426,2.2296,2.231,2.231,2.231,2.231,2.231,2.249,2.2695,2.2695,2.2695,2.266,2.2388,2.231,2.2237,2.1899,2.1718,2.1718,2.218,2.2032,2.1911,2.2343,2.25,2.2563,2.2436,2.25,2.2527,2.2321,2.231,2.231,2.231,2.231,2.231,2.231,2.231,2.231,2.231,2.2537,2.2695,2.2695,2.3412,2.3551,2.2755,2.2337,2.2113,2.2197,2.1698,2.1628,2.2077,2.1764,2.2172,2.3393,2.3173,2.3071,2.3071,2.3071,2.2801,2.231,2.231,2.2453,2.273,2.3048,2.3316,2.3638,2.4663,2.472,2.4255,2.5304,2.4763,2.3456,2.3828,2.3485,2.2898,2.9641,2.921,2.8633,2.8183,2.8264,2.8324,2.8129,2.8394,2.8633,2.8633,2.8839,2.8905,2.8658,2.8863,2.8865,2.8558,2.8223,2.7714,2.6888,2.5954,2.5403,2.5403,2.5403,2.5256,2.4924,2.4524,2.4284,2.419,2.4284,2.4432,2.4667,2.4667,2.474,2.4829,2.4595,2.4588,2.48,2.6129,2.5486,2.3664,2.4699,2.4287,2.3007,2.248,2.2293,2.2298,2.2298,2.2676,2.3088,2.2495,2.2411,2.2563,2.2686,2.2634,2.25,2.2349,2.231,2.2209,2.1735,2.1491,2.1368,2.1444,2.1535,2.1718,2.2141,2.2392,2.2527,2.2463,2.2723,2.2788,2.214,2.2266,2.2308,2.186,2.1915,2.2032,2.2032,2.218,2.231,2.231,2.2928,2.3377,2.3377,2.4406,2.4722,2.3919,2.3567,2.3491,2.364,2.3071,2.2886,2.3173,2.2886,2.3237,2.4255,2.4272,2.4194,2.4064,2.3773,2.3397,2.2969,2.253,2.2388,2.2588,2.317,2.3493,2.3796,2.5077,2.5338,2.5017,2.5913,2.527,2.3879,2.4164,2.3612,2.2746,2.9305,2.8925,2.8554,2.851,2.8456,2.8394,2.8394,2.8707,2.8952,2.8994,2.8994,2.8994,2.8994,2.8994,2.8686,2.786,2.6998,2.6172,2.5458,2.5329,2.5293,2.5293,2.5366,2.5072,2.4318,2.4486,2.4523,2.441,2.4487,2.4857,2.5513,2.5472,2.5578,2.5804,2.5348,2.5291,2.5589,2.6365,2.618,2.5295,2.4811,2.4425,2.4025,2.2914,2.2416,2.2325,2.2584,2.3557,2.4455,2.2962,2.2437,2.2474,2.2762,2.2654,2.2412,2.2496,2.2462,2.231,2.19,2.1484,2.1038,2.0465,2.0943,2.1612,2.1936,2.218,2.2406,2.2674,2.3107,2.3139,2.2002,2.2368,2.2504,2.1408,2.1546,2.1741,2.168,2.2036,2.231,2.231,2.3502,2.435,2.435,2.5356,2.5931,2.5717,2.5285,2.5062,2.5129,2.4731,2.4506,2.4537,2.4506,2.4847,2.5609,2.5673,2.5548,2.5177,2.4431,2.4058,2.3998,2.2867,2.2349,2.2372,2.3071,2.3427,2.3613,2.5033,2.5642,2.5693,2.5642,2.5152,2.4452,2.4007,2.3379,2.2746,3.1715,3.0723,2.9703,2.9375,2.8817,2.8394,2.8394,2.8471,2.8658,2.8952,2.8994,2.8994,2.8994,2.8994,2.8686,2.786,2.6484,2.5605,2.5421,2.4795,2.4447,2.4447,2.5072,2.5329,2.5146,2.5167,2.5479,2.608,2.5175,2.5287,2.6337,2.6023,2.5886,2.5977,2.6146,2.6088,2.586,2.6458,2.5732,2.4249,2.5036,2.4791,2.3893,2.399,2.3315,2.2587,2.4931,2.5949,2.5935,2.4107,2.3479,2.3557,2.399,2.3684,2.3274,2.3849,2.3613,2.3186,2.337,2.2881,2.2151,2.1399,2.1175,2.1183,2.1351,2.1892,2.2486,2.2866,2.352,2.3885,2.3341,2.3729,2.389,2.3211,2.3067,2.2839,2.2437,2.2341,2.231,2.231,2.3295,2.4015,2.4015,2.4731,2.5567,2.6419,2.5305,2.4861,2.5394,2.4815,2.4641,2.4948,2.4671,2.4847,2.5609,2.6224,2.637,2.5947,2.5155,2.4627,2.4282,2.3137,2.2625,2.2634,2.3181,2.3714,2.4337,2.5236,2.5947,2.6404,2.5828,2.5152,2.4421,2.3735,2.3179,2.2746,3.1458,3.0965,3.0228,2.9186,2.8997,2.8835,2.8474,2.8565,2.8749,2.8952,2.8994,2.8994,2.8994,2.8668,2.7952,2.6759,2.5529,2.4814,2.4814,2.4428,2.4538,2.5309,2.5364,2.577,2.6542,2.6172,2.5908,2.5798,2.5145,2.5366,2.6362,2.6144,2.6542,2.7445,2.7447,2.7228,2.6836,2.6579,2.5691,2.4458,2.4659,2.4482,2.4245,2.5185,2.5084,2.4601,2.615,2.6705,2.6553,2.5516,2.4862,2.4523,2.4771,2.4181,2.3587,2.4509,2.4259,2.3802,2.4292,2.3708,2.2787,2.1903,2.141,2.1164,2.1233,2.1748,2.2329,2.2715,2.3703,2.4215,2.339,2.4065,2.448,2.3618,2.3342,2.3178,2.2898,2.2897,2.2962,2.2962,2.4172,2.5195,2.5757,2.617,2.663,2.725,2.6363,2.5988,2.6335,2.5836,2.5652,2.5853,2.5652,2.5727,2.6116,2.653,2.6744,2.6727,2.63,2.5693,2.4956,2.4191,2.3532,2.3083,2.4041,2.4661,2.5067,2.5828,2.615,2.6133,2.5761,2.4932,2.3947,2.3716,2.3244,2.2772,3.0944,3.1008,3.0695,2.9166,2.9355,2.9427,2.8623,2.8791,2.8994,2.8994,2.8994,2.8994,2.8994,2.8282,2.7255,2.5935,2.4942,2.441,2.441,2.4281,2.4795,2.6135,2.5676,2.6027,2.7346,2.7016,2.6341,2.5407,2.5321,2.5742,2.6589,2.6519,2.7362,2.8887,2.854,2.821,2.7816,2.6667,2.5885,2.5282,2.4322,2.4237,2.4834,2.5984,2.6561,2.6702,2.6702,2.6702,2.6702,2.6702,2.6141,2.5462,2.5462,2.4815,2.4291,2.5213,2.5007,2.4636,2.531,2.4705,2.3692,2.2733,2.2178,2.1811,2.1811,2.198,2.2191,2.2568,2.3828,2.4488,2.3194,2.4232,2.4942,2.387,2.3606,2.3471,2.3295,2.3499,2.3687,2.3587,2.4923,2.6285,2.7472,2.7694,2.7812,2.7889,2.7587,2.7431,2.7494,2.6975,2.6725,2.6808,2.6725,2.6691,2.6691,2.6791,2.6971,2.7286,2.7371,2.6839,2.5772,2.5292,2.4563,2.3735,2.4913,2.549,2.5642,2.6116,2.6116,2.5761,2.5435,2.4635,2.3675,2.3749,2.3363,2.2848,3.333,3.2782,3.2078,3.1169,3.0528,2.9844,2.9038,2.897,2.8994,2.8994,2.8994,2.8994,2.8994,2.8282,2.7714,2.7475,2.6098,2.5256,2.5256,2.4575,2.43,2.452,2.509,2.5513,2.5733,2.6979,2.7545,2.7413,2.7066,2.7483,2.8599,2.8239,2.8247,2.8471,2.842,2.821,2.7816,2.6667,2.616,2.5979,2.4846,2.4828,2.5454,2.5421,2.5946,2.6691,2.6691,2.6691,2.6691,2.6691,2.6606,2.6505,2.6505,2.6691,2.6951,2.697,2.672,2.6578,2.7321,2.6939,2.6128,2.5241,2.4483,2.3946,2.3822,2.3157,2.2627,2.2667,2.3998,2.4912,2.4144,2.534,2.6286,2.5716,2.5412,2.4946,2.4088,2.3807,2.3553,2.3154,2.3871,2.4889,2.6127,2.6847,2.7375,2.7794,2.7759,2.7879,2.8226,2.7265,2.6873,2.721,2.6873,2.6691,2.6691,2.7051,2.7241,2.7286,2.7659,2.7386,2.6515,2.5471,2.4925,2.4781,2.4679,2.5,2.5558,2.5017,2.5473,2.6386,2.4768,2.4384,2.4666,2.3664,2.3223,2.3117,3.322,3.322,3.2871,3.1604,3.1109,3.0595,2.9787,2.9287,2.8994,2.8994,2.8994,2.8994,2.8994,2.8282,2.7622,2.7163,2.6484,2.5878,2.5439,2.5072,2.4869,2.4869,2.5219,2.5403,2.5403,2.6979,2.7585,2.7126,2.7198,2.729,2.7396,2.7652,2.7894,2.8093,2.87,2.8753,2.8345,2.7432,2.6791,2.6286,2.5253,2.5132,2.5609,2.5475,2.5948,2.6691,2.6691,2.6691,2.6691,2.6691,2.6691,2.6691,2.6691,2.6727,2.6929,2.7601,2.7457,2.7302,2.8265,2.781,2.7002,2.6596,2.5889,2.5214,2.4963,2.4644,2.4239,2.3593,2.4397,2.5072,2.4619,2.5711,2.6624,2.6436,2.6065,2.5675,2.5232,2.4794,2.4583,2.477,2.5424,2.6165,2.7071,2.7476,2.7864,2.8431,2.8467,2.8335,2.8101,2.7606,2.7233,2.6971,2.6774,2.6691,2.6691,2.6873,2.6954,2.6971,2.7545,2.7352,2.6411,2.6323,2.5924,2.5367,2.562,2.5896,2.6184,2.5845,2.5625,2.5418,2.4775,2.4418,2.424,2.3925,2.3536,2.3189]}]]